GFSMA_925_thetae_000.txt.gz
Theta_e
346 347 347 346 344 345 346 346 345 345 343 340 339 340 341 341 342 344 345 342 342 346 346 344 345 347 346 344 344 346 343 344 343 343 344 342 340 338 337 338 338 340 340
348 347 347 347 346 345 343 344 344 343 341 341 339 338 338 339 339 342 344 344 341 342 343 343 344 345 347 345 345 346 343 344 342 343 342 343 340 338 339 339 335 334 336
349 348 347 347 346 345 344 343 343 343 342 339 338 336 335 337 338 337 340 342 343 343 343 342 343 344 344 346 346 345 344 342 344 342 341 339 339 338 339 337 334 335 339
350 349 347 345 345 345 344 344 344 342 341 340 338 338 337 336 337 339 338 339 341 343 344 344 343 343 344 344 345 345 345 343 342 341 344 345 338 335 334 334 338 338 338
349 348 347 347 346 345 345 344 343 343 340 339 339 338 335 336 337 337 337 337 337 338 341 343 344 343 342 344 345 344 345 346 345 344 342 342 341 339 335 333 333 335 336
349 347 346 346 347 344 344 343 343 342 341 341 339 336 335 336 335 333 337 338 339 341 340 339 341 343 344 344 343 343 343 344 344 344 344 342 341 343 343 340 337 336 332
349 349 346 346 343 343 342 343 341 341 340 340 339 337 335 336 335 334 335 334 332 332 340 342 343 343 343 342 343 343 342 342 343 343 344 345 344 339 336 340 341 340 336
349 348 344 342 342 341 340 339 340 340 340 340 339 335 337 335 335 334 332 330 322 324 328 332 335 336 339 341 342 342 342 342 342 342 343 343 344 344 342 336 339 342 340
348 346 343 337 337 338 337 338 338 340 340 340 339 338 336 337 334 334 333 327 319 322 321 325 328 330 333 335 337 338 339 341 342 341 340 341 343 343 343 344 343 339 339
347 343 332 336 337 338 339 336 339 340 340 338 338 338 336 337 336 336 329 325 320 319 320 320 323 326 327 326 328 330 333 337 340 341 342 342 341 341 343 342 343 345 344
348 335 335 336 338 340 336 336 335 337 337 337 336 335 334 333 334 331 332 328 321 319 318 319 320 321 319 319 319 319 323 328 335 340 341 341 340 340 340 343 344 343 346
338 334 335 337 338 339 333 334 334 334 335 336 337 334 332 329 330 330 331 328 327 322 319 319 319 319 318 318 320 321 320 320 323 327 333 339 341 342 341 339 343 345 345
335 333 333 336 336 330 332 333 333 333 333 335 335 332 331 331 330 330 329 327 328 323 320 320 319 319 318 317 318 320 320 320 321 321 324 329 335 338 342 342 342 343 345
335 332 334 334 328 326 331 333 332 332 333 333 335 334 332 332 332 330 328 326 323 321 320 320 320 320 319 318 318 320 320 320 319 318 320 322 329 332 336 340 342 343 343
334 332 332 330 330 328 330 332 330 331 332 334 334 334 334 333 333 332 329 324 320 324 322 322 320 321 322 323 320 319 319 318 318 318 319 320 322 329 333 335 339 342 341
331 331 330 331 332 330 330 331 330 327 331 332 333 333 333 333 334 333 331 326 323 321 324 322 323 323 322 323 321 320 319 318 317 318 318 319 320 322 327 332 333 337 341
332 328 331 332 332 332 332 331 328 329 331 332 332 333 333 333 333 332 331 328 326 323 322 325 323 325 324 323 322 319 319 318 317 317 317 318 318 320 323 328 333 334 336
335 331 332 332 332 334 333 329 328 329 330 330 331 332 332 331 331 331 331 330 328 327 324 324 325 324 324 324 323 321 320 318 318 317 318 319 319 320 321 325 331 335 336
328 330 329 331 332 331 329 328 329 329 329 330 330 331 330 330 329 329 328 328 328 328 326 323 324 325 324 324 323 322 321 318 318 318 319 319 319 321 322 322 326 333 335
328 328 331 332 331 329 329 330 329 329 330 330 331 331 328 327 326 327 327 326 326 326 325 324 324 324 324 324 322 321 320 319 319 319 318 318 319 320 321 322 324 328 335
335 334 333 332 331 329 330 331 331 331 330 332 330 328 326 324 323 323 324 325 325 325 325 324 324 324 324 324 322 321 319 319 319 318 318 318 319 321 322 324 328 327 332
338 336 335 333 331 330 330 331 332 332 330 331 329 327 325 324 322 321 324 323 323 324 325 325 324 324 324 323 322 320 319 319 321 318 318 319 319 320 321 323 323 330 333
337 335 334 333 332 331 330 331 331 330 331 330 329 328 326 324 321 320 320 321 322 324 324 324 324 323 323 321 320 319 319 318 319 318 318 319 319 320 321 322 323 325 330
333 333 333 333 331 332 332 332 332 332 331 330 329 328 325 323 321 322 320 321 322 322 321 320 319 319 318 318 319 319 319 318 318 318 318 319 319 320 321 322 323 324 330
333 333 333 333 332 331 332 333 330 331 330 328 329 326 323 322 322 320 320 321 321 320 319 318 317 316 316 317 318 317 317 318 317 317 317 318 319 319 321 323 323 325 328
334 333 333 333 331 332 333 331 331 330 329 328 326 323 322 320 319 318 319 318 317 317 315 315 314 314 314 315 317 316 317 318 317 317 318 318 319 320 323 323 323 326 331

GFSMA_925_thetae_003.txt.gz
Theta_e
347 347 346 348 347 346 348 348 345 345 343 343 343 341 342 343 343 344 346 345 343 343 346 345 346 347 346 344 346 347 346 345 341 346 344 344 343 339 336 339 339 336 335
347 346 347 346 349 346 348 345 347 345 344 344 341 341 340 340 342 342 343 346 343 341 342 343 343 345 346 347 344 343 346 345 343 340 341 342 342 340 338 336 337 335 334
348 345 346 345 347 345 344 345 346 344 343 342 342 340 341 341 340 343 342 344 346 343 342 343 342 342 343 345 347 344 344 343 343 343 340 338 344 341 337 339 339 335 333
346 345 346 344 344 345 345 346 346 344 344 343 341 341 341 340 342 342 343 342 342 344 345 344 343 342 343 343 345 346 345 343 342 342 344 342 340 337 334 336 337 334 334
348 348 346 345 346 347 345 346 345 345 344 342 342 341 339 339 341 340 342 343 343 343 342 344 343 344 343 347 346 344 344 343 344 342 342 342 342 344 341 335 333 333 337
348 349 346 346 346 347 347 345 345 345 343 343 341 339 339 339 338 339 340 338 336 341 345 346 347 347 344 344 343 342 342 342 343 343 343 343 343 342 342 341 339 334 334
348 346 346 346 345 346 346 345 345 344 342 343 341 337 338 338 336 336 336 331 329 332 336 341 345 345 346 343 343 343 343 342 342 342 342 342 342 343 342 339 339 341 340
350 349 348 345 344 344 344 344 343 342 342 342 341 339 336 338 337 335 331 324 326 327 329 334 337 339 342 344 343 342 343 343 343 343 342 342 342 342 343 343 341 336 336
349 348 344 343 340 338 339 342 341 342 340 342 342 340 336 336 334 334 334 327 326 325 326 330 333 335 334 333 334 336 336 337 339 341 343 343 342 341 341 342 342 343 340
349 346 342 331 337 340 339 340 338 342 342 339 339 340 339 338 335 334 330 328 326 324 325 325 327 330 328 326 326 324 322 326 332 337 341 342 343 345 343 341 341 341 342
349 346 338 332 335 339 339 336 340 340 340 338 337 338 337 336 336 333 330 328 327 327 325 325 325 326 326 324 324 325 321 321 322 325 329 336 340 343 342 342 344 342 342
348 348 335 335 336 338 339 335 336 334 337 338 338 337 333 331 331 331 332 330 329 328 327 326 324 325 325 323 321 320 320 320 320 320 321 322 326 333 339 342 344 344 345
346 345 334 334 338 337 335 331 331 335 335 336 338 335 335 333 333 333 332 331 331 329 328 327 325 325 324 325 324 319 319 319 319 318 319 319 320 322 327 333 338 342 344
346 340 334 332 335 334 328 330 334 334 334 334 336 334 334 335 334 334 334 333 332 330 328 328 325 325 325 325 325 322 324 321 318 318 318 318 318 319 321 324 330 335 340
343 336 332 332 334 327 327 332 331 329 330 334 336 336 335 335 335 335 335 333 332 333 332 327 327 326 327 326 326 326 325 323 318 318 318 317 317 317 318 319 322 330 335
339 335 331 332 330 330 327 329 332 331 330 330 333 337 337 335 336 335 335 333 332 330 332 326 327 327 328 328 327 326 327 323 322 319 318 316 317 317 318 318 320 322 329
338 334 331 330 332 332 331 330 331 331 331 333 336 336 336 332 333 334 334 333 332 330 330 327 326 328 328 328 328 328 327 326 324 322 320 317 317 318 318 318 319 321 324
335 332 331 331 331 335 335 335 334 331 333 334 334 335 335 335 336 335 332 333 331 331 330 329 327 327 328 328 328 328 327 325 325 323 321 318 319 319 318 318 319 320 322
333 333 331 331 331 335 336 337 333 332 333 334 334 334 335 335 334 331 332 331 330 330 330 329 327 326 326 327 327 327 327 326 325 322 321 320 320 319 319 319 319 320 321
335 335 332 331 331 333 334 333 332 329 331 333 331 334 335 332 331 331 331 331 331 330 329 329 327 326 326 326 326 326 325 324 323 322 321 321 321 320 320 321 321 322 322
328 334 329 327 330 332 332 330 331 333 335 336 335 333 331 330 327 325 326 326 329 329 327 327 326 326 325 325 325 325 325 324 323 322 321 321 321 320 320 321 322 323 324
331 330 334 330 332 333 331 330 331 335 337 337 337 332 330 329 326 324 323 320 323 327 327 326 325 326 327 326 325 326 324 323 324 321 322 322 320 319 319 321 321 322 323
334 332 332 335 335 334 332 331 331 332 335 335 331 331 331 331 327 327 324 321 323 323 323 326 328 327 326 325 325 324 322 322 322 322 321 322 319 319 319 320 321 321 322
331 334 336 337 336 336 334 333 333 332 333 333 331 331 332 330 329 325 325 325 325 326 326 325 324 324 323 322 320 320 320 320 321 321 320 321 318 318 318 319 320 321 321
335 335 336 334 335 335 333 332 330 330 331 330 331 331 329 327 324 322 320 323 324 323 323 319 318 317 316 316 316 317 318 320 321 320 318 317 317 318 318 319 320 321 323
335 335 335 333 334 333 332 331 326 327 330 331 331 328 325 323 322 319 319 322 322 322 320 318 318 317 317 317 316 318 319 318 320 319 317 317 317 318 319 320 321 324 326

GFSMA_925_thetae_006.txt.gz
Theta_e
351 352 351 350 350 351 350 349 349 349 348 347 345 342 339 338 341 340 341 346 344 342 345 346 348 349 347 346 345 348 346 341 340 335 341 344 344 343 339 341 340 344 343
350 350 351 350 350 351 349 349 350 349 348 346 342 341 338 336 338 341 339 342 346 343 342 346 345 345 349 349 345 344 348 347 345 343 340 344 341 341 336 334 336 340 339
351 351 350 350 349 350 351 350 350 349 346 343 341 338 339 339 339 340 340 338 342 347 341 342 342 341 343 348 348 348 343 342 343 344 343 339 340 342 343 339 335 336 336
352 352 351 349 349 349 349 349 348 346 343 341 338 338 338 338 339 339 340 340 337 337 345 344 343 343 342 343 346 344 345 344 343 343 343 343 340 337 340 339 338 340 336
351 352 350 350 350 349 349 348 347 344 340 338 336 335 338 339 338 337 340 342 343 341 337 344 343 344 344 347 347 345 344 343 344 343 342 342 343 342 340 340 335 333 331
352 352 351 350 350 349 348 347 346 342 341 338 335 335 339 338 338 338 339 337 337 340 342 346 343 345 344 344 345 345 343 342 342 343 343 343 342 343 342 342 342 339 334
353 353 350 350 350 349 347 344 341 339 336 338 336 335 337 339 338 337 336 330 331 333 338 343 344 344 346 344 342 343 344 344 343 343 342 342 342 342 342 343 343 342 341
354 352 352 351 350 343 344 341 340 338 337 337 338 336 335 337 337 335 332 327 328 328 331 334 339 342 343 344 342 341 343 344 344 344 345 344 342 342 342 342 342 342 342
355 354 353 348 347 339 335 340 340 338 336 340 340 337 336 335 332 334 334 329 328 327 328 329 333 333 333 333 335 335 331 334 337 339 341 344 344 343 342 342 342 342 342
354 353 350 347 340 336 339 339 338 338 339 336 336 337 338 338 335 334 332 330 329 328 328 326 327 329 329 327 329 327 321 321 324 329 333 338 342 343 344 344 343 341 341
353 348 349 343 339 337 340 340 339 339 337 335 334 334 336 333 334 333 332 330 330 329 328 327 326 326 327 327 324 326 320 320 320 321 321 323 325 332 339 343 344 343 343
348 349 349 344 338 337 340 339 338 338 337 336 335 337 332 331 331 331 330 330 330 329 329 328 328 325 325 326 324 321 319 319 319 319 319 319 319 320 322 327 335 342 344
344 346 350 344 339 340 340 337 337 336 336 336 336 334 333 332 331 331 330 330 330 330 330 330 330 327 326 326 326 327 325 324 320 318 318 318 318 318 318 319 321 325 335
341 342 349 343 340 339 339 335 334 334 334 334 335 335 333 333 331 331 330 332 333 331 331 333 332 328 327 326 327 326 328 327 324 318 318 318 317 317 317 318 318 319 321
341 345 346 343 337 339 336 334 333 334 333 333 332 333 334 330 329 330 331 333 333 333 331 328 328 328 328 327 328 328 329 329 328 324 320 319 317 317 317 318 318 318 318
347 344 344 339 337 337 335 335 333 333 333 329 328 330 333 330 331 332 332 331 331 331 332 327 327 327 329 329 329 329 329 329 328 327 325 322 320 318 317 319 318 318 318
348 345 343 338 337 336 336 336 334 332 332 331 330 333 334 336 333 330 330 329 329 329 330 328 327 327 328 330 330 330 329 328 328 327 325 324 323 320 319 319 320 318 319
346 345 342 339 337 336 336 337 335 332 331 331 332 334 335 334 334 334 332 331 329 329 330 329 328 328 328 327 328 330 329 328 327 327 326 325 322 321 321 321 321 319 320
335 337 324 331 338 337 336 337 337 336 333 332 333 334 334 334 334 332 332 329 328 328 328 328 329 328 327 326 326 327 328 326 326 326 325 324 323 322 322 322 321 320 320
330 333 323 325 329 338 337 337 336 336 333 332 334 335 335 335 333 333 332 332 331 331 329 328 328 327 327 326 326 326 326 324 323 324 324 323 322 322 322 322 321 321 321
331 323 325 327 330 338 337 335 335 334 333 334 334 335 335 336 333 332 330 328 329 328 327 327 327 326 325 326 327 325 325 325 324 324 324 322 320 322 323 323 322 321 321
330 325 325 328 333 335 332 332 333 334 334 336 337 337 335 333 334 331 328 325 325 327 327 326 326 326 327 327 327 326 325 325 326 323 323 321 322 324 323 322 321 320 319
331 333 334 334 334 336 334 333 332 332 334 336 338 336 334 331 332 333 332 330 327 327 326 327 328 328 327 326 326 326 325 324 323 321 322 324 323 323 321 321 319 320 320
334 337 338 337 336 336 337 337 334 334 336 338 338 336 333 331 331 332 332 330 328 328 328 328 327 325 325 324 322 321 321 321 321 322 323 325 322 320 320 320 320 319 319
338 340 340 339 338 338 339 338 336 335 336 337 333 330 327 326 332 330 326 327 327 326 325 324 322 320 319 318 318 319 320 321 323 322 322 323 321 321 320 319 319 319 320
341 340 340 339 339 340 338 337 335 335 335 333 328 331 331 330 329 325 323 325 325 325 324 322 321 321 319 320 320 320 320 321 321 322 321 321 321 319 318 318 318 319 320

GFSMA_925_thetae_009.txt.gz
Theta_e
350 351 352 350 351 349 349 348 348 348 347 348 345 342 340 337 336 336 340 344 343 342 344 351 345 346 346 348 347 347 346 346 336 334 344 342 343 344 342 341 338 339 344
350 352 352 350 350 349 349 349 351 349 347 346 343 341 338 338 338 339 338 345 342 344 342 344 349 345 345 348 349 347 348 345 344 340 337 340 342 342 344 338 333 332 335
352 354 351 351 348 349 353 351 348 348 345 341 338 337 337 338 338 340 338 337 345 345 343 340 342 344 344 347 347 346 343 344 346 345 345 342 340 340 339 340 339 335 333
355 354 351 350 349 351 349 350 350 347 340 338 336 337 336 337 339 339 340 338 337 338 346 343 342 342 341 342 345 345 347 345 342 342 341 343 342 340 337 338 342 338 339
353 353 350 349 352 350 350 350 349 345 339 337 336 334 337 338 338 338 338 340 341 341 338 344 342 342 343 346 347 345 344 344 344 344 343 342 342 343 342 340 338 337 335
355 354 350 353 352 349 349 347 346 341 339 338 336 333 337 339 337 337 338 336 336 339 341 342 346 345 343 344 345 346 346 344 343 342 343 343 343 342 342 342 342 342 342
354 353 353 352 351 349 348 343 341 337 338 338 336 338 337 338 338 337 334 332 333 333 337 341 342 344 346 343 343 343 344 345 344 343 342 342 343 343 343 342 343 343 343
354 354 354 349 350 346 344 342 340 339 337 338 337 336 338 339 336 335 332 330 330 330 333 336 340 342 344 344 342 339 341 343 344 344 344 343 344 343 342 342 342 342 342
354 356 355 353 350 344 332 342 341 339 337 339 338 338 338 340 337 335 335 331 330 329 330 331 334 333 334 335 339 335 328 331 335 338 341 342 343 344 344 343 343 342 342
353 354 354 348 347 336 340 340 339 340 338 336 336 336 336 337 337 336 333 333 331 330 331 329 328 331 330 329 330 329 320 320 321 323 327 331 336 340 342 343 343 343 342
351 350 349 347 343 336 340 342 340 340 341 336 334 334 337 334 335 332 334 332 331 331 331 330 329 327 328 329 327 328 319 319 319 320 320 320 321 323 326 333 340 343 344
351 349 346 346 342 338 341 341 340 340 338 339 337 337 334 332 333 332 332 331 331 330 330 330 330 330 327 327 327 325 325 321 319 318 319 319 319 319 319 320 322 326 334
346 349 347 348 343 341 341 340 340 339 338 337 338 337 335 333 332 331 330 331 332 331 332 332 331 332 329 328 328 327 328 324 326 323 318 318 318 318 318 318 318 319 320
345 350 350 347 344 341 341 340 337 336 336 337 336 336 335 333 333 331 331 332 338 334 333 333 332 332 329 329 329 327 329 329 329 328 326 322 318 318 317 317 318 318 318
344 343 348 346 344 339 341 339 335 337 336 336 335 335 335 333 330 330 331 332 333 337 336 331 330 331 329 330 330 330 330 330 330 329 328 326 322 320 319 318 317 318 318
345 344 348 346 343 338 341 338 335 335 336 335 332 331 333 332 331 331 332 332 330 330 331 329 330 329 329 330 330 330 330 329 329 329 329 328 326 324 323 321 319 318 319
351 346 348 345 340 339 338 337 337 336 336 336 335 331 332 335 334 332 330 330 328 329 330 329 328 329 331 329 329 330 331 330 329 328 328 328 326 326 324 322 321 321 320
353 349 347 345 339 339 338 338 338 336 335 334 333 332 334 334 336 337 333 333 332 330 330 333 330 330 329 329 330 329 329 329 328 327 326 327 326 324 324 323 322 321 321
355 351 347 346 340 338 338 338 338 338 337 335 334 334 335 335 335 334 334 333 331 330 331 328 328 328 328 328 327 329 327 329 329 326 327 327 326 325 324 323 322 322 322
357 351 346 345 340 339 338 339 338 338 339 338 335 334 335 336 336 336 335 335 334 333 331 330 328 329 329 328 329 327 328 326 326 327 326 325 325 325 324 322 321 322 323
357 351 345 342 341 338 338 339 337 337 338 338 335 334 335 336 335 336 335 333 333 331 330 329 329 328 327 327 328 328 329 328 327 326 324 325 325 324 323 321 323 324 324
355 349 343 339 336 335 335 336 337 335 337 337 336 336 337 337 335 332 331 332 331 330 330 329 329 329 329 329 328 328 328 327 326 324 324 324 322 322 322 323 324 323 322
352 345 340 335 334 336 336 335 332 335 336 336 337 338 338 337 333 334 334 332 330 330 329 328 330 330 330 329 327 327 326 326 325 323 322 323 322 324 324 323 324 321 320
350 345 339 335 337 338 337 335 333 334 334 334 336 337 338 338 337 333 330 329 332 332 331 330 329 329 328 326 325 323 322 322 321 321 322 325 324 325 324 325 322 322 320
350 344 339 337 340 341 340 337 336 336 337 337 337 338 339 338 332 329 328 329 330 330 330 328 326 324 323 321 320 320 320 320 320 321 322 322 323 323 322 321 321 321 320
348 345 341 341 343 343 341 338 338 338 338 338 337 339 337 330 331 331 330 327 329 330 328 326 327 324 323 323 320 320 321 322 321 322 321 321 319 319 322 321 320 319 318

GFSMA_925_thetae_012.txt.gz
Theta_e
352 350 352 351 350 351 350 349 347 349 347 347 345 342 338 338 337 337 348 343 341 341 342 347 345 346 348 347 346 346 344 345 343 344 345 345 343 342 342 342 340 340 342
352 353 353 350 348 349 348 350 350 346 347 348 345 339 337 338 337 340 339 345 342 341 341 341 345 345 344 346 348 347 346 344 341 340 340 342 339 342 342 342 340 333 332
350 354 351 352 351 348 349 351 348 348 348 346 343 337 337 337 340 338 339 339 343 343 342 341 340 341 343 343 347 347 344 345 344 344 342 340 341 341 339 339 337 336 334
353 353 354 352 350 350 350 350 351 348 344 340 336 337 335 337 337 339 340 336 342 345 344 342 340 339 340 341 343 346 345 342 342 343 345 343 344 340 340 340 339 342 338
353 351 351 352 351 349 349 351 348 346 341 338 336 335 335 338 336 338 337 341 338 342 346 343 340 341 343 342 343 344 343 344 344 343 342 341 341 342 342 341 339 337 337
353 353 352 351 351 349 349 347 346 342 338 338 339 335 337 338 336 338 337 336 335 339 342 344 345 345 342 343 345 344 343 344 344 343 343 343 343 342 341 342 342 342 341
355 352 353 352 352 348 348 343 341 339 338 339 335 338 338 336 337 336 331 332 332 333 336 339 344 344 343 341 341 343 343 344 343 343 342 342 342 342 343 342 342 343 343
352 350 350 351 352 350 347 343 340 340 338 338 336 338 343 341 337 333 331 330 329 331 334 336 339 337 342 341 339 336 337 342 343 343 343 342 342 342 342 342 342 342 342
353 353 355 353 352 345 341 342 341 341 338 341 336 339 345 344 341 335 332 331 330 330 330 333 334 331 331 335 340 333 322 326 329 335 339 342 343 344 344 343 343 343 342
353 352 351 353 348 342 344 340 340 338 340 339 338 335 334 333 343 343 336 333 331 330 329 329 330 332 328 331 330 329 324 319 320 320 321 324 328 334 339 342 343 344 343
352 355 352 349 347 332 339 342 340 336 342 337 336 339 338 336 335 335 339 335 333 332 331 330 329 328 329 328 329 330 325 323 318 318 319 319 319 320 320 322 327 335 341
353 350 350 348 344 338 343 341 340 340 338 340 338 338 336 335 337 337 340 335 333 332 332 331 330 330 329 328 328 327 326 327 325 322 320 318 318 318 318 318 319 319 322
355 351 347 347 344 339 342 340 342 340 339 337 339 336 338 332 333 332 331 335 335 332 332 333 331 331 331 329 328 328 328 327 328 328 328 325 320 318 318 317 317 318 318
347 350 346 347 345 342 340 342 340 336 338 337 335 336 336 336 333 333 331 334 337 335 330 330 333 332 332 329 329 329 328 330 330 330 329 329 327 325 320 318 317 317 317
349 351 347 351 345 344 342 341 339 337 338 338 337 336 334 334 334 331 333 331 333 337 337 331 331 332 330 330 330 330 330 330 329 329 328 328 328 327 326 321 320 319 318
346 350 349 349 347 343 341 341 338 339 336 335 335 335 336 335 333 334 333 331 332 335 337 331 330 328 331 330 330 331 330 329 328 330 330 329 328 327 327 326 325 323 320
351 350 350 349 347 345 341 341 337 335 336 336 334 334 332 333 333 333 335 333 329 328 334 329 326 328 328 328 328 329 329 329 330 331 329 328 328 327 327 326 324 323 322
354 346 348 349 347 345 340 341 337 338 340 337 336 335 333 333 334 333 334 333 333 333 332 333 331 330 332 330 329 328 328 332 330 330 328 327 328 327 326 325 324 324 323
356 353 350 349 349 343 342 341 337 337 337 335 335 334 332 333 336 335 337 334 334 333 335 333 332 330 329 327 328 327 327 328 328 326 326 325 326 326 326 326 326 325 324
360 357 353 351 350 344 342 339 341 341 338 336 337 336 335 336 336 336 334 334 334 334 333 332 333 333 331 329 329 330 329 328 329 329 329 328 326 325 325 326 326 325 324
363 360 357 353 351 346 343 343 342 342 340 340 340 336 334 336 337 336 336 335 336 334 332 330 328 329 330 330 330 329 329 328 328 327 329 326 325 325 325 323 323 322 322
365 362 359 353 351 346 340 339 340 342 340 341 340 339 335 335 335 335 335 334 334 332 330 329 330 329 330 330 330 329 329 328 328 327 326 325 323 324 322 320 320 323 324
364 362 360 353 350 345 338 335 338 339 337 338 342 338 336 336 338 337 335 333 332 331 330 328 327 330 330 330 329 328 328 328 326 323 322 322 321 323 324 325 325 324 325
364 361 358 352 345 340 337 336 335 335 336 338 339 338 336 336 338 337 335 335 333 329 329 330 331 331 329 328 327 325 321 320 321 321 321 324 323 321 321 323 324 324 321
360 356 353 347 339 338 337 337 337 335 334 336 336 336 337 337 337 336 336 334 329 330 331 330 330 329 329 327 324 321 322 321 322 322 322 321 321 323 322 319 318 319 320
354 353 349 344 339 338 340 340 339 336 336 337 336 334 336 336 336 334 332 331 332 330 330 331 329 327 326 325 321 322 323 322 322 323 322 321 319 317 315 316 320 321 322

GFSMA_925_thetae_015.txt.gz
Theta_e
351 348 348 349 347 347 348 347 349 347 345 347 347 341 336 337 337 340 343 340 341 340 342 343 345 347 348 347 347 344 346 342 338 343 342 341 341 340 341 341 342 341 338
351 352 352 351 350 349 350 349 346 346 345 345 346 345 337 338 338 340 340 342 341 340 340 341 343 344 346 348 347 347 346 341 339 334 336 341 340 339 340 340 339 337 336
349 351 351 351 349 350 348 349 349 348 343 343 338 337 336 337 339 337 339 338 342 341 340 340 341 341 343 344 348 347 344 345 344 340 337 333 336 337 340 341 341 336 333
350 351 349 349 349 350 347 350 348 349 342 340 337 337 335 337 338 338 338 339 343 344 342 340 339 339 339 340 343 344 344 343 344 344 344 343 342 340 339 339 337 339 341
351 347 349 350 349 350 350 350 348 344 341 336 336 335 338 337 337 338 340 337 341 342 344 341 340 340 340 343 342 342 343 343 343 342 342 342 343 341 341 340 339 338 336
351 349 351 352 351 351 349 346 344 341 337 340 339 335 337 338 335 338 336 334 339 343 344 345 345 343 341 343 344 344 343 343 343 343 343 343 343 342 342 341 341 341 341
350 351 351 350 351 349 348 344 341 339 336 338 333 337 337 337 336 332 332 332 334 337 340 341 343 344 343 340 340 341 342 342 343 343 342 342 342 342 342 342 342 341 341
353 350 348 347 349 352 347 343 337 338 338 337 335 337 338 339 338 331 332 330 333 334 335 333 333 341 341 341 337 335 334 341 343 343 343 343 343 343 342 342 342 342 342
352 351 351 349 351 347 346 341 338 339 337 341 335 337 335 337 339 332 330 328 329 330 330 332 330 333 336 334 336 329 322 321 326 332 336 340 342 343 343 343 343 343 343
352 353 352 351 351 340 340 339 342 339 341 337 340 334 332 331 334 337 333 330 330 329 328 330 331 330 328 330 329 328 327 323 320 317 319 320 322 326 330 335 339 341 343
354 354 352 350 350 341 341 341 339 335 340 339 338 340 337 335 334 331 332 335 332 330 329 328 329 328 329 328 328 328 327 325 326 322 318 318 318 319 319 320 321 324 330
350 350 351 352 348 339 338 341 340 335 339 340 337 337 338 336 335 334 331 330 332 333 332 330 329 329 329 329 328 328 326 327 327 325 326 327 322 318 318 318 318 318 319
353 355 354 349 347 337 342 341 338 338 338 336 335 334 337 336 333 332 331 332 331 332 329 332 331 330 329 328 328 328 328 328 328 329 329 328 327 326 324 323 318 317 317
354 351 351 349 347 340 342 341 341 339 339 333 337 335 336 335 335 333 333 332 329 331 331 329 331 332 331 331 330 328 328 328 329 329 328 327 327 326 326 325 321 319 317
355 354 349 348 346 343 336 343 341 339 339 336 334 332 332 334 333 333 331 331 331 329 328 332 331 332 333 331 330 329 330 330 330 329 328 329 329 329 328 327 326 324 320
350 350 350 348 346 344 341 339 341 339 335 338 337 336 333 330 334 333 333 333 331 331 329 333 328 326 326 327 328 329 330 330 329 327 327 327 329 329 329 328 327 327 325
351 349 350 347 347 345 341 341 341 339 337 336 337 335 335 334 334 332 333 333 331 330 332 330 329 328 329 328 328 329 329 329 331 329 328 328 329 328 327 328 327 326 326
353 351 350 348 348 347 343 340 341 340 336 339 335 335 335 336 334 332 332 332 334 333 333 331 331 331 331 328 329 328 327 327 328 327 331 329 329 327 325 325 325 326 326
353 353 350 349 348 347 345 342 339 340 337 337 337 335 334 332 330 331 334 334 335 334 333 333 333 331 330 331 331 329 328 330 329 330 329 327 328 328 328 326 325 324 325
357 356 352 350 348 347 346 343 341 340 337 337 339 338 338 335 330 334 336 335 335 333 333 333 333 332 332 330 330 330 328 328 327 328 328 326 327 327 325 325 324 323 323
362 359 356 351 349 348 347 345 340 339 339 335 339 337 335 334 332 333 335 334 334 334 335 335 333 330 329 328 329 330 330 329 327 326 325 325 326 325 324 322 318 318 319
361 362 358 354 352 351 349 346 342 341 338 339 339 337 338 336 335 335 337 336 335 334 335 334 332 329 329 328 329 329 329 328 326 325 326 322 318 318 320 322 323 324 324
363 364 361 358 355 352 350 345 343 341 340 341 339 338 341 339 336 335 335 335 335 333 333 332 330 329 329 327 329 330 328 327 328 323 319 320 321 321 321 321 320 321 322
364 364 363 361 358 353 350 345 341 341 340 341 340 340 338 338 336 335 336 337 336 334 333 332 329 329 329 329 329 329 328 326 323 320 319 321 322 321 320 320 320 318 316
365 364 363 360 356 351 348 340 335 336 340 338 337 336 338 338 336 336 334 334 333 332 331 329 329 329 329 329 329 328 325 322 320 321 321 321 321 320 317 313 312 313 316
364 362 360 357 353 348 342 341 336 334 332 333 335 335 337 336 336 334 331 332 331 330 331 330 331 328 327 326 324 324 323 321 320 320 322 322 321 317 314 315 315 316 318

GFSMA_925_thetae_018.txt.gz
Theta_e
349 346 348 348 346 347 346 346 348 347 348 347 345 341 337 337 339 343 343 339 339 340 342 348 347 348 347 346 346 345 342 335 338 341 344 343 344 338 337 341 340 339 338
350 348 349 349 349 349 349 350 348 347 346 343 343 343 342 338 337 340 340 341 339 339 340 342 343 346 347 347 347 346 346 345 340 341 342 342 339 340 335 339 340 339 340
351 350 350 351 349 350 350 348 347 347 342 338 337 340 337 337 337 337 338 339 340 340 339 340 341 341 343 345 347 347 345 345 342 337 332 338 342 338 339 340 341 339 334
351 349 348 347 349 349 349 348 347 348 343 338 336 335 336 337 338 338 338 340 342 342 340 338 338 339 340 341 342 344 343 343 343 343 341 338 333 335 337 338 338 338 338
349 350 347 347 350 350 349 348 348 345 339 335 337 335 337 336 339 339 339 340 342 342 342 340 339 339 339 340 341 342 342 342 342 342 343 342 343 342 341 340 338 337 336
351 349 348 349 350 350 349 349 345 341 336 337 338 336 337 335 338 338 333 339 342 342 343 343 342 342 341 343 342 342 342 342 342 342 342 343 341 341 341 340 340 340 340
351 349 349 351 352 350 348 345 341 338 335 337 334 336 337 336 336 335 332 341 340 339 341 341 342 344 342 340 339 339 341 342 342 343 342 342 342 342 342 342 342 341 340
349 350 350 351 350 350 347 345 341 334 338 339 334 336 334 338 332 331 331 336 336 335 333 330 330 340 340 340 334 332 327 339 341 341 341 341 342 342 342 341 342 342 342
351 350 352 349 347 350 349 345 336 336 337 341 335 336 333 335 337 330 329 331 332 331 330 332 329 334 334 332 331 327 323 319 320 325 331 336 340 342 342 342 343 342 342
352 353 350 349 349 349 346 344 338 336 338 339 338 334 332 334 332 334 332 329 329 329 330 332 330 329 329 329 329 327 325 325 324 320 317 318 319 321 323 327 331 336 340
353 353 351 351 350 348 340 339 338 339 338 336 337 336 333 334 330 328 331 332 331 329 328 328 332 330 328 328 327 328 327 326 327 325 320 320 318 317 318 318 319 319 320
355 353 352 352 349 347 341 339 338 337 338 337 337 338 338 333 334 331 328 329 331 333 331 329 329 331 329 328 328 328 328 326 327 326 327 326 326 325 321 319 318 317 317
355 354 353 352 350 348 340 338 340 339 336 338 337 336 336 334 334 333 328 330 328 331 330 331 331 330 329 329 328 328 328 327 327 328 328 327 326 325 325 325 323 322 318
354 353 351 351 350 348 338 337 339 338 337 336 336 335 336 335 334 332 331 331 326 328 330 328 330 333 331 330 328 329 328 328 328 329 329 328 328 328 328 327 326 326 324
353 353 351 353 352 348 342 335 340 339 338 337 331 336 335 335 334 333 332 334 329 326 325 330 330 331 332 332 330 329 329 329 329 330 330 329 328 327 329 329 329 328 327
354 352 353 353 351 348 342 334 338 339 339 337 335 334 333 330 332 333 332 332 330 329 325 331 329 327 325 325 327 327 328 328 329 329 330 330 329 328 329 330 329 328 328
355 353 352 351 349 347 344 336 337 340 340 334 336 336 336 333 333 334 333 334 331 332 331 331 330 329 329 329 329 328 328 329 329 329 331 331 329 329 329 330 328 326 325
354 354 353 352 349 347 345 341 338 339 339 336 335 338 337 334 334 335 333 332 332 330 334 331 331 330 330 329 330 330 330 329 328 329 329 330 331 328 327 327 327 327 326
355 354 351 350 350 348 346 345 342 338 338 338 335 336 335 334 334 335 334 332 333 335 333 333 332 331 329 331 330 330 329 329 329 328 326 325 326 326 327 327 326 325 325
358 355 353 351 349 349 347 346 344 341 338 338 336 335 337 335 334 333 331 330 334 335 334 333 333 332 332 330 330 328 329 329 328 327 325 324 323 324 326 325 324 322 319
356 356 354 353 350 349 348 347 345 343 339 339 338 336 337 337 336 336 333 330 336 335 334 334 333 332 331 330 329 328 329 329 329 326 324 322 321 318 318 319 320 321 323
358 358 357 354 353 351 349 348 347 345 342 340 339 336 334 336 337 336 334 332 333 335 334 331 330 331 331 330 328 328 328 329 325 325 325 325 318 319 321 321 319 319 321
358 360 361 358 356 354 352 349 347 345 344 342 339 338 334 337 337 337 336 335 336 334 334 326 331 332 330 329 328 328 329 329 328 327 326 322 319 319 319 321 320 319 316
361 359 359 360 360 358 355 352 349 345 343 342 341 338 337 338 337 337 336 335 335 333 327 330 329 330 330 329 330 330 329 329 328 327 324 320 321 321 320 321 319 313 311
363 362 362 360 360 357 356 353 350 344 343 342 341 340 340 339 339 337 335 336 334 331 329 331 330 330 330 329 327 326 326 327 323 323 321 320 321 320 319 319 314 313 313
363 363 362 362 360 357 356 352 348 344 342 340 340 341 338 335 337 335 335 335 333 329 329 330 330 329 327 326 324 320 320 323 321 319 319 319 319 319 317 315 313 310 315

GFSMA_925_thetae_021.txt.gz
Theta_e
347 348 346 346 345 345 346 345 346 346 347 345 344 343 341 337 342 343 340 340 339 341 343 344 349 347 346 347 346 344 346 344 337 344 341 341 340 335 332 338 338 337 336
348 347 346 348 348 347 348 346 346 347 345 342 342 340 341 341 338 342 343 340 339 339 341 342 344 347 347 348 346 346 345 344 340 335 342 342 341 342 336 336 341 340 340
350 348 348 349 348 349 347 344 348 347 340 337 338 340 337 336 337 340 340 341 340 339 338 339 341 342 343 345 348 345 343 343 342 338 337 339 341 338 341 338 337 339 338
350 350 349 350 348 349 347 348 348 346 343 337 335 335 336 337 337 337 338 339 341 340 338 338 338 339 340 341 342 346 345 344 343 341 337 333 333 340 338 334 338 339 340
351 349 349 348 349 349 348 348 348 346 340 334 336 335 336 337 337 338 338 341 341 341 340 339 338 338 339 343 344 342 342 342 341 342 341 340 339 336 336 337 337 337 337
350 349 349 347 347 349 349 348 348 343 336 336 337 336 336 336 339 338 337 340 342 342 342 340 340 340 340 342 341 340 341 341 341 342 342 341 340 340 341 340 340 340 339
350 350 349 348 347 349 349 348 344 340 336 337 335 335 337 335 338 333 339 337 339 341 342 343 342 343 341 340 339 338 338 340 340 341 341 342 342 342 342 342 342 342 341
350 351 349 348 350 351 349 347 342 337 335 338 334 333 332 334 333 330 340 337 335 336 335 329 335 343 341 340 336 331 326 336 340 340 340 340 341 341 341 341 341 341 342
351 350 350 349 350 350 349 346 343 336 336 339 335 335 332 334 334 330 337 336 335 334 331 330 331 337 338 334 331 325 320 321 319 321 324 331 337 340 342 342 342 342 342
350 349 350 350 349 348 348 348 344 334 336 338 335 333 333 335 330 329 330 334 335 334 331 330 329 330 330 328 328 326 324 325 325 322 318 317 317 318 320 321 324 328 334
348 349 351 351 348 347 350 348 342 337 337 337 336 334 332 332 330 329 328 330 329 329 329 331 330 329 329 329 328 327 327 326 326 324 325 325 324 321 317 317 317 318 318
352 352 351 352 350 348 347 343 339 338 337 336 337 336 335 332 333 329 326 328 330 332 330 328 328 330 329 329 329 328 328 327 327 327 328 327 325 325 324 323 322 321 319
353 354 352 352 351 350 347 342 339 337 336 337 335 337 337 336 333 332 328 327 327 330 330 329 331 329 330 329 328 328 328 327 327 327 328 329 327 326 326 326 325 325 324
351 353 354 352 351 350 347 344 339 338 338 336 337 335 335 335 334 332 329 330 326 327 329 329 330 332 332 330 329 329 328 328 327 328 328 329 329 328 327 328 328 328 327
352 353 353 353 352 351 348 344 337 338 339 336 335 336 336 335 334 333 333 332 328 325 324 328 330 329 331 332 331 329 329 329 328 328 329 329 329 329 329 328 329 329 329
352 351 352 353 351 351 349 346 337 337 338 338 334 334 333 334 334 333 331 331 330 328 324 328 330 327 326 327 327 328 328 328 328 328 328 329 330 330 330 330 329 329 329
353 353 353 353 350 350 350 346 340 336 338 338 336 336 333 333 331 331 333 333 333 331 327 330 331 328 328 328 328 329 328 328 329 329 328 328 328 330 330 330 328 327 327
352 353 354 353 351 351 352 347 343 338 337 338 337 335 334 335 336 333 334 333 333 331 330 328 329 330 330 330 329 330 329 330 329 329 329 328 326 325 327 326 326 328 327
354 352 353 353 351 351 351 348 345 341 337 337 336 334 332 336 336 334 334 334 333 332 333 333 331 331 331 330 329 329 329 328 327 328 328 327 324 323 323 324 326 325 324
354 354 354 353 353 352 351 349 346 344 340 339 337 337 333 334 335 334 334 334 333 332 333 334 333 332 331 331 330 329 329 328 327 327 327 324 322 320 318 319 319 319 318
354 353 354 354 352 351 351 349 347 346 345 343 339 338 337 334 335 335 335 334 332 332 334 334 332 331 329 327 328 329 328 327 326 327 327 323 323 320 317 319 320 319 318
354 354 353 353 353 351 351 350 348 347 346 344 341 340 338 336 335 336 337 336 336 333 333 334 332 329 328 328 329 327 327 327 326 328 325 325 325 321 318 319 318 320 319
355 354 354 353 354 354 353 352 350 348 346 343 343 342 339 338 337 335 336 337 337 335 333 333 330 326 327 330 329 328 328 327 327 328 327 325 325 323 320 321 319 319 318
356 355 355 354 354 354 354 353 352 348 345 344 344 344 342 341 338 334 336 337 336 335 335 330 329 327 329 328 329 329 329 329 328 327 326 321 322 322 318 315 315 315 314
356 356 356 356 356 355 357 358 354 347 344 344 344 345 342 341 340 337 338 337 335 335 334 332 327 328 329 329 329 326 326 325 323 322 321 320 320 317 316 314 312 311 311
359 357 357 357 357 357 357 357 356 348 343 344 347 343 342 341 340 339 339 337 334 333 333 331 329 329 328 327 324 321 319 320 320 319 317 318 317 316 315 311 310 309 311

GFSMA_925_thetae_024.txt.gz
Theta_e
346 348 346 345 344 344 345 344 345 345 346 345 343 338 339 335 338 342 340 340 339 340 342 343 348 345 346 345 345 344 344 342 340 343 338 342 341 336 336 334 336 338 334
346 347 345 346 347 346 346 346 345 347 345 342 341 343 338 336 339 340 342 339 338 339 340 345 343 347 347 346 346 345 345 344 340 337 341 340 341 341 339 334 337 340 340
348 348 346 347 347 348 347 343 346 346 340 335 339 339 336 336 336 339 339 341 339 339 338 339 341 341 344 347 346 345 343 343 341 334 332 341 340 339 340 339 335 336 339
348 348 349 348 349 347 347 346 347 347 345 336 335 334 335 336 337 337 338 338 340 340 337 337 338 339 340 341 343 345 343 342 342 342 339 334 330 336 339 338 336 337 339
348 348 349 348 349 348 348 348 348 346 343 335 336 334 335 334 337 337 337 339 340 339 340 338 337 338 338 344 344 341 340 342 342 341 341 340 339 336 332 333 334 335 336
349 349 349 349 347 349 348 347 348 345 335 336 337 335 335 337 338 338 339 337 340 342 342 340 339 339 339 341 343 341 339 339 340 341 341 341 341 341 340 340 340 340 339
349 350 349 350 348 347 348 348 346 342 336 336 334 336 335 336 338 334 337 338 339 340 340 342 342 341 342 339 339 337 337 339 339 339 339 340 341 341 341 342 341 341 341
349 350 349 350 348 348 349 347 345 340 333 337 333 332 337 333 333 333 340 339 338 336 336 330 333 342 341 339 335 329 326 335 340 340 339 339 340 340 340 340 341 341 340
349 350 349 350 348 349 349 348 345 341 333 338 335 334 336 338 332 330 335 338 336 335 330 329 331 338 339 334 328 324 321 322 320 319 319 321 325 331 336 338 340 341 341
349 349 350 351 349 349 348 348 346 341 333 337 334 333 334 335 335 334 330 337 336 334 331 330 329 329 330 328 327 325 325 325 323 322 322 322 319 317 318 318 319 320 322
349 350 351 350 350 350 347 346 347 341 333 336 335 333 330 331 332 330 333 330 332 331 329 330 330 330 329 328 328 327 326 326 326 326 327 325 325 324 322 320 318 318 318
349 350 350 349 350 350 347 347 348 341 336 336 337 335 332 331 330 328 331 329 329 329 329 328 328 329 330 329 328 328 327 327 326 327 327 328 326 326 325 324 324 324 324
351 351 350 350 351 351 349 347 345 341 337 335 334 336 336 335 332 330 329 328 330 329 330 331 329 329 328 329 329 328 328 328 327 326 327 327 328 327 327 327 327 327 327
350 350 352 352 351 351 350 348 343 340 337 336 335 335 336 335 334 332 330 329 331 328 328 329 328 330 331 330 329 329 329 328 328 328 326 327 327 329 329 328 327 328 328
347 350 349 351 352 352 351 349 344 341 338 337 336 336 335 334 334 333 331 329 328 332 331 328 328 329 329 330 331 330 329 329 328 328 328 327 328 328 329 329 330 329 328
349 348 347 351 353 353 351 350 346 344 338 337 337 334 335 335 334 334 332 332 332 329 332 328 329 329 328 329 329 328 328 328 328 328 328 328 329 328 328 330 331 329 329
350 350 347 350 351 353 352 351 348 345 338 337 337 336 333 332 333 333 333 331 331 329 329 328 329 330 327 327 328 328 329 329 329 330 330 328 328 327 327 328 328 328 327
351 351 346 350 351 351 352 351 349 347 340 337 337 337 335 333 332 331 330 332 332 331 331 330 329 329 329 329 329 328 330 329 328 327 327 328 327 326 324 323 324 324 325
351 351 348 350 352 352 352 351 349 349 346 340 335 336 335 334 334 334 333 332 333 332 331 330 331 331 330 330 330 330 329 329 328 327 327 328 327 324 320 318 320 322 323
351 351 350 351 352 353 352 351 350 350 349 344 339 337 336 335 333 335 335 333 333 334 332 332 332 332 332 331 329 328 328 328 328 327 326 326 325 322 321 317 318 319 320
351 351 350 351 352 351 352 351 350 350 349 346 343 339 339 337 335 331 335 335 333 333 332 332 332 332 332 330 327 328 328 327 328 327 326 326 324 324 322 317 317 319 320
352 352 351 350 352 351 350 351 352 351 349 346 344 343 340 339 335 335 334 335 335 334 333 332 333 332 331 328 327 329 328 327 328 327 327 327 327 326 324 323 320 321 319
352 353 352 351 351 352 352 352 351 351 350 348 346 344 342 342 339 337 336 335 336 337 336 335 332 332 330 326 329 328 327 329 327 328 327 326 326 326 322 321 320 317 316
352 352 352 352 351 351 351 352 352 351 349 348 347 345 345 344 343 340 338 336 336 337 336 334 334 331 329 326 329 328 329 328 327 327 325 324 322 321 317 315 314 314 313
353 352 352 351 352 351 351 351 351 349 347 348 348 346 346 344 343 342 339 337 336 337 335 334 334 332 328 329 329 329 328 325 325 322 320 320 319 317 315 312 311 310 310
355 354 353 353 354 352 352 352 352 350 345 345 345 346 346 344 343 341 339 337 338 337 334 333 332 330 329 328 327 324 321 321 321 320 316 318 316 316 314 309 309 308 309

GFSMA_925_thetae_027.txt.gz
Theta_e
345 347 346 344 344 345 346 346 343 348 347 343 343 338 343 343 344 344 344 338 338 340 342 343 345 344 341 341 342 338 343 341 339 338 341 340 340 337 340 333 336 340 336
346 346 346 345 346 346 347 346 347 349 343 340 341 343 343 341 338 344 344 342 338 339 340 341 343 346 346 347 345 343 344 344 343 340 343 339 340 339 338 335 335 339 339
347 348 348 346 349 348 347 345 346 346 344 335 340 338 339 335 339 344 345 344 342 339 337 339 340 341 345 347 344 346 344 342 342 340 334 338 342 340 338 338 336 334 337
347 347 348 348 350 348 347 349 345 345 347 337 336 336 337 338 338 343 344 344 345 343 339 336 338 339 340 341 345 345 342 340 341 342 341 337 334 336 340 339 338 338 337
346 347 350 350 348 350 351 348 350 348 344 340 339 338 338 337 337 340 341 344 344 345 344 338 337 337 338 344 340 340 341 341 341 340 341 341 340 338 335 333 335 335 335
347 347 350 348 349 350 351 350 348 346 339 340 337 339 338 340 341 341 341 343 346 346 345 345 345 343 339 341 342 340 339 339 339 340 341 341 341 340 340 340 340 339 340
348 349 351 350 349 350 351 348 348 345 341 337 338 340 338 339 338 338 343 341 344 345 344 345 344 344 344 339 338 336 337 339 341 340 340 340 340 341 341 341 341 341 341
348 349 350 352 351 351 348 350 346 343 339 339 338 339 339 338 337 336 342 341 342 339 337 338 344 346 344 343 337 325 322 329 337 338 339 339 340 340 340 340 340 340 338
348 348 349 351 350 350 352 351 347 343 340 341 335 338 339 338 339 336 340 340 339 338 336 337 339 341 340 336 330 325 324 323 320 318 317 318 317 318 321 324 326 328 332
348 348 349 350 349 352 352 351 347 344 338 340 338 337 336 341 338 338 335 339 338 337 336 335 337 336 333 334 327 325 325 324 325 325 324 324 324 323 320 317 317 318 318
348 349 349 350 350 351 351 349 347 345 341 338 340 337 337 337 337 337 338 336 337 336 335 334 335 336 334 334 333 328 326 326 326 326 327 326 326 325 324 323 323 323 323
352 349 350 350 351 351 350 350 346 347 343 337 340 338 337 336 336 337 338 337 336 335 333 333 333 334 334 336 332 328 327 327 326 327 327 327 327 327 326 326 327 327 327
351 352 349 350 352 348 350 349 347 347 344 340 336 340 340 337 336 334 334 336 335 334 334 335 334 334 333 334 335 330 329 328 328 327 326 327 327 328 328 328 327 327 328
351 351 348 349 349 349 350 350 348 346 343 340 337 336 339 340 338 336 335 335 336 335 334 334 332 333 334 332 332 329 333 329 329 328 328 328 326 327 328 329 329 329 328
351 353 347 349 350 351 351 351 348 346 342 338 338 336 337 339 338 336 334 334 334 335 334 334 333 331 333 331 331 331 332 331 329 328 328 328 327 328 328 328 328 329 329
350 351 351 351 350 350 352 351 350 347 343 341 340 339 337 338 338 337 337 336 334 334 336 333 333 333 331 334 331 329 329 328 327 327 327 327 328 328 328 327 327 328 329
350 351 351 350 352 349 352 352 351 348 345 344 339 339 338 337 337 337 336 336 335 334 334 334 333 333 329 329 331 330 330 330 332 329 329 329 329 328 327 326 325 325 326
350 350 351 351 353 351 351 352 351 349 347 346 344 340 340 338 337 337 336 337 336 335 334 336 335 334 332 332 334 332 333 331 332 329 327 327 328 327 327 325 323 321 321
351 351 352 353 353 353 352 350 351 351 349 347 345 342 340 340 338 335 335 334 334 336 335 335 335 335 334 334 334 332 333 333 330 329 328 327 327 326 326 321 320 317 317
352 352 351 351 352 353 352 351 350 352 350 348 347 344 342 340 339 334 336 337 336 336 336 335 335 335 335 335 335 334 333 332 330 328 328 327 327 326 322 322 318 316 317
352 352 352 352 352 352 351 352 351 352 351 349 348 346 344 340 337 335 336 338 338 338 336 337 336 336 335 335 332 333 332 331 330 328 328 330 329 328 327 327 324 319 319
353 354 354 353 353 352 351 351 350 351 351 350 350 348 346 343 340 338 335 334 337 339 337 337 337 337 337 334 333 332 331 331 330 328 329 329 330 328 328 327 326 322 320
354 354 354 354 354 353 350 349 349 351 351 350 350 350 347 344 344 339 339 335 334 334 335 339 338 338 337 332 333 333 332 331 331 331 330 329 328 327 324 323 322 318 315
355 355 354 354 354 353 351 348 348 350 351 351 350 350 348 346 344 342 342 339 337 335 335 335 338 339 335 334 331 332 333 333 332 330 330 327 324 323 322 320 318 315 312
356 356 355 355 354 354 352 350 348 350 351 351 351 350 348 347 346 344 342 341 339 339 336 336 336 334 333 330 329 332 332 330 328 326 325 323 321 321 319 318 316 313 309
356 356 356 355 354 354 353 351 350 350 351 351 351 349 347 346 346 345 342 343 342 341 339 336 334 334 332 330 329 329 329 326 323 322 321 319 318 317 315 312 313 311 310

GFSMA_925_thetae_030.txt.gz
Theta_e
352 352 353 350 351 350 349 349 347 348 347 345 343 340 339 339 339 339 341 336 339 340 342 345 347 344 345 345 345 343 340 332 338 341 342 343 339 340 341 334 334 339 340
353 352 351 350 350 351 351 348 348 349 345 343 345 342 337 338 338 339 340 342 337 339 340 342 344 347 347 347 345 346 342 344 341 336 339 340 340 341 338 336 335 337 339
354 355 352 351 351 353 350 350 348 348 345 341 342 338 337 338 339 338 341 342 343 337 339 340 341 342 345 347 348 346 343 344 341 343 335 340 336 341 340 341 341 337 336
354 355 351 350 352 352 350 351 348 346 343 341 340 338 336 339 340 339 340 343 341 343 339 337 338 339 341 344 348 344 343 341 340 340 341 340 335 337 338 338 339 339 338
353 355 354 353 355 352 352 350 349 348 342 341 340 337 335 338 337 336 338 341 342 340 341 338 337 337 339 343 340 340 341 340 340 341 340 341 340 340 338 335 334 334 335
352 355 354 352 351 352 351 351 348 347 344 342 337 335 337 339 338 338 337 338 342 341 341 344 344 343 339 344 340 340 340 340 340 340 340 341 341 341 340 340 340 340 339
355 357 354 353 354 352 351 351 350 349 343 342 335 338 338 338 337 337 337 336 337 338 337 339 340 341 343 339 338 335 334 337 341 340 340 339 340 340 341 341 341 341 341
357 357 355 353 354 353 353 354 350 346 343 336 338 338 339 337 336 337 336 336 336 335 334 336 343 343 342 343 338 324 324 332 338 338 337 336 338 339 340 340 340 340 336
357 358 352 351 355 352 352 354 352 349 342 339 342 340 338 339 337 336 340 336 337 335 334 337 337 340 339 333 331 327 323 321 319 319 320 321 320 318 318 319 320 322 327
356 357 354 355 358 354 354 354 353 350 348 338 340 339 342 344 339 341 337 338 337 337 336 335 336 336 336 334 331 327 323 324 325 325 325 325 324 323 322 320 319 318 318
356 355 357 358 358 356 355 357 354 352 348 339 338 339 339 338 339 338 340 338 338 337 337 336 335 336 337 336 335 330 326 326 327 327 327 327 326 326 326 326 326 326 325
354 356 356 358 358 357 357 357 356 353 350 344 338 340 337 337 337 338 338 338 338 338 337 335 336 336 336 336 336 334 328 327 327 327 327 327 328 328 327 327 327 328 329
350 351 357 357 356 359 357 357 357 353 352 348 343 339 339 338 337 335 334 336 335 335 336 335 335 335 335 335 336 334 331 328 327 327 327 326 327 327 328 328 328 328 328
351 351 355 356 357 357 357 357 357 354 351 349 345 340 338 339 339 337 336 336 337 335 335 336 334 334 334 334 335 335 334 334 329 329 328 328 328 327 327 327 328 328 329
352 353 354 357 356 357 357 358 356 355 349 349 344 344 340 337 339 337 337 336 335 337 337 337 333 334 334 335 336 337 337 337 335 330 329 328 327 326 327 327 327 327 327
355 353 356 356 356 357 358 358 355 355 353 348 344 342 343 336 338 338 337 336 335 335 337 334 334 334 334 334 336 335 336 333 328 327 327 326 326 327 328 328 327 327 327
356 357 356 356 355 357 358 359 357 354 355 352 348 344 344 341 337 336 337 336 336 336 335 335 335 336 338 337 334 334 334 334 333 332 328 329 329 328 328 328 327 327 326
357 357 357 357 356 356 357 358 358 354 355 354 352 349 344 342 343 338 337 337 335 335 334 336 335 337 338 338 337 338 335 333 333 333 330 327 327 326 327 327 327 324 320
358 357 358 359 358 356 356 357 357 357 355 355 353 352 348 343 343 338 338 335 336 337 337 335 335 337 336 337 338 338 337 336 334 333 331 328 328 328 326 326 325 321 318
359 358 358 360 358 357 356 356 356 356 356 355 355 353 350 347 344 343 340 339 336 336 336 336 335 334 336 336 335 333 336 336 334 333 332 330 329 329 328 326 322 323 319
359 359 359 359 359 357 356 357 356 355 356 356 355 355 353 350 347 345 343 340 338 339 334 336 337 336 336 336 337 335 334 334 334 334 333 332 331 331 330 328 327 327 324
360 360 359 360 360 358 355 354 355 354 356 356 356 356 354 350 348 344 341 339 340 340 339 336 337 337 337 338 337 336 334 334 333 334 334 332 332 331 330 328 328 327 325
360 360 360 360 360 359 356 354 352 353 356 356 356 356 355 353 350 348 341 339 336 337 338 339 339 338 337 339 339 337 336 335 334 333 335 333 330 329 327 325 324 323 316
361 362 361 361 361 360 358 355 353 352 355 355 356 357 356 355 353 350 348 342 339 339 337 336 338 340 340 340 340 337 337 335 335 334 333 332 328 324 324 323 322 319 316
361 361 360 361 362 361 359 357 354 352 353 356 355 356 356 357 355 350 349 347 346 344 341 337 335 338 340 338 337 336 335 334 333 331 330 327 324 322 322 320 319 317 313
360 360 360 360 361 361 361 358 356 353 353 354 356 356 354 355 355 352 348 349 348 348 344 339 337 337 337 334 332 334 334 333 331 326 326 324 320 319 320 318 315 314 313

GFSMA_925_thetae_033.txt.gz
Theta_e
351 351 351 350 350 349 349 349 348 348 347 342 345 345 339 336 338 344 341 335 340 342 344 349 348 346 345 344 345 345 339 333 340 343 345 345 342 342 343 340 337 337 339
352 351 350 350 349 351 351 350 350 349 347 344 340 342 338 339 337 341 343 339 336 338 341 343 348 348 347 347 346 345 344 339 336 336 342 341 340 340 339 338 337 340 341
354 354 352 350 350 352 352 351 351 350 343 342 341 336 337 340 337 338 344 344 340 336 338 344 344 347 348 348 348 346 344 345 342 343 342 336 341 338 340 340 340 339 337
356 356 353 350 351 352 348 349 346 344 344 338 339 338 338 338 340 336 341 344 345 342 339 337 340 342 343 345 347 345 346 343 342 341 339 340 335 335 339 338 338 338 338
354 357 353 352 353 352 349 346 347 345 340 339 340 338 338 337 340 338 338 339 342 343 342 336 336 338 342 346 345 343 342 342 342 341 341 340 341 341 340 337 334 334 335
354 356 354 355 352 352 350 351 349 343 342 339 338 335 338 339 338 339 337 341 339 338 343 345 341 341 342 346 343 341 340 340 341 340 340 340 340 341 341 340 340 340 340
354 357 355 356 353 353 353 351 350 347 344 340 337 337 338 337 338 337 337 338 338 339 337 339 343 344 340 338 337 335 336 339 345 343 339 339 339 340 340 341 341 341 341
355 357 357 354 355 352 353 354 351 349 341 337 342 337 339 337 336 338 336 335 337 335 335 337 339 343 343 343 337 324 326 339 340 338 335 333 334 337 339 340 340 340 339
356 359 358 353 356 354 353 356 352 348 343 337 343 343 343 344 336 336 337 337 337 334 335 337 338 339 340 333 332 325 322 320 319 321 322 322 321 319 318 318 318 319 321
356 357 354 354 357 353 353 356 353 351 343 339 338 340 344 346 348 344 338 338 338 337 337 336 337 337 337 335 333 327 322 325 325 325 325 324 324 323 322 321 321 321 320
357 355 357 354 356 358 352 352 355 354 347 344 339 338 338 337 339 342 345 340 338 337 339 337 337 337 338 336 334 327 327 327 328 328 328 327 326 325 326 326 326 327 327
356 357 356 358 356 357 355 358 358 356 353 344 340 341 339 340 340 340 340 341 341 337 337 337 337 336 337 338 337 334 329 327 327 327 327 328 328 328 327 327 327 327 327
349 354 356 356 356 359 357 356 359 357 355 351 346 342 340 340 339 338 337 338 338 337 338 336 336 336 336 336 337 336 333 328 327 327 327 327 326 327 327 328 328 328 329
349 349 357 357 357 358 359 358 359 358 354 354 350 341 342 341 340 339 338 338 340 337 337 336 336 335 336 336 336 336 337 335 331 328 328 328 328 328 328 327 327 327 328
350 351 356 359 357 357 358 358 357 359 354 354 350 347 343 339 340 339 338 338 338 340 340 339 336 335 335 336 337 337 336 337 335 335 331 329 329 328 326 327 327 327 327
355 355 354 356 358 358 358 359 356 357 357 352 347 346 345 339 338 339 338 337 336 336 339 337 338 336 336 335 338 336 336 337 336 331 328 328 327 325 326 328 329 328 328
360 355 358 357 358 358 358 360 357 355 358 356 350 347 346 344 339 338 338 338 337 337 336 335 337 338 339 338 337 336 336 336 334 332 332 328 326 328 328 327 326 327 327
361 361 359 360 359 359 359 360 360 353 358 358 356 351 348 346 344 340 339 338 338 338 337 342 336 340 339 339 339 338 338 334 334 334 333 331 328 327 327 327 327 327 326
363 361 362 362 361 360 359 361 361 360 358 358 357 356 353 349 346 342 339 338 339 339 339 339 337 338 338 341 340 340 340 338 337 335 334 333 331 329 329 328 327 326 325
364 363 362 363 363 362 360 360 361 361 360 359 358 358 356 353 348 347 344 340 340 339 338 338 338 336 337 338 339 338 338 339 339 335 334 333 332 331 330 329 327 325 323
364 364 363 363 364 364 361 361 360 360 361 361 359 359 358 356 351 348 346 344 342 340 336 337 339 339 337 337 339 338 338 336 336 333 336 335 334 333 333 332 331 328 326
365 365 365 364 364 364 360 359 360 361 360 361 361 360 358 356 353 350 347 347 346 344 344 343 341 340 342 340 339 338 338 337 337 335 334 336 334 333 332 331 328 328 327
366 366 365 365 365 364 362 358 357 360 361 360 361 361 360 356 355 353 349 346 345 343 343 345 345 344 343 341 341 340 340 339 338 337 336 336 334 332 329 326 325 323 321
367 367 367 366 366 365 364 360 357 356 359 360 360 361 361 356 356 355 353 347 345 342 340 340 343 344 342 342 343 342 340 340 339 338 335 335 333 330 325 324 324 322 319
367 367 367 367 366 366 365 363 360 356 358 359 359 360 360 360 359 356 355 354 349 346 343 340 337 340 341 341 341 340 339 339 338 335 335 333 330 324 323 322 322 319 316
367 366 366 366 366 366 365 364 362 359 358 359 359 359 360 360 360 359 354 356 355 350 346 343 341 339 337 338 340 338 337 337 336 335 333 330 327 322 321 320 319 318 317

GFSMA_925_thetae_036.txt.gz
Theta_e
352 348 352 349 349 349 349 350 350 348 345 342 344 341 338 338 342 338 334 336 339 344 347 349 347 347 346 345 343 342 335 339 343 343 344 342 340 339 340 339 335 336 340
352 353 352 349 351 351 348 350 350 348 346 344 339 338 340 339 341 343 334 336 337 341 344 349 349 348 347 346 344 343 343 338 337 338 339 341 341 340 340 338 337 334 337
352 351 353 351 350 350 351 350 343 348 343 340 337 338 337 338 339 342 343 336 336 338 342 342 344 346 346 347 345 345 343 342 343 344 342 337 341 337 340 341 340 339 338
357 357 354 353 347 349 350 347 351 346 340 342 338 340 338 338 337 343 343 345 344 338 338 341 341 342 342 346 347 344 345 343 342 340 340 339 338 335 336 339 337 338 339
355 356 352 350 354 353 351 348 347 346 344 339 339 339 338 336 340 339 340 342 344 343 340 336 338 338 341 345 342 343 342 342 341 340 340 340 340 340 339 339 338 337 336
354 354 355 352 352 353 348 346 347 342 342 339 337 338 338 338 339 338 337 341 343 343 341 338 337 338 339 347 344 342 342 342 341 340 340 340 340 340 340 340 340 340 340
353 354 353 354 353 353 353 349 349 346 346 339 337 339 339 338 338 336 339 340 342 341 340 345 345 340 339 339 338 337 336 341 346 341 338 338 338 339 340 340 341 340 340
354 354 355 355 355 352 352 352 352 348 342 336 341 340 346 340 336 337 336 336 338 336 336 341 343 344 340 341 330 326 330 338 338 336 333 330 329 333 337 338 337 336 337
353 355 354 354 354 354 353 348 348 349 343 337 341 346 346 343 341 337 336 334 335 334 334 339 343 342 340 331 327 323 323 321 319 321 322 322 321 319 318 317 317 318 318
354 357 354 356 354 353 353 353 352 351 344 337 338 342 342 344 347 342 337 335 338 336 337 337 338 337 337 336 335 324 321 324 325 325 325 324 324 323 323 322 322 322 322
353 357 357 354 354 353 354 353 355 348 348 345 339 338 339 340 340 347 346 342 338 338 336 337 338 336 337 334 331 326 327 327 328 328 328 327 326 325 325 326 326 327 327
356 357 358 355 354 354 356 352 353 355 352 346 343 339 339 340 341 341 348 345 342 339 339 336 337 338 338 336 336 332 328 328 328 328 328 328 328 328 328 328 328 328 328
358 358 356 358 356 352 356 357 355 357 349 352 344 343 341 341 340 339 338 343 343 340 338 338 337 336 337 338 337 336 333 330 328 328 327 327 327 327 327 327 327 327 328
353 356 353 357 356 355 355 358 358 357 357 350 352 340 344 342 340 339 339 342 345 341 338 336 336 336 336 336 336 336 335 334 330 329 328 327 327 328 328 327 327 327 327
353 351 354 357 355 357 358 356 357 360 357 355 352 348 338 343 341 341 339 338 340 348 348 338 336 336 336 336 336 336 336 337 335 335 333 331 329 329 328 327 327 327 328
350 354 357 356 359 356 360 358 360 356 357 357 354 351 343 338 339 340 339 338 337 337 345 339 337 337 335 336 337 336 337 337 337 337 335 330 329 329 326 326 327 328 328
360 352 362 358 358 360 359 360 359 358 359 357 354 350 348 340 340 340 339 339 339 337 340 336 338 337 337 336 337 336 334 336 336 335 332 329 327 326 326 328 327 327 327
357 362 356 358 361 359 360 360 361 357 360 360 355 350 351 346 340 341 344 339 338 339 339 341 338 340 337 337 335 338 337 336 337 338 336 332 332 330 329 328 327 327 326
364 361 363 361 359 361 360 361 361 361 355 361 360 355 352 351 347 339 340 341 340 339 341 339 339 339 342 341 339 337 337 338 334 335 336 335 333 332 330 330 330 328 327
363 363 363 363 364 362 362 361 362 363 361 357 361 360 357 354 349 346 340 339 340 341 338 339 340 338 338 342 340 341 341 340 338 339 336 335 334 333 331 333 331 329 327
363 364 364 364 363 365 363 362 362 363 363 361 359 361 360 359 355 350 348 344 342 338 343 340 340 340 339 340 343 340 339 338 339 338 337 335 334 334 333 333 332 332 330
366 365 366 365 364 365 365 363 362 362 364 363 362 360 361 360 359 355 351 347 343 342 341 340 341 342 341 340 341 339 339 338 339 337 335 335 336 335 335 334 332 330 330
367 367 367 366 365 365 365 364 362 362 362 363 363 362 362 361 359 358 354 350 346 346 342 339 343 344 344 342 342 340 340 340 339 338 337 336 335 335 334 331 325 323 322
368 368 368 367 367 366 365 364 363 361 361 362 362 362 362 361 361 359 356 351 349 347 346 344 344 344 345 343 343 342 340 339 339 339 339 336 335 334 330 325 324 323 321
368 369 368 368 368 367 366 365 364 361 360 361 362 362 362 362 361 359 358 353 349 349 347 346 344 346 347 344 343 342 342 341 342 339 338 337 335 334 325 323 323 322 319
370 369 369 368 368 368 367 366 365 362 360 359 360 362 362 362 362 361 358 357 354 350 348 347 343 342 342 342 342 343 342 341 339 338 337 337 336 328 323 321 321 319 318

GFSMA_925_thetae_039.txt.gz
Theta_e
349 347 350 349 348 348 345 349 348 348 340 340 340 341 344 343 338 333 335 338 341 343 349 346 346 344 341 339 336 335 337 342 343 343 343 341 342 340 339 339 335 336 338
350 350 351 351 350 349 348 350 349 345 345 339 337 340 341 339 342 332 332 337 342 343 342 348 346 345 345 344 342 341 338 334 335 338 338 340 340 339 340 339 339 338 337
350 351 350 351 349 349 349 347 342 342 343 337 336 337 338 341 342 335 338 334 337 342 342 345 343 343 344 345 345 343 342 339 340 341 339 337 337 339 338 340 339 339 339
352 351 350 350 350 352 351 349 349 345 343 340 340 337 339 340 340 342 343 339 335 335 338 341 343 341 340 343 346 345 344 342 342 341 339 340 338 336 333 336 340 335 336
354 351 351 349 349 351 349 346 349 347 346 343 339 338 338 339 340 343 343 344 342 338 335 338 339 340 340 343 346 341 342 341 340 339 339 339 339 339 340 339 339 338 338
349 350 351 349 351 351 349 347 343 341 341 338 339 339 337 338 340 343 343 345 342 341 336 336 337 337 339 342 342 341 341 341 341 340 339 339 339 340 340 340 340 340 339
349 349 350 351 352 352 350 346 343 343 342 336 338 339 340 339 338 339 341 342 342 342 341 342 340 338 340 342 339 340 341 342 343 340 339 338 338 339 339 340 340 340 339
351 352 349 353 353 353 352 351 350 346 343 336 343 342 335 336 338 339 341 341 340 342 342 341 344 340 338 338 333 330 330 336 338 337 334 331 330 331 332 332 327 325 326
351 352 353 353 355 353 350 348 351 348 339 338 340 345 338 337 338 338 336 340 338 338 340 342 344 342 341 330 323 322 323 323 319 321 321 321 321 319 318 318 318 318 319
348 350 354 351 353 353 353 349 347 348 341 337 338 342 343 344 334 335 334 334 336 334 335 340 342 341 335 333 330 322 321 324 325 325 325 324 323 323 323 324 324 325 325
346 350 355 353 353 356 354 350 355 350 344 343 337 339 338 340 342 339 337 337 338 336 336 337 337 337 336 336 333 325 326 327 327 328 328 327 326 325 326 326 326 327 327
348 350 357 356 353 353 353 353 353 350 349 344 343 340 337 338 340 340 341 341 339 338 336 337 338 336 337 337 334 328 327 328 328 328 328 328 328 327 327 328 328 329 330
351 351 357 357 354 352 353 354 351 353 346 348 347 342 341 338 340 339 342 340 340 341 337 337 337 337 337 338 336 332 331 329 329 329 328 328 328 327 327 327 326 326 326
353 353 354 358 356 354 352 356 355 352 351 345 347 341 342 342 342 339 338 340 336 338 339 339 337 336 337 338 337 337 336 332 330 329 328 328 327 327 327 328 327 327 327
353 352 354 356 357 356 352 355 359 356 356 354 346 343 341 341 342 340 339 338 339 337 338 338 336 336 336 336 336 337 336 335 334 333 332 332 331 330 329 328 327 327 327
348 355 354 356 356 355 353 352 358 358 356 357 355 349 340 340 342 342 341 339 338 337 334 340 336 336 337 336 336 336 336 335 336 336 336 336 332 330 329 327 325 327 327
355 348 351 357 355 356 354 353 354 358 358 358 358 355 351 338 337 339 342 339 338 337 336 336 338 337 336 336 337 336 337 338 337 337 336 335 330 329 327 326 327 327 327
352 357 354 356 357 356 355 357 359 357 358 356 358 356 353 349 343 333 340 340 338 338 337 336 339 340 336 336 336 337 336 334 334 335 337 337 335 331 331 330 329 328 327
354 353 358 359 359 358 358 357 356 357 357 358 356 358 355 350 347 344 337 342 341 338 338 340 339 340 337 337 337 336 336 334 335 336 336 334 334 332 332 331 331 331 329
359 358 358 360 361 358 357 358 358 356 358 356 357 360 358 353 349 347 346 339 341 342 340 341 340 339 339 340 339 338 338 337 338 336 336 338 336 334 333 333 332 332 331
361 361 361 362 360 362 360 359 358 358 358 359 356 356 360 359 356 352 348 345 338 340 343 339 339 340 338 339 343 341 339 339 339 338 338 338 335 334 334 334 333 332 330
359 360 363 361 362 363 363 360 359 360 360 360 360 357 356 360 360 358 353 350 346 340 339 344 339 338 339 340 340 342 340 341 340 337 339 339 336 335 335 335 334 334 331
364 362 360 363 362 362 363 363 362 361 360 361 360 360 358 357 360 360 358 356 353 350 344 337 341 339 338 338 338 342 341 340 338 338 337 335 337 336 336 334 334 330 324
364 365 365 363 364 363 363 363 363 363 361 360 362 361 361 359 358 360 359 358 354 352 351 346 339 338 340 338 340 339 341 339 339 338 337 336 336 336 334 331 325 324 323
365 365 366 366 365 365 364 364 363 364 362 361 361 361 362 361 360 359 360 358 355 352 352 352 347 343 341 340 345 345 341 341 340 340 339 339 337 336 334 327 324 323 322
365 365 365 366 366 366 366 365 365 363 361 361 361 360 361 361 361 361 360 359 355 353 351 349 347 346 346 344 345 345 342 341 339 339 338 338 336 335 329 324 322 322 321

GFSMA_925_thetae_045.txt.gz
Theta_e
346 347 345 346 346 346 346 346 345 345 340 340 346 344 343 345 343 337 341 343 342 346 344 341 338 338 340 341 340 343 341 340 340 341 340 341 340 339 336 337 335 334 336
345 347 347 348 347 346 346 346 345 345 338 339 342 344 345 345 342 336 339 344 343 344 345 345 342 341 343 341 337 334 336 339 340 340 340 340 340 338 339 339 338 337 339
348 346 348 347 348 347 347 346 345 343 340 340 341 342 342 343 336 334 337 340 343 343 345 346 342 342 344 345 343 342 338 335 333 334 335 336 336 335 336 336 338 338 336
347 346 348 348 347 346 346 345 346 344 341 339 340 341 341 340 333 335 336 339 342 343 342 344 343 341 343 344 343 342 342 340 339 340 340 339 338 338 338 336 336 337 337
347 347 349 349 349 348 344 346 348 343 341 341 340 340 340 340 337 340 338 336 337 340 340 339 340 339 339 341 341 339 340 342 340 339 339 338 339 339 338 338 338 339 339
348 346 348 349 348 346 347 346 347 343 343 340 339 339 340 341 339 342 342 339 338 336 337 338 339 337 338 342 341 340 340 339 338 339 339 338 338 338 339 338 339 339 339
352 346 347 347 349 349 348 347 342 340 341 340 339 337 338 339 341 342 341 343 341 338 336 337 337 337 338 339 338 338 339 340 339 338 338 338 338 338 338 339 338 336 335
351 348 346 348 349 350 349 347 343 342 337 338 338 334 330 335 338 341 342 342 342 341 339 338 339 337 337 336 334 331 330 331 335 335 333 327 323 324 323 318 317 317 318
346 346 345 348 351 350 349 349 348 344 338 338 339 337 331 332 334 339 342 341 343 341 341 340 340 339 338 331 326 323 322 322 323 322 321 320 320 319 319 320 321 323 324
347 347 347 346 351 349 349 351 349 348 339 338 341 344 340 336 330 335 338 341 342 340 340 340 340 338 337 331 325 321 321 323 323 323 322 322 322 323 324 325 325 326 327
348 348 349 349 346 351 352 352 348 347 342 336 339 342 342 338 334 331 330 336 341 340 337 338 340 339 336 332 330 324 323 325 325 325 325 324 324 325 325 326 327 327 328
347 348 349 350 351 350 351 352 350 344 347 336 336 339 339 340 339 336 333 333 336 337 336 336 337 339 335 335 334 331 325 326 327 327 327 327 327 326 325 326 326 327 327
347 348 349 351 350 351 351 352 352 348 349 345 339 337 339 338 337 338 336 336 335 335 336 335 336 337 337 335 335 335 331 327 327 328 328 328 328 328 328 327 327 326 326
348 346 348 349 349 351 353 352 351 350 351 348 346 342 341 337 336 338 338 337 332 334 337 338 337 336 336 337 336 336 336 332 329 330 329 329 328 327 327 327 327 327 327
349 347 345 346 347 350 354 354 352 351 351 351 348 346 343 340 341 341 340 337 336 333 331 338 338 338 337 336 336 336 336 337 334 331 331 330 329 328 328 328 327 327 327
349 347 345 345 347 347 353 355 352 351 352 352 350 347 346 343 341 340 341 341 338 336 331 336 337 338 338 337 337 336 336 337 337 333 333 332 332 331 330 330 329 328 328
349 348 346 347 348 348 350 355 354 352 351 352 353 352 349 345 343 342 340 341 341 339 334 336 335 337 337 337 336 337 336 336 337 336 334 334 333 333 333 332 330 329 327
350 349 348 347 349 350 350 353 355 354 352 353 354 355 352 352 350 345 340 340 340 340 339 336 337 336 335 336 336 336 336 336 336 335 335 335 334 334 335 335 333 330 328
351 351 352 352 349 350 352 352 353 355 354 353 351 354 354 353 352 353 352 349 339 338 339 339 338 337 337 336 336 336 336 336 336 335 335 335 335 334 335 336 335 333 329
354 353 352 350 353 351 352 353 353 354 355 354 352 350 351 353 354 352 352 353 352 347 338 338 340 340 338 337 338 338 338 337 336 335 335 335 335 334 334 336 334 335 331
352 352 354 353 350 353 353 350 350 353 355 355 354 352 351 352 351 351 352 351 352 352 348 343 338 339 340 339 339 338 337 336 336 335 336 335 335 335 334 333 335 334 332
353 353 352 352 353 351 351 353 356 354 353 354 354 352 352 352 353 353 351 351 353 352 348 344 343 339 338 337 339 338 337 336 335 336 336 336 336 335 334 334 336 334 334
352 354 354 353 353 353 351 351 353 356 357 356 355 354 354 353 354 354 353 353 352 353 354 352 346 346 343 340 339 337 338 338 337 337 337 337 337 337 337 335 336 336 333
354 354 354 355 355 354 353 353 353 355 356 357 357 356 356 356 356 355 355 355 355 355 354 353 351 351 348 346 340 340 339 338 338 337 337 337 337 337 338 336 336 336 334
357 356 355 354 353 354 355 355 355 357 357 358 357 357 357 357 356 356 356 355 356 356 355 355 354 354 353 352 347 340 337 336 337 337 337 338 338 337 337 337 337 337 335
358 359 359 358 356 355 354 354 355 356 356 357 357 358 358 358 358 358 357 356 355 356 356 355 355 355 355 355 352 345 343 338 338 338 337 337 338 337 334 336 336 335 335

GFSMA_925_thetae_048.txt.gz
Theta_e
345 344 341 343 347 345 345 343 341 343 342 344 343 342 343 344 343 338 338 341 343 344 343 343 342 344 341 341 340 341 340 340 340 339 341 339 338 337 337 337 337 337 338
345 346 346 347 346 346 345 345 344 341 339 339 343 345 344 345 342 338 340 343 341 343 341 341 341 341 342 342 339 337 339 339 338 339 339 338 338 339 337 337 339 338 338
345 346 346 347 347 346 346 345 343 339 339 339 341 344 344 344 339 336 339 342 343 343 344 344 343 341 343 341 337 336 334 332 331 332 334 337 338 336 334 333 335 336 337
347 347 347 348 346 346 345 345 343 339 339 340 340 341 343 342 334 335 338 339 340 341 341 343 342 341 340 343 343 342 341 339 338 339 338 337 337 337 338 338 338 338 338
347 346 348 348 347 347 344 345 346 342 340 340 339 339 341 339 334 336 337 337 338 341 341 340 339 339 339 341 341 340 339 339 339 339 339 338 338 338 337 338 338 338 339
348 348 348 348 347 346 344 345 346 345 343 339 339 339 339 339 337 341 339 337 337 337 338 338 338 338 338 341 346 342 340 340 339 339 339 338 338 338 338 338 338 338 337
350 347 347 348 347 345 346 346 341 340 342 339 338 337 339 339 340 340 341 340 339 338 336 337 338 336 337 337 339 339 339 338 337 338 338 336 336 336 337 336 329 323 319
350 349 347 347 346 347 346 346 343 339 337 338 337 334 336 335 337 340 341 342 342 341 339 337 338 337 338 338 336 333 334 334 333 334 330 325 322 321 318 317 317 318 320
348 351 350 349 348 348 347 348 344 343 337 338 338 336 336 338 334 338 340 341 341 341 340 339 339 339 338 334 327 324 325 329 326 323 321 320 319 319 319 321 323 324 325
347 347 348 347 348 349 349 349 348 347 341 339 341 342 335 335 339 341 338 339 340 341 339 338 339 338 337 333 327 322 322 324 324 323 321 322 321 322 324 325 325 326 326
347 347 346 348 346 349 349 349 350 346 346 337 340 342 342 336 333 333 339 336 339 339 337 337 337 338 336 334 332 326 324 324 324 324 324 323 323 324 325 325 326 326 327
346 347 347 348 349 347 350 350 350 346 346 338 337 340 340 340 336 334 334 333 334 336 338 337 336 336 337 335 335 333 329 327 326 326 327 326 325 325 325 326 326 326 326
346 346 347 348 349 349 350 350 351 349 344 346 339 336 337 338 337 337 336 335 335 335 335 336 335 334 336 337 335 335 335 331 328 327 328 328 328 328 327 328 329 329 330
341 345 346 347 348 349 350 351 350 350 349 346 347 343 340 339 337 336 337 336 339 335 336 336 337 337 336 336 336 336 335 335 334 329 328 328 328 328 328 327 327 327 327
342 345 347 346 347 349 349 351 352 350 350 350 349 347 345 342 340 338 336 339 336 340 339 336 337 337 337 337 337 336 336 336 336 336 332 329 329 329 328 328 328 327 327
344 347 348 348 346 347 348 350 353 353 351 351 351 350 348 345 344 341 341 341 338 336 339 335 336 336 337 337 337 337 337 336 336 336 336 335 331 330 330 329 329 329 328
343 347 348 347 347 345 345 348 350 354 353 350 351 352 351 349 345 344 343 340 340 340 336 338 337 337 336 336 335 337 337 336 336 336 336 336 335 332 332 331 331 331 330
345 344 349 348 346 345 346 348 348 351 354 353 351 350 351 352 352 351 350 345 341 340 339 338 339 339 339 338 336 335 335 335 335 336 336 335 336 335 333 333 333 333 332
347 346 348 348 348 347 347 348 350 349 352 353 353 351 350 350 352 352 351 351 350 346 341 338 338 338 339 339 338 337 336 335 335 335 336 335 335 335 335 334 334 334 334
348 347 347 348 348 346 348 348 350 351 351 352 352 353 352 351 349 350 351 351 351 351 351 348 341 337 336 336 337 338 338 337 337 336 336 336 335 335 335 335 334 334 335
348 348 348 348 349 349 349 352 351 350 352 353 352 353 353 353 351 350 350 350 350 351 350 347 345 344 341 339 338 338 337 337 338 337 337 336 336 335 335 335 334 333 335
351 351 350 350 349 350 350 348 349 353 351 349 350 350 351 353 352 351 351 351 352 352 349 347 346 346 346 344 343 340 340 338 339 337 336 336 336 335 335 335 336 334 333
350 351 351 351 351 350 348 349 348 348 352 353 353 353 353 352 352 352 352 352 352 353 354 353 350 349 348 348 346 342 339 340 340 340 337 337 336 335 336 336 336 336 333
350 351 352 351 351 350 349 347 347 349 350 350 351 352 353 354 355 355 354 354 354 354 354 355 354 354 353 353 350 347 346 342 341 340 339 338 338 337 336 336 336 336 335
352 351 351 352 352 352 351 349 349 351 352 352 352 352 353 353 353 354 355 354 355 355 354 355 356 356 356 356 355 350 345 338 340 341 340 337 340 338 337 336 336 336 337
354 353 353 352 353 352 352 352 352 352 352 353 353 353 354 355 355 355 356 355 355 356 356 356 356 356 356 356 356 355 350 346 343 342 342 338 338 338 337 336 337 337 336

GFSMA_925_thetae_051.txt.gz
Theta_e
343 341 341 343 348 346 345 343 345 345 344 347 346 348 348 347 346 343 343 342 342 341 344 344 345 341 342 340 338 340 339 339 341 340 342 340 339 338 338 340 339 338 337
346 346 346 346 346 345 344 342 346 343 341 343 348 348 348 347 345 344 344 343 341 343 341 341 340 338 338 339 335 338 338 338 339 340 335 334 334 334 335 334 337 337 337
345 345 348 348 348 346 343 343 343 339 343 345 348 348 348 347 343 345 346 347 346 342 344 342 340 338 339 340 339 337 335 332 332 332 337 338 338 337 337 337 337 337 337
346 346 348 350 347 347 344 345 345 344 344 342 346 346 347 346 344 344 345 346 347 345 343 341 340 339 339 343 343 343 342 341 339 339 338 338 337 338 338 338 338 338 338
347 346 347 348 346 345 342 347 348 342 343 343 343 345 344 342 342 342 344 345 346 345 346 342 340 339 339 345 344 341 340 339 339 338 338 338 338 338 338 338 338 338 338
347 347 347 349 348 346 344 349 346 342 346 344 341 343 343 343 342 344 344 342 343 345 345 346 345 344 338 339 343 343 342 341 340 340 339 338 338 338 338 338 338 334 331
347 347 348 348 347 343 344 346 344 342 341 341 342 342 339 340 344 344 344 344 343 344 343 343 344 343 343 337 338 338 338 340 339 337 336 335 333 332 332 328 320 317 317
348 349 346 348 345 346 346 345 344 343 342 341 342 341 342 341 341 343 344 344 345 344 344 342 343 342 342 342 339 331 331 331 334 333 327 323 321 319 317 317 318 321 323
347 350 348 348 345 345 349 348 346 345 341 342 339 341 341 341 341 342 343 345 345 345 344 343 342 341 340 342 336 329 323 328 328 324 322 320 319 319 320 322 324 325 326
347 348 349 350 348 349 348 349 346 346 342 343 343 343 336 341 341 342 342 342 343 344 344 343 343 343 340 342 335 325 323 324 324 323 321 321 321 322 324 325 326 326 327
348 347 347 347 348 349 348 348 349 347 346 343 343 345 346 341 337 341 341 341 342 342 342 342 341 342 343 341 341 334 326 326 326 325 324 322 323 324 325 325 326 326 326
348 347 347 347 348 349 349 351 350 349 345 342 342 344 344 344 342 340 340 342 341 341 341 342 340 340 341 343 339 336 333 327 327 327 327 327 326 325 325 325 325 326 326
350 348 346 347 350 348 348 349 351 351 346 346 338 340 342 342 342 342 341 341 341 342 341 341 341 339 339 340 341 336 335 335 330 327 328 328 328 328 327 328 328 328 329
347 350 345 346 346 348 349 350 353 353 353 348 347 344 344 342 340 341 341 341 343 343 343 343 342 339 338 339 339 336 336 336 335 335 330 328 329 328 328 328 328 327 327
346 348 342 345 346 346 348 351 354 354 354 353 353 351 349 347 344 342 341 341 342 345 343 341 341 339 338 338 337 337 337 336 336 336 335 335 330 329 329 329 328 328 328
343 345 342 345 347 346 347 350 353 354 355 354 353 354 352 351 348 346 345 343 342 342 344 341 341 341 337 337 336 337 337 337 337 336 336 336 336 335 331 330 330 329 329
344 341 342 344 347 349 349 349 351 354 356 356 355 355 355 353 351 349 347 346 344 343 343 341 343 341 339 338 338 337 336 335 337 337 336 336 336 336 336 334 331 330 330
344 344 342 345 347 349 352 351 353 352 355 356 357 356 355 354 354 353 351 350 347 346 344 344 342 343 342 341 339 339 338 339 338 338 334 335 335 336 335 336 335 332 332
344 345 345 344 347 350 350 350 350 353 354 355 357 357 356 356 356 354 355 353 352 351 348 346 345 344 344 343 342 341 339 339 339 338 337 336 335 335 335 335 336 334 333
345 345 346 346 347 352 353 353 353 353 354 355 355 357 357 357 357 357 356 356 355 354 352 352 350 349 348 346 344 343 343 343 342 341 340 338 337 336 335 336 335 335 334
349 346 346 348 349 351 350 353 353 354 354 355 356 356 357 356 354 354 356 356 355 355 353 351 350 350 349 349 348 348 347 347 346 345 344 343 342 340 338 336 336 335 335
350 349 351 351 351 350 348 349 349 353 355 356 356 356 355 352 348 348 349 352 353 356 356 355 353 353 355 354 353 352 352 351 352 350 347 344 343 343 342 341 339 336 335
352 351 352 352 352 351 349 346 346 349 352 355 356 356 355 353 353 353 353 350 351 351 352 353 356 357 357 357 356 356 355 355 353 352 351 349 348 346 344 345 342 339 336
355 354 354 353 353 352 350 348 346 347 351 352 353 353 355 355 355 356 356 356 357 357 356 353 352 353 355 356 357 358 358 356 353 352 350 349 350 349 347 345 343 341 340
352 353 354 355 354 353 351 349 349 350 351 353 353 353 353 353 352 352 354 354 355 355 355 355 355 356 356 355 355 354 352 352 350 349 350 349 349 347 347 348 346 341 339
353 353 353 354 355 355 353 349 350 351 352 352 352 353 352 352 352 352 353 354 356 355 357 359 361 360 359 358 358 357 355 349 351 353 355 353 351 350 347 347 345 343 340

GFSMA_925_thetae_054.txt.gz
Theta_e
349 348 350 350 349 349 348 348 348 348 349 347 347 347 346 345 344 341 343 340 339 338 345 346 345 342 343 340 337 341 339 338 342 340 341 340 339 337 337 335 339 338 338
351 350 350 350 350 347 347 347 348 345 343 343 348 347 347 345 345 344 344 342 342 342 337 339 339 336 337 339 337 340 338 338 337 337 332 332 335 339 335 334 334 337 338
354 352 351 350 350 351 350 349 347 345 341 342 346 348 347 345 345 345 346 346 345 341 341 340 339 337 339 342 341 340 338 335 333 334 339 339 337 338 338 338 338 339 339
354 349 352 349 351 348 345 345 343 341 341 340 343 345 346 344 345 345 345 346 345 347 344 340 341 339 339 342 342 342 340 340 339 340 339 338 338 338 338 338 338 338 339
348 350 350 350 352 347 345 343 342 340 341 339 341 343 344 343 343 342 344 345 345 345 344 343 337 338 338 345 347 344 341 341 340 339 338 339 338 338 338 338 338 338 337
351 350 351 349 350 347 345 344 343 344 342 340 339 341 342 343 343 343 342 341 341 343 342 344 346 346 337 336 339 342 341 342 340 339 339 338 337 337 338 337 333 326 319
353 351 351 351 348 348 350 350 348 348 343 343 339 341 342 343 344 343 342 340 342 342 342 342 343 341 344 338 337 334 336 337 336 335 335 333 328 329 328 322 318 318 321
355 354 351 351 348 347 350 350 348 345 343 342 341 338 342 339 340 341 341 342 342 342 342 341 341 343 341 338 338 327 327 328 331 329 324 322 322 320 318 318 320 323 325
354 355 351 351 351 350 347 348 350 347 343 344 346 341 338 342 339 341 342 342 344 343 342 343 342 341 342 341 338 335 322 323 325 323 321 320 319 319 320 323 324 325 327
354 355 356 353 352 351 352 349 351 348 347 342 344 342 344 343 343 345 341 342 342 342 343 343 342 342 342 342 339 333 325 324 323 322 321 321 321 322 323 324 325 326 327
355 354 356 356 352 350 351 353 351 350 345 344 341 343 344 341 342 341 342 342 342 341 341 342 341 341 342 342 342 342 328 328 327 325 325 322 323 323 324 325 326 326 326
353 355 356 357 356 352 352 352 353 353 351 348 343 344 342 342 342 342 341 342 341 341 340 341 341 341 341 342 343 341 338 331 329 329 328 327 326 324 324 324 325 325 326
349 351 356 357 355 356 355 354 353 355 355 349 348 342 343 343 344 344 343 341 342 342 342 342 341 341 340 341 341 341 339 335 335 331 329 329 329 328 328 327 327 328 329
347 349 355 355 356 355 355 356 354 353 355 352 353 348 343 342 342 343 343 343 344 344 344 346 343 342 343 343 342 342 341 339 336 335 335 333 330 330 330 329 328 328 328
347 348 351 354 354 354 355 355 353 356 355 355 353 353 351 346 345 343 343 343 343 346 344 345 340 344 342 342 343 344 345 345 342 338 336 335 335 333 330 330 330 329 329
351 348 351 352 351 353 355 356 353 355 356 355 353 354 354 348 348 346 345 344 344 343 345 340 341 342 343 342 341 342 344 343 344 339 337 336 336 335 335 334 330 330 330
352 353 351 350 350 354 355 355 354 353 357 357 355 354 357 357 352 348 347 346 345 344 344 341 340 341 347 349 346 345 345 345 343 342 339 336 337 336 336 336 335 334 330
354 354 353 352 350 352 354 356 355 352 355 356 357 357 356 354 357 356 351 348 346 345 345 348 344 342 341 343 345 348 348 345 342 340 340 339 337 335 335 336 336 335 335
355 354 354 354 352 352 354 356 356 354 354 355 356 356 356 357 356 354 353 351 350 352 352 352 350 347 346 346 347 349 349 347 347 345 343 342 340 339 337 335 335 335 335
355 355 354 354 354 352 351 353 354 355 354 355 356 356 357 358 358 359 359 358 358 357 353 353 351 348 347 345 347 349 350 349 348 348 347 347 345 343 342 341 338 335 335
355 356 355 354 354 353 350 351 352 353 354 355 355 357 357 358 359 359 359 358 358 357 354 351 349 348 348 348 350 350 352 352 351 352 352 352 352 350 348 345 344 342 338
355 356 356 355 354 353 349 348 350 351 352 354 356 356 357 357 358 357 356 353 353 359 361 358 353 352 357 356 354 355 354 355 358 355 356 356 355 354 354 352 350 346 345
356 357 357 356 355 355 352 349 348 348 350 352 355 355 355 352 355 357 357 356 355 353 352 354 358 358 359 359 360 362 359 361 362 362 361 359 358 357 356 356 355 353 349
358 358 358 358 357 356 354 352 349 350 350 351 352 353 355 354 353 353 355 356 356 357 358 358 356 357 356 356 358 360 360 359 360 359 358 358 357 357 356 355 354 353 352
359 358 358 358 358 358 355 353 352 351 351 352 352 353 354 355 355 355 355 355 354 353 351 351 352 352 354 356 358 357 357 358 360 359 359 359 360 359 358 356 355 354 352
359 359 359 359 359 359 358 355 353 352 351 352 352 354 353 353 354 354 355 354 356 353 352 353 355 360 363 363 361 360 358 357 358 358 359 360 358 355 354 352 351 352 351

GFSMA_925_thetae_057.txt.gz
Theta_e
348 348 350 349 347 346 344 345 347 347 344 344 346 346 343 343 341 344 342 333 335 343 347 348 345 346 345 343 341 343 340 340 342 340 339 338 335 336 337 336 338 338 338
349 351 350 349 347 348 345 346 347 344 345 343 344 345 345 344 346 345 344 342 335 332 332 336 339 341 339 339 339 340 338 333 334 335 334 337 339 341 340 340 341 341 340
352 352 348 350 349 350 349 346 343 340 340 343 345 346 343 345 345 346 346 346 345 339 337 335 336 337 338 341 342 341 340 338 336 336 338 339 338 338 340 339 339 340 339
354 354 349 347 347 347 348 346 345 343 340 341 344 345 345 343 344 345 346 346 345 348 342 338 339 338 338 340 341 341 341 339 339 340 340 339 340 341 340 339 339 338 339
353 353 347 351 351 348 344 343 342 341 339 340 343 344 343 342 344 341 342 344 344 346 347 342 335 335 336 340 347 346 342 342 341 340 339 339 339 339 339 339 338 335 330
352 354 351 350 352 347 344 344 342 345 339 340 340 342 342 341 341 342 340 340 340 342 347 343 346 345 336 334 338 342 343 341 339 338 337 337 336 336 336 335 328 320 318
353 354 352 351 352 351 345 346 341 345 340 340 338 339 340 340 341 340 339 340 340 341 339 342 345 348 344 340 338 331 334 336 334 334 332 329 326 327 325 320 318 319 323
354 352 352 351 351 349 351 349 349 345 342 339 341 342 344 340 340 341 339 339 341 341 341 341 341 341 341 345 344 324 324 326 327 327 324 322 321 319 318 319 321 324 325
353 355 353 353 352 352 350 351 351 349 346 340 342 344 345 347 342 339 340 341 342 343 342 343 341 341 342 343 339 337 323 322 323 322 321 320 319 319 320 322 324 325 327
354 354 354 354 354 352 349 350 351 350 348 341 340 340 343 344 349 352 341 341 342 342 343 343 344 343 343 343 342 340 333 326 324 322 321 321 321 321 323 324 325 326 327
355 353 356 354 355 353 354 352 354 352 346 346 341 341 342 340 341 345 347 342 342 341 341 344 341 342 345 343 343 343 337 332 330 327 325 323 322 323 324 324 325 326 326
354 355 355 356 355 352 354 355 354 353 353 347 347 343 342 342 342 341 341 343 341 341 340 341 341 341 342 344 344 342 342 338 333 332 331 329 327 325 324 324 324 325 325
348 352 355 357 356 356 356 355 356 354 354 350 349 344 343 343 343 343 342 342 342 342 343 343 342 342 342 342 342 343 342 338 335 335 333 332 331 330 329 327 327 326 327
345 355 358 355 356 357 356 356 355 354 354 354 353 347 345 343 342 342 343 344 346 345 346 344 344 344 344 344 344 343 343 342 340 337 335 335 334 332 331 331 330 329 328
347 348 353 356 355 354 355 355 353 356 357 356 353 354 351 345 345 344 344 344 344 348 347 351 341 345 342 343 344 344 345 345 345 344 342 338 335 335 334 332 331 331 330
349 350 349 352 355 354 354 355 352 353 356 355 352 353 353 349 347 347 346 345 344 344 346 343 343 342 343 343 343 344 345 344 345 345 344 343 342 340 336 335 334 332 331
353 352 353 352 353 353 353 356 354 353 355 355 355 354 356 355 354 349 347 346 345 345 345 343 342 342 346 348 348 348 348 347 347 346 344 343 342 341 339 338 337 335 334
355 355 356 354 354 351 353 356 356 352 356 356 355 355 355 355 357 356 354 350 348 347 347 349 346 346 347 346 345 348 350 351 349 347 346 344 343 342 341 341 340 338 337
357 357 356 357 355 352 353 356 357 356 354 355 355 356 356 356 357 355 356 351 349 351 353 353 353 351 349 349 349 349 350 352 352 351 349 348 347 345 344 343 343 342 341
358 358 358 358 357 355 353 353 356 357 356 354 355 356 356 357 358 359 359 358 357 356 353 353 352 352 351 349 347 349 351 351 351 351 352 352 353 352 352 351 349 348 347
359 359 359 359 358 356 355 353 355 356 357 356 355 356 356 356 357 358 359 358 358 359 356 355 354 351 349 349 353 352 353 355 355 352 353 356 357 358 359 358 357 354 352
360 360 360 360 359 356 353 352 352 353 355 356 357 357 356 356 356 356 358 358 357 359 363 359 354 353 354 355 355 355 357 358 361 356 361 364 362 361 360 359 358 357 356
360 361 361 360 361 359 354 352 350 351 354 355 356 357 357 353 355 358 359 358 357 356 354 354 357 357 357 358 359 361 357 360 364 363 361 362 361 361 360 358 358 356 353
361 362 362 361 361 361 358 353 352 349 350 352 355 355 357 355 355 356 358 358 358 359 359 358 357 357 358 358 359 359 359 360 362 361 361 362 362 362 362 359 359 355 351
363 362 362 363 363 362 358 355 354 351 352 353 353 353 355 357 358 356 353 356 357 358 354 351 351 352 352 352 351 353 355 362 362 360 361 363 362 360 356 354 353 351 351
364 361 362 363 364 364 362 358 355 354 353 353 355 355 355 353 355 356 357 357 359 360 358 355 354 355 357 359 363 363 361 362 362 363 361 361 359 355 354 354 353 354 352

GFSMA_925_thetae_060.txt.gz
Theta_e
350 348 348 344 348 348 344 344 341 350 347 344 345 344 343 346 342 332 331 334 339 345 348 342 342 343 343 339 343 343 341 341 342 339 334 333 335 340 340 339 341 341 341
349 352 350 349 346 346 349 349 345 345 344 346 343 342 344 346 345 342 332 330 329 331 336 334 334 334 335 337 341 342 339 333 333 335 334 338 341 339 341 342 341 341 341
351 349 351 349 350 345 347 342 341 344 343 344 345 345 344 345 346 346 345 344 339 335 333 332 330 332 335 338 338 339 340 339 337 336 338 340 339 341 340 341 340 339 339
354 348 348 348 348 349 341 345 345 342 345 343 345 344 345 344 346 345 347 348 347 346 340 337 337 336 334 340 341 341 341 341 339 339 339 339 339 341 340 339 338 337 334
355 350 343 350 352 347 347 343 344 341 339 341 342 344 342 344 345 344 347 345 347 346 346 340 336 335 335 337 340 343 341 341 342 341 339 338 337 337 337 337 333 327 319
353 355 352 347 352 345 347 347 342 341 342 341 343 342 343 343 341 342 341 344 342 344 345 341 342 342 335 334 335 336 337 339 339 336 335 335 333 332 333 329 321 318 320
353 355 351 349 353 342 347 345 342 342 343 340 340 340 340 341 340 343 342 340 339 344 345 343 343 348 344 339 339 326 329 334 335 331 331 327 324 325 323 319 318 320 323
353 354 352 350 351 348 347 350 344 343 345 337 340 344 348 341 341 340 341 341 341 341 340 341 341 344 344 345 342 325 322 325 327 325 323 322 321 320 318 319 321 323 325
353 353 352 353 348 351 350 351 350 350 348 341 339 344 350 345 346 339 338 343 339 342 343 341 342 342 339 346 340 340 326 322 322 321 320 320 320 319 320 321 323 325 326
354 355 353 355 351 352 350 347 350 348 344 344 341 341 342 343 348 347 343 344 342 343 342 344 343 342 342 343 344 342 338 330 325 323 321 321 321 321 322 323 324 325 325
354 354 355 354 353 351 352 352 351 351 352 350 346 340 341 342 342 346 349 345 342 343 344 341 343 344 344 343 345 343 340 334 333 330 327 324 323 323 323 324 324 325 325
354 355 355 353 354 353 353 353 354 352 351 349 349 347 341 343 343 344 349 344 345 340 341 342 341 341 344 344 343 344 344 342 339 334 333 332 330 327 325 324 324 324 325
354 354 356 354 353 353 353 354 353 355 352 354 349 347 347 344 343 344 342 349 345 342 342 342 341 342 342 342 342 344 343 342 341 336 334 334 333 332 331 330 328 326 326
353 352 353 354 354 354 355 354 354 355 353 351 351 345 346 348 342 342 343 345 352 350 346 343 344 343 343 343 343 344 343 342 343 342 341 339 335 334 332 332 331 330 329
349 354 351 357 354 356 354 354 353 353 355 353 352 349 344 346 347 343 343 344 346 353 352 346 346 344 344 343 344 344 344 343 344 344 345 345 344 343 340 336 334 332 331
345 355 355 354 355 356 355 356 354 352 353 354 354 354 350 346 348 349 346 346 345 345 353 344 345 344 345 344 344 344 345 343 344 345 345 345 344 343 343 342 341 338 335
354 347 354 355 355 354 356 356 352 354 353 353 355 356 352 352 351 354 352 347 346 346 349 346 346 345 345 345 344 345 345 346 348 349 349 348 346 345 344 343 342 342 341
349 356 350 355 353 356 356 355 357 354 355 354 355 352 357 358 357 351 352 353 354 352 350 351 348 345 345 351 350 349 349 349 350 350 351 351 351 348 347 345 344 343 342
357 354 357 353 356 355 354 354 357 357 354 358 358 357 354 355 355 359 357 356 352 352 352 350 352 356 354 351 350 351 351 350 350 352 353 352 353 352 353 351 350 349 347
355 357 357 359 358 357 355 354 358 359 357 355 358 354 357 358 358 358 357 355 355 356 355 356 355 355 355 354 352 355 353 351 353 358 355 350 352 357 362 361 361 359 356
358 358 358 359 360 360 358 354 355 359 359 358 357 357 357 358 358 358 360 360 360 360 361 361 360 359 355 353 354 355 358 359 356 354 355 361 361 360 361 361 360 359 359
357 359 361 360 362 361 359 355 355 356 359 359 359 358 358 357 355 354 356 359 358 358 359 360 362 361 358 356 357 356 357 359 358 358 361 361 362 363 362 362 361 360 359
360 360 361 361 362 362 359 355 354 355 356 358 359 359 359 358 357 356 356 355 355 355 356 356 357 357 357 355 355 358 360 361 361 359 360 363 363 363 362 363 360 353 349
361 361 362 362 362 362 361 357 354 353 354 355 355 356 358 358 355 356 358 359 359 358 357 357 356 355 356 357 354 354 358 360 358 358 362 363 361 362 362 356 350 352 352
362 362 362 363 362 362 362 360 355 353 352 353 352 354 358 358 356 352 349 352 355 358 361 360 359 356 352 353 354 357 358 353 357 362 362 360 360 361 355 352 353 349 346
362 363 362 363 363 363 362 362 359 356 353 354 354 353 353 350 352 359 361 358 358 356 356 357 358 356 357 357 354 357 361 358 363 362 361 359 358 354 355 354 348 347 347

GFSMA_925_thetae_066.txt.gz
Theta_e
344 345 347 346 346 345 344 342 343 343 344 344 345 345 342 338 335 337 339 336 334 341 344 345 341 344 341 338 339 338 338 338 335 334 334 337 340 338 338 341 339 342 340
346 347 345 344 346 345 345 344 345 346 345 344 344 343 342 332 331 327 327 330 335 339 338 337 337 339 336 335 339 337 335 332 332 333 336 338 338 338 339 340 339 339 339
347 347 344 344 344 346 346 345 346 347 346 344 344 343 342 338 333 331 334 330 331 333 333 332 332 332 332 333 333 334 338 338 340 340 339 339 339 339 341 338 337 336 333
346 348 346 346 346 347 345 344 346 346 344 344 345 344 344 343 343 343 341 340 338 338 335 334 334 333 333 336 341 342 340 339 339 338 338 338 337 337 336 336 334 329 322
347 346 346 347 348 347 344 344 345 344 344 344 345 345 345 344 344 344 345 344 344 343 342 336 337 336 335 336 339 339 340 339 337 337 335 334 333 332 331 331 326 323 319
347 345 347 347 346 347 345 343 342 344 344 343 344 345 345 345 345 344 343 345 345 344 343 341 340 341 338 336 335 333 335 335 334 332 329 328 326 325 326 325 321 319 320
349 347 346 345 345 345 345 344 342 346 344 343 343 343 343 343 344 344 343 344 345 343 344 342 341 342 343 341 340 329 323 324 326 325 324 324 322 321 321 321 319 320 322
351 349 347 347 346 345 345 342 343 344 342 342 343 343 337 337 343 342 342 342 343 342 342 343 342 343 343 343 343 336 325 321 321 321 321 321 321 320 320 320 320 321 323
352 351 348 349 348 344 345 345 341 345 344 340 342 343 339 337 342 341 341 342 342 341 341 342 342 341 339 339 342 342 339 329 325 322 321 321 321 321 321 321 321 322 323
351 350 350 349 348 347 343 347 348 347 346 344 341 340 343 342 336 337 340 341 341 342 341 341 341 341 341 340 340 342 343 340 335 332 329 327 324 323 323 323 322 323 323
352 351 350 351 348 346 349 347 346 346 348 347 346 347 343 341 341 340 338 342 342 341 342 342 342 342 342 342 342 342 342 342 342 341 339 334 331 330 329 327 325 323 323
353 350 352 351 350 349 348 347 350 349 347 349 348 347 347 342 342 344 339 341 342 342 341 343 342 341 342 342 341 341 342 342 342 342 341 340 339 336 333 332 331 330 328
353 352 352 351 350 346 350 349 348 351 350 348 348 347 346 347 346 345 343 344 341 343 341 341 342 341 341 341 341 342 342 342 342 343 343 342 341 340 339 337 336 335 333
351 352 353 353 351 348 348 351 350 350 349 348 349 348 346 344 347 347 343 342 338 342 344 345 343 342 341 341 341 341 342 342 342 343 343 343 342 343 343 342 343 343 342
350 350 353 354 352 349 348 352 350 351 350 350 347 346 344 343 344 345 351 343 342 340 338 343 343 343 347 345 342 342 343 343 343 343 345 346 346 345 345 347 347 347 346
351 351 352 354 353 351 350 349 351 350 351 352 349 349 342 341 341 340 349 351 346 344 340 344 344 344 346 346 345 344 342 345 348 350 350 350 350 349 349 350 350 351 350
352 353 353 349 354 352 351 351 350 351 352 351 350 351 350 349 345 348 346 349 353 352 346 346 345 346 347 345 352 352 350 351 352 351 351 353 355 354 351 353 357 358 359
351 353 349 351 352 353 351 353 353 353 352 353 352 350 352 353 352 352 352 351 350 350 352 351 350 352 352 352 350 349 355 352 350 354 353 347 347 353 357 359 359 360 359
348 352 349 349 353 352 352 352 354 353 353 352 353 354 352 352 353 355 355 356 355 355 357 358 357 355 353 349 356 358 354 353 345 345 347 347 355 357 358 360 361 362 361
344 347 351 352 352 351 354 355 354 354 354 353 352 351 354 354 354 352 353 353 353 354 354 355 354 354 354 356 360 359 359 350 346 349 348 351 355 357 360 359 361 360 352
344 345 346 350 355 354 353 353 352 351 351 352 352 351 352 356 356 355 356 356 356 356 356 357 357 358 359 361 360 355 353 352 353 351 352 353 356 358 361 359 359 350 346
342 344 345 345 351 355 354 353 352 352 352 351 352 349 352 351 352 356 357 355 355 357 357 358 358 358 360 358 353 353 354 354 353 352 354 356 357 358 361 354 351 345 342
344 344 348 348 351 351 354 354 352 352 352 351 350 350 353 352 352 352 352 356 356 355 356 356 356 356 355 353 353 354 355 354 354 354 357 358 358 361 356 352 347 345 339
348 345 349 349 351 355 355 355 354 354 353 352 352 350 353 354 353 353 353 353 353 353 354 355 355 354 354 354 356 358 356 355 355 356 355 353 360 359 349 350 346 343 339
352 349 348 352 352 351 352 354 355 355 356 356 354 353 352 352 350 352 356 355 354 354 351 353 354 357 358 360 358 356 356 355 354 354 355 356 360 357 352 351 347 342 338
355 354 351 350 354 356 356 355 354 355 356 356 355 355 354 354 353 352 353 355 356 354 353 352 353 352 351 351 354 355 358 356 353 353 360 360 359 355 355 352 348 341 337

GFSMA_925_thetae_069.txt.gz
Theta_e
341 339 339 341 343 343 342 342 343 344 344 345 344 344 342 336 333 336 341 338 344 342 341 342 340 342 340 336 337 335 334 334 332 333 334 336 340 339 340 340 340 339 338
344 344 345 345 345 343 343 343 344 344 344 344 345 343 342 335 332 334 336 335 337 339 340 344 334 340 336 335 339 338 333 334 334 336 337 339 341 341 340 340 339 338 336
345 345 345 344 345 344 343 344 345 345 343 343 344 343 342 334 331 331 330 332 336 338 338 335 337 335 335 336 337 336 339 340 339 340 340 339 338 337 339 338 336 332 325
346 344 343 344 344 346 345 344 346 345 343 344 343 343 339 337 335 334 338 334 335 336 336 335 334 334 334 336 341 341 340 338 338 338 338 337 336 335 334 334 332 327 320
345 345 345 346 345 346 342 344 345 344 344 344 343 343 343 342 341 341 341 342 341 340 340 336 336 336 336 335 338 338 337 337 336 335 334 332 331 329 328 329 326 323 320
345 346 345 346 346 346 341 343 345 344 344 344 344 346 344 344 344 343 343 344 344 344 343 342 339 340 339 338 337 332 330 332 333 332 329 327 325 323 323 324 322 320 320
347 344 347 346 345 346 344 342 342 343 344 344 344 344 343 342 344 344 343 343 343 343 343 343 341 341 342 342 340 338 328 323 323 324 323 322 321 321 320 321 320 320 321
349 346 346 347 346 346 344 343 343 345 343 343 342 341 336 337 340 343 343 342 342 342 342 342 342 341 341 341 342 341 337 328 323 321 321 321 321 321 321 321 320 321 321
348 347 346 346 347 345 343 342 342 341 341 341 341 342 338 335 339 341 341 341 341 341 342 341 342 342 341 339 339 341 342 340 333 330 328 325 324 322 322 322 322 321 322
351 349 349 346 347 344 345 344 343 343 340 340 340 340 342 341 335 335 339 340 341 341 340 341 341 341 341 341 341 340 341 341 341 340 338 336 331 329 326 325 324 323 322
351 351 350 348 348 346 344 346 347 346 345 342 344 346 342 341 340 338 336 339 341 341 340 341 342 341 341 342 342 341 341 341 342 342 342 341 339 337 333 334 334 332 329
351 351 350 350 350 346 348 346 345 345 346 346 347 347 345 342 340 342 337 339 340 342 341 340 341 341 341 341 341 341 341 341 342 342 342 342 342 342 339 337 337 336 336
350 352 351 351 350 347 348 348 346 349 346 347 347 346 346 346 345 344 341 342 341 342 342 342 341 341 341 341 340 341 341 341 342 342 342 342 343 343 342 341 340 342 343
350 351 351 351 351 350 347 349 349 349 349 346 347 348 346 345 346 348 342 341 337 339 343 346 345 343 346 345 343 341 341 342 342 343 344 344 346 346 345 344 344 345 345
350 351 352 351 352 351 349 349 350 348 350 348 346 347 347 346 345 344 351 344 341 338 336 342 343 343 344 346 345 346 347 346 348 351 352 352 353 354 354 352 351 353 355
350 351 352 351 352 353 352 349 351 350 351 349 348 346 345 343 344 342 343 352 347 343 339 343 344 344 345 346 346 350 350 350 354 350 350 349 345 346 350 355 359 358 359
352 352 351 350 350 352 353 351 349 350 351 350 351 350 349 347 344 346 348 347 349 352 346 349 348 349 349 351 350 350 347 356 352 352 343 345 347 355 356 358 360 360 360
348 353 352 351 351 351 352 352 350 349 351 350 351 351 350 350 350 351 351 351 352 351 351 350 351 352 354 351 350 347 353 355 356 348 346 347 352 355 357 360 360 360 358
346 347 349 352 353 352 351 352 351 350 351 351 350 353 353 351 351 353 353 354 353 354 354 355 355 353 352 350 350 354 356 354 346 350 348 349 352 356 359 359 359 358 350
344 345 345 349 351 350 351 351 351 351 350 351 351 351 350 351 352 352 351 352 354 354 352 353 354 354 355 354 356 356 354 351 352 354 347 350 354 358 360 358 357 350 344
341 342 345 346 351 353 352 352 351 351 351 352 352 352 352 350 350 353 353 354 352 353 354 355 355 355 356 355 355 356 354 352 354 354 351 352 355 358 360 357 352 344 341
338 341 342 344 345 348 352 353 351 351 352 352 352 351 350 350 349 349 352 356 356 357 355 355 355 355 355 355 353 354 352 352 352 354 354 354 355 359 360 354 347 343 339
343 342 341 341 343 342 344 349 353 353 353 351 351 351 350 349 349 348 350 350 351 353 355 356 356 355 355 354 353 353 352 352 353 354 355 355 355 358 357 350 345 343 339
345 345 344 342 341 341 340 340 344 352 354 352 351 351 350 350 350 348 351 352 352 352 351 353 354 354 354 355 356 355 354 354 354 353 355 356 356 358 356 348 346 345 339
348 347 346 345 344 344 344 341 342 348 353 353 353 352 351 351 349 350 351 353 352 353 352 351 352 351 351 350 353 357 357 353 352 355 355 352 357 359 353 350 348 346 338
352 350 349 348 348 348 347 346 347 351 353 353 354 354 353 350 348 351 352 352 353 351 351 350 350 350 351 352 353 353 353 353 353 353 356 358 359 356 354 352 350 344 337

GFSMA_925_thetae_072.txt.gz
Theta_e
337 339 340 342 343 343 344 343 343 344 344 344 344 344 344 341 336 337 341 338 342 343 343 343 341 342 341 338 339 337 333 334 331 332 335 338 341 340 340 340 338 335 331
341 339 340 341 343 344 343 343 343 343 345 343 344 344 342 336 334 334 338 336 341 343 343 344 341 342 340 338 337 340 337 337 338 340 341 341 341 340 339 340 335 329 322
343 342 344 344 344 343 343 343 344 344 343 343 344 343 342 339 332 334 333 335 338 340 340 339 338 337 336 339 342 342 341 341 341 341 339 338 339 337 337 335 331 324 319
344 345 344 343 344 344 344 344 344 344 342 343 343 343 342 337 335 334 336 334 336 337 337 337 336 336 335 338 341 343 343 342 339 337 336 335 333 332 330 331 326 322 320
346 346 343 343 344 345 343 343 345 344 343 344 343 342 341 342 341 340 339 340 341 340 340 338 337 337 337 339 342 341 339 334 334 335 333 331 328 327 325 326 324 321 320
344 345 344 345 345 345 344 343 344 344 343 343 344 344 344 343 343 344 342 342 343 343 343 342 341 339 340 340 339 338 330 326 326 327 327 326 324 323 322 323 323 321 321
346 344 345 345 344 345 342 343 343 344 344 344 344 343 344 343 342 342 344 343 342 343 343 342 343 341 340 340 341 340 338 330 323 322 322 323 322 322 322 322 322 321 321
346 344 345 346 344 344 343 343 342 342 343 342 341 340 341 338 339 340 341 343 342 342 342 342 341 342 341 339 338 340 341 338 334 329 327 326 324 323 322 322 322 321 321
347 346 346 345 345 345 343 343 342 342 342 342 341 341 342 342 337 339 339 340 340 341 340 340 341 341 341 341 340 339 340 341 341 341 338 336 334 332 329 327 325 323 322
348 348 347 345 346 346 344 341 342 342 340 340 341 341 341 340 341 343 338 339 339 340 340 340 341 341 341 341 341 341 341 341 341 342 342 342 341 340 338 336 334 336 332
350 348 348 347 347 346 345 345 343 344 342 340 341 345 342 340 339 338 343 339 340 340 341 341 340 341 341 341 341 341 341 341 341 341 342 342 342 342 342 342 341 341 340
350 350 350 350 348 347 346 344 345 344 345 344 345 346 346 341 339 341 340 340 340 341 341 340 339 340 340 341 340 340 340 341 340 341 341 343 344 344 344 344 343 342 341
349 350 350 350 348 349 347 348 345 345 344 346 346 345 346 346 345 342 340 341 342 342 341 343 343 343 344 344 344 343 342 342 344 345 349 351 352 352 353 352 351 350 348
348 347 350 349 350 349 349 348 348 347 348 347 346 346 346 345 345 347 345 340 344 339 341 343 343 343 344 345 345 345 349 350 349 352 350 349 344 344 346 348 350 355 357
347 349 349 349 350 350 350 347 349 349 348 349 347 346 347 346 345 344 346 346 340 346 345 342 343 343 344 345 347 350 349 348 355 350 350 343 346 349 355 357 358 358 360
350 348 348 349 350 350 351 351 348 349 350 349 349 349 347 346 345 344 342 348 348 343 346 342 345 346 347 349 350 348 347 350 354 355 345 347 347 354 356 357 360 360 360
349 351 350 350 350 349 349 349 350 348 349 349 349 348 349 348 348 347 347 348 348 349 348 349 349 350 350 351 349 347 346 354 356 347 348 347 349 353 356 359 358 359 355
347 348 351 351 351 350 350 351 352 350 348 348 349 350 350 350 349 349 350 351 350 351 350 350 352 352 350 348 349 348 350 350 349 350 351 347 350 354 357 358 357 355 349
346 347 347 351 352 352 351 352 351 352 350 349 349 349 350 351 350 350 351 352 353 353 354 353 353 352 352 352 351 348 348 349 350 352 350 347 353 356 358 358 355 349 343
343 345 346 346 348 348 350 352 351 351 351 350 349 349 350 350 350 351 351 352 352 351 352 352 352 353 353 353 352 352 352 351 351 352 350 348 353 356 358 358 353 345 341
341 341 344 344 345 345 347 349 350 350 351 351 350 349 349 349 350 350 350 350 353 353 353 353 354 353 353 353 353 353 353 352 353 354 354 349 353 356 358 357 350 345 342
342 341 341 342 342 344 345 346 350 350 351 352 350 350 350 350 349 350 349 349 349 353 355 355 355 354 354 353 353 354 352 352 353 354 354 351 354 354 358 356 348 345 342
344 343 341 340 341 341 342 344 344 347 351 352 350 350 350 350 349 349 348 348 348 349 350 351 354 354 354 354 354 353 353 352 352 355 353 354 353 354 356 355 347 344 344
344 343 343 343 341 339 337 339 340 343 345 348 351 351 351 351 350 349 349 348 349 348 349 350 351 351 351 351 351 353 353 353 353 353 352 355 353 354 356 354 348 346 345
345 345 344 344 344 344 344 341 339 342 343 344 345 346 348 349 348 350 351 351 349 348 348 349 350 350 350 350 351 353 352 351 353 353 353 354 354 358 358 355 349 348 346
349 347 346 346 347 347 347 347 344 344 345 345 344 345 342 344 346 350 351 351 351 347 348 349 350 350 350 351 350 351 352 351 353 354 353 354 356 358 356 352 351 348 345

GFSMA_925_thetae_075.txt.gz
Theta_e
344 345 344 346 346 346 347 344 346 346 346 347 347 348 347 343 342 342 344 337 343 342 342 342 340 342 339 339 339 339 338 341 339 338 340 341 340 339 339 339 333 329 321
339 343 345 345 344 345 344 345 344 346 348 347 347 347 346 342 342 343 343 344 339 342 342 343 343 341 342 341 340 340 342 340 340 341 341 338 339 339 338 335 328 324 320
343 343 345 347 345 343 343 344 344 345 347 347 347 346 346 344 342 343 343 344 345 341 338 338 338 338 337 340 343 344 343 342 341 338 337 336 337 337 332 330 326 322 320
344 345 345 344 344 344 344 348 348 348 347 346 346 346 345 343 343 343 343 343 343 345 344 338 337 337 337 339 342 341 339 337 337 336 334 333 332 330 328 327 325 322 321
345 345 345 344 344 345 347 345 348 347 347 347 346 346 345 345 345 343 344 344 345 344 344 342 339 339 339 339 339 338 335 333 330 329 329 330 329 327 325 325 324 322 321
346 345 344 344 344 344 344 344 345 344 346 347 345 346 347 347 347 347 346 345 345 344 345 344 346 345 340 340 341 340 338 332 325 325 327 327 327 325 324 322 323 322 321
345 344 345 345 345 346 345 343 345 347 347 344 347 345 346 346 346 346 346 347 346 346 347 347 347 347 346 340 339 340 340 338 336 331 327 326 326 325 324 323 322 322 322
346 345 343 345 344 347 342 343 342 347 347 343 346 346 345 342 342 342 343 344 346 346 346 347 348 346 344 347 341 339 339 341 341 341 341 338 335 334 332 329 327 325 324
346 346 345 346 344 346 347 344 342 345 347 345 342 346 346 345 344 343 344 343 340 344 343 343 343 343 341 344 342 343 341 340 341 341 341 342 342 342 342 340 338 337 332
348 347 346 346 346 344 343 342 342 343 343 346 345 344 342 345 345 345 345 343 342 342 344 343 344 344 341 342 342 341 341 341 341 341 341 341 341 342 342 343 343 342 340
349 349 348 346 345 346 346 344 342 343 343 344 345 348 347 345 345 346 347 346 346 345 344 343 343 341 340 341 341 341 340 340 341 342 344 346 350 351 351 350 348 345 343
354 351 348 349 346 347 344 346 346 345 347 347 349 349 350 347 346 347 348 349 348 346 345 346 344 342 343 344 344 343 343 346 348 349 351 350 347 344 345 347 350 351 350
352 353 350 347 347 348 348 347 345 346 346 349 348 351 350 350 348 348 346 347 347 347 347 348 347 346 347 346 347 345 348 349 348 352 349 347 344 345 353 356 355 355 357
351 351 349 349 348 348 348 347 350 351 348 349 350 346 352 351 350 349 351 348 346 346 347 348 349 347 349 348 349 349 351 346 351 352 354 346 347 349 355 356 357 358 359
350 347 348 349 349 348 348 349 351 347 347 349 353 349 350 352 351 349 350 350 349 349 347 347 346 348 350 351 352 351 352 346 354 354 346 349 348 352 354 357 359 359 359
347 351 350 350 348 349 349 350 351 349 349 352 352 354 352 351 351 350 348 349 350 351 350 350 349 351 351 352 352 351 352 352 354 345 349 348 350 352 355 358 358 358 355
348 349 350 350 351 349 350 350 351 354 352 355 354 354 354 352 350 350 350 350 351 351 349 346 352 352 351 355 353 351 352 352 351 350 350 347 351 354 356 358 357 353 348
348 348 349 352 354 354 352 350 351 353 350 353 353 354 353 352 353 353 353 354 352 354 353 352 352 353 355 355 356 357 354 351 354 350 349 346 351 356 357 358 356 349 343
347 350 348 348 353 355 354 352 352 350 354 355 353 353 353 354 355 353 354 354 353 355 355 356 354 354 354 354 354 352 355 356 353 351 352 351 353 356 357 358 355 347 342
344 348 348 349 349 353 355 355 355 355 356 356 355 354 353 354 354 356 356 356 355 356 355 356 354 353 354 354 355 352 352 351 353 353 352 352 353 357 357 358 355 347 343
345 344 348 349 351 352 352 353 354 356 356 355 355 355 354 352 347 351 352 353 355 355 355 355 354 353 352 351 351 351 351 353 352 355 354 349 352 358 359 355 353 348 344
348 347 348 347 348 349 348 347 348 354 355 355 355 356 354 351 349 349 348 349 351 354 354 353 350 350 354 354 351 352 352 353 352 350 355 351 353 358 359 350 355 349 345
348 348 348 348 347 345 345 346 345 349 353 355 355 356 355 353 351 354 351 349 349 348 349 350 353 353 353 353 355 356 353 355 354 351 353 353 353 358 359 349 356 350 345
348 348 349 348 347 346 343 339 340 343 350 353 353 354 355 354 355 353 355 355 355 354 351 348 348 351 354 355 356 356 356 356 355 353 354 356 353 358 359 352 356 352 347
349 348 348 349 348 346 345 344 342 345 346 350 351 351 352 353 352 345 350 354 354 354 351 350 346 349 348 349 350 354 354 353 351 350 351 355 355 359 360 358 347 350 349
351 350 349 349 349 348 347 347 346 346 347 347 347 348 348 346 348 345 345 350 352 351 351 349 351 350 348 350 351 351 353 354 352 351 351 355 353 357 358 358 352 344 343

GFSMA_925_thetae_078.txt.gz
Theta_e
347 347 349 348 348 349 347 348 349 350 350 349 348 347 343 339 340 341 342 334 339 337 340 339 336 340 337 340 337 343 343 343 341 341 343 341 338 340 337 340 332 326 320
348 348 349 349 349 349 348 349 350 350 348 348 348 348 345 343 344 345 345 345 337 338 337 342 342 337 341 343 343 342 343 342 343 343 340 337 336 337 334 333 330 324 321
350 350 349 349 349 350 351 350 349 349 346 346 348 347 346 345 345 345 344 345 347 346 337 336 336 336 336 337 339 341 343 341 341 338 337 334 332 331 329 328 328 323 321
352 351 349 348 349 349 349 348 349 346 345 345 345 344 344 344 346 346 345 345 344 343 345 341 339 338 338 339 342 343 338 335 335 333 332 330 328 327 325 324 325 323 321
352 352 350 349 351 349 348 347 348 347 345 344 343 344 344 345 346 344 346 347 345 344 343 344 342 341 340 340 340 339 337 334 330 326 326 327 327 326 324 323 323 324 322
353 352 350 351 352 349 347 348 349 348 346 345 343 343 343 343 344 344 345 345 345 347 346 347 347 344 342 339 338 339 339 337 334 330 328 327 327 327 325 324 323 323 324
352 352 350 352 352 349 350 350 349 349 343 345 341 341 340 342 342 342 343 343 344 345 346 347 348 346 345 344 344 338 339 340 341 341 341 341 339 337 335 332 332 330 325
354 352 351 351 352 349 352 352 350 345 342 344 344 343 342 342 341 340 340 341 342 343 343 344 346 348 348 347 346 342 341 340 341 341 341 341 341 341 342 342 340 337 337
353 354 352 351 353 351 347 352 350 350 343 347 349 347 350 344 343 341 344 341 343 342 343 344 344 346 349 348 347 347 344 341 341 341 341 341 342 343 344 343 342 342 341
353 353 353 353 354 350 350 351 349 350 347 344 346 344 348 348 346 344 342 341 341 341 342 342 343 344 347 346 346 346 341 341 341 344 347 351 351 348 346 347 349 350 347
351 352 353 353 354 351 354 352 352 352 347 345 343 344 348 346 349 347 344 340 340 341 343 344 343 344 347 349 349 347 344 349 348 350 350 347 346 345 345 351 352 349 350
353 353 351 352 351 351 354 352 351 353 352 351 347 346 344 344 345 346 345 345 344 345 346 346 345 347 348 349 348 347 348 347 348 352 350 349 347 345 347 354 356 357 357
351 355 354 351 351 351 353 353 350 352 350 347 351 347 346 346 348 349 347 345 346 345 347 347 348 348 348 350 351 348 353 348 346 353 353 347 347 345 351 355 358 359 359
351 353 356 351 352 352 353 355 350 349 351 346 349 350 348 347 349 349 349 348 346 345 347 349 349 348 349 351 353 350 352 353 349 353 347 351 346 348 351 355 358 358 358
350 353 355 354 352 352 352 355 350 352 352 352 350 350 349 348 349 350 350 349 348 349 347 350 347 349 350 350 353 352 353 351 353 349 350 349 347 349 353 356 358 357 354
352 351 356 355 353 355 355 355 352 352 353 352 350 351 353 348 349 350 349 349 349 349 349 346 348 350 354 353 352 354 353 350 350 349 350 348 347 352 356 357 357 353 347
352 354 356 355 354 354 355 357 355 353 355 352 353 353 354 353 350 348 348 348 349 349 349 346 347 348 355 356 356 356 353 351 347 349 348 349 349 354 357 358 356 350 343
352 354 356 355 351 353 355 357 355 352 354 353 353 354 354 351 354 352 350 350 349 350 351 349 348 349 352 354 355 357 353 350 352 351 347 350 351 353 356 357 356 349 343
352 351 354 356 354 353 355 356 357 356 354 354 353 355 353 353 354 350 352 350 350 351 351 351 350 348 350 353 355 353 353 351 348 348 348 348 350 353 357 357 356 350 344
352 351 351 354 356 353 353 356 357 358 355 354 356 356 355 353 353 355 355 355 355 354 351 352 350 350 350 351 352 350 347 346 347 349 349 348 347 352 358 358 355 353 347
353 353 351 351 353 354 354 356 358 357 356 356 357 358 357 355 352 353 352 353 354 355 352 350 350 350 349 349 351 347 347 347 346 347 350 349 346 350 356 357 353 355 350
353 353 353 351 350 348 347 351 352 356 357 358 357 357 357 356 355 351 347 345 348 353 353 349 346 345 348 349 347 347 347 347 348 345 348 346 346 347 355 361 353 354 352
353 353 353 353 352 351 346 344 348 350 351 353 356 356 355 352 355 355 354 350 349 349 349 351 354 353 352 352 353 354 353 353 352 349 348 350 349 349 353 358 354 355 352
353 353 353 354 353 353 351 348 344 346 347 350 351 353 355 354 351 353 355 354 356 355 353 350 352 353 353 354 355 355 356 356 354 351 348 350 349 348 354 360 359 353 350
353 354 353 354 354 354 353 350 347 348 348 348 349 351 352 355 355 354 354 353 352 352 350 352 351 350 351 348 348 352 350 349 347 345 344 345 347 348 351 355 358 356 350
354 355 354 354 354 355 355 353 350 349 349 349 349 350 350 351 352 353 354 355 355 353 348 345 348 349 349 350 346 348 352 352 348 346 344 348 346 346 350 353 360 355 350

GFSMA_925_thetae_081.txt.gz
Theta_e
348 347 348 347 346 346 345 347 349 349 348 346 344 342 339 340 341 342 340 332 332 332 334 338 337 343 342 342 343 344 345 344 343 344 343 337 335 335 332 332 330 328 322
348 348 349 349 348 348 349 349 350 348 347 345 346 344 343 343 345 346 348 343 338 335 334 337 336 335 336 340 343 344 342 342 342 339 335 333 331 331 328 327 327 326 324
353 349 347 349 348 349 352 349 350 347 346 345 346 345 344 345 344 345 345 348 347 343 340 338 337 337 336 335 335 335 336 334 332 331 330 328 327 326 325 325 325 325 325
351 351 349 347 346 350 348 347 348 344 345 345 344 344 343 344 344 344 343 345 343 347 345 340 338 339 339 338 337 336 331 327 325 325 325 325 325 325 324 323 323 323 323
352 354 348 348 349 347 347 346 347 346 345 344 343 343 342 343 346 342 345 345 343 344 345 345 340 343 337 337 337 336 334 332 330 328 328 328 329 328 327 326 325 323 323
353 355 349 349 351 348 348 348 349 347 346 344 343 341 342 341 341 342 344 344 344 346 345 346 348 347 344 337 335 336 338 340 340 341 341 341 340 338 336 333 332 329 326
353 353 349 350 351 349 349 349 348 348 343 340 345 342 339 341 342 341 342 342 343 344 343 345 348 347 347 347 343 338 339 340 341 341 341 341 341 341 341 342 341 338 333
354 352 353 351 353 350 351 350 351 352 339 342 346 346 347 341 340 340 340 340 342 342 342 344 344 346 349 347 346 345 344 341 341 341 341 342 343 344 345 344 343 343 342
353 354 353 353 353 349 349 351 349 346 349 342 346 346 351 350 345 342 342 340 340 341 342 342 343 346 348 348 349 348 345 341 341 344 347 350 349 346 345 346 347 348 348
353 353 353 353 354 351 353 349 346 353 349 347 343 343 347 349 354 349 340 339 340 342 342 343 344 344 346 349 348 350 346 346 347 348 351 348 348 347 346 350 355 354 350
353 352 354 354 354 352 350 351 351 350 346 346 343 343 343 342 343 346 343 339 340 341 343 345 343 344 347 349 348 347 346 347 346 349 350 352 348 346 348 354 356 357 357
352 353 353 354 354 353 354 353 353 353 352 354 352 343 344 344 347 348 344 344 343 344 345 345 345 346 347 349 350 347 350 352 348 350 353 346 346 346 349 352 357 358 359
350 355 354 355 353 354 354 355 355 353 353 349 350 349 348 344 343 348 345 343 347 345 347 346 346 347 348 349 352 351 353 353 352 350 345 347 345 347 350 353 358 357 356
350 358 355 353 354 353 354 354 353 352 349 351 350 351 352 346 345 346 348 347 351 344 346 349 348 348 349 350 351 352 352 353 351 352 348 345 344 348 353 356 358 355 350
351 354 351 353 353 353 354 354 353 355 354 354 351 351 351 348 344 345 345 346 348 356 352 351 346 351 351 351 351 354 353 353 348 352 349 345 344 348 355 357 357 352 345
352 351 353 354 355 353 354 354 352 353 353 352 348 352 350 347 346 346 346 346 346 347 350 347 347 349 353 355 351 355 355 353 351 349 349 347 346 349 355 357 356 350 342
353 353 356 354 356 356 355 354 352 354 356 353 354 354 353 352 351 347 345 345 346 347 348 347 348 347 353 352 356 357 357 354 349 350 351 347 348 350 354 356 356 351 344
353 352 354 356 357 355 355 356 355 350 352 355 353 352 352 351 354 352 352 350 349 352 351 353 350 348 348 351 354 356 356 353 352 350 349 347 348 349 354 356 356 354 347
354 352 353 355 357 353 355 355 356 355 356 355 355 353 352 352 353 352 352 349 348 352 352 353 351 349 348 349 351 354 354 351 350 347 345 348 348 347 351 358 357 355 352
355 355 352 353 356 355 353 355 356 354 356 356 355 355 354 352 353 354 354 354 352 351 350 349 348 349 350 350 351 352 349 346 346 346 347 350 347 346 350 356 357 353 355
355 356 355 352 354 355 354 353 354 355 356 358 356 356 356 353 352 353 352 353 353 354 351 349 348 349 349 351 352 351 348 347 346 345 344 347 343 346 348 354 358 352 355
355 356 356 355 353 352 347 349 354 356 355 358 356 355 354 357 356 355 351 346 349 356 357 353 350 347 350 348 346 347 348 347 349 348 346 346 345 347 348 351 355 353 354
355 356 357 357 356 355 351 347 346 351 353 356 357 357 357 351 354 357 357 353 347 344 345 350 357 356 354 354 354 358 354 356 354 350 349 349 349 348 348 349 357 357 355
356 355 356 357 358 357 355 352 348 346 349 351 353 356 357 355 354 356 357 357 358 357 353 350 349 349 352 353 354 355 358 359 357 356 354 353 346 346 346 352 357 359 358
352 354 355 356 355 358 357 355 353 351 348 349 351 352 352 356 358 354 352 357 357 356 352 354 352 351 350 350 348 351 349 348 348 344 343 343 344 345 345 347 350 358 359
354 355 355 352 354 356 358 357 356 354 352 352 352 352 352 351 352 355 356 356 358 357 357 350 349 353 353 353 351 350 351 350 348 348 344 344 344 345 348 346 353 358 358

GFSMA_925_thetae_084.txt.gz
Theta_e
348 348 344 347 348 350 348 346 347 346 347 347 342 339 340 343 343 340 333 330 329 330 332 335 335 341 341 341 340 341 341 339 339 339 331 329 328 328 329 329 331 330 324
349 348 348 348 348 349 349 340 348 349 344 345 342 344 342 342 345 346 343 337 336 335 334 334 332 332 331 330 332 332 332 332 330 329 328 326 325 324 324 325 327 328 326
349 347 341 348 350 348 351 350 351 346 347 346 343 344 345 345 344 346 348 347 343 339 337 336 336 335 334 329 326 326 327 325 325 324 324 325 325 324 324 324 326 328 327
351 352 351 344 351 345 350 347 348 344 344 346 345 346 345 343 344 345 344 347 349 348 340 337 336 334 332 331 330 329 327 326 326 327 328 329 329 329 328 326 326 325 328
352 349 350 346 353 349 347 347 346 346 346 343 344 344 344 344 345 344 345 345 341 348 348 345 345 341 334 331 331 332 334 336 339 340 340 340 340 339 337 335 332 329 327
353 350 352 348 346 351 348 347 346 344 345 342 343 344 343 341 342 344 344 345 343 345 346 347 347 346 339 341 336 338 339 340 340 340 340 341 341 341 341 342 342 339 335
352 352 352 349 345 345 349 351 349 349 346 345 350 345 340 338 341 341 343 345 343 345 343 345 349 347 348 347 342 341 342 341 341 340 340 341 342 344 345 346 346 344 344
349 352 350 352 350 350 351 350 345 351 344 343 348 350 349 345 343 341 341 341 342 343 343 345 344 345 347 349 347 348 347 342 342 343 346 349 349 347 346 346 349 350 348
353 353 354 352 350 345 351 350 350 343 347 344 346 345 354 353 352 341 340 340 340 342 342 340 344 346 346 348 348 349 349 345 347 347 350 349 350 348 346 351 354 355 353
353 353 353 354 352 349 346 349 348 349 349 348 347 340 345 342 355 354 341 339 341 341 342 343 344 344 345 348 350 349 344 346 346 344 349 352 347 348 349 352 356 357 357
354 353 353 353 353 353 350 352 349 348 351 351 353 344 344 347 345 351 352 342 341 342 343 345 343 345 347 349 348 346 347 352 351 346 347 344 348 346 350 352 357 357 358
353 353 354 354 353 351 347 354 351 352 352 352 346 348 350 343 345 350 353 349 344 344 344 345 345 346 347 350 351 352 350 352 352 349 348 345 345 346 351 354 358 356 355
351 353 353 354 354 350 352 353 353 352 355 347 350 348 349 352 346 347 348 352 347 345 348 345 346 346 348 348 352 352 353 352 353 350 350 345 343 345 353 356 357 353 350
350 354 352 355 354 352 354 354 355 349 351 347 344 345 348 351 351 346 346 349 353 352 346 350 347 348 348 350 353 352 354 353 355 352 350 347 343 347 353 356 356 351 345
349 351 353 353 353 354 353 353 351 353 353 353 350 347 346 344 347 345 346 343 347 358 356 350 346 349 351 352 351 350 355 353 351 353 353 349 345 348 353 356 356 351 342
349 350 351 354 353 354 354 353 354 351 353 353 350 351 347 344 347 351 347 346 347 347 356 351 347 350 351 350 349 352 353 351 351 354 349 350 346 348 350 355 356 353 345
355 352 340 351 353 353 352 353 351 351 353 350 351 350 352 350 349 349 354 352 346 346 353 351 352 351 349 346 346 353 353 356 354 352 350 350 347 347 346 355 355 355 350
352 352 354 355 356 354 354 353 353 352 353 353 353 352 351 353 351 349 349 348 350 348 348 351 351 345 346 351 350 353 351 354 353 351 350 347 347 348 347 350 357 355 353
355 355 352 354 356 355 354 354 353 352 354 354 355 354 351 352 352 351 353 353 353 353 351 352 351 354 349 346 347 349 353 351 352 347 346 346 347 349 347 348 356 353 354
356 356 355 355 355 355 356 355 356 355 355 354 355 356 356 355 353 352 352 352 352 354 351 351 350 349 349 350 353 355 353 346 346 347 344 346 347 345 344 348 354 354 352
357 357 357 355 356 358 357 354 355 356 354 352 353 355 356 356 352 355 354 354 355 353 356 355 354 352 352 353 348 347 348 352 350 344 345 347 348 345 346 348 348 358 353
357 358 358 358 358 355 354 353 352 351 357 356 354 353 355 355 356 354 351 351 350 352 354 358 360 355 351 349 353 353 352 352 354 355 353 347 345 347 351 350 350 356 355
354 356 358 359 359 358 355 352 350 353 357 357 356 356 357 356 353 351 354 354 353 347 345 346 349 352 356 352 353 355 358 356 358 352 353 355 353 353 350 349 347 355 356
353 354 355 357 358 359 359 358 353 352 350 351 352 355 357 356 354 355 358 359 358 356 354 352 349 346 345 343 344 348 351 355 358 359 358 360 355 356 348 347 347 352 356
349 353 354 355 356 358 359 357 358 356 354 352 350 351 353 354 357 359 353 352 356 361 361 358 355 353 352 350 349 350 353 353 351 349 347 348 346 344 345 346 346 346 353
341 344 349 353 355 353 357 357 355 357 357 356 355 353 350 349 353 352 352 359 358 355 353 356 357 355 353 353 353 353 354 355 354 352 350 348 350 347 348 346 347 345 351

GFSMA_925_thetae_087.txt.gz
Theta_e
348 347 345 345 348 344 344 340 345 345 346 341 341 339 342 342 340 335 331 330 331 331 331 332 332 336 335 336 336 335 334 332 331 332 332 330 330 331 332 332 331 329 325
346 341 346 345 347 348 343 343 346 345 345 341 342 342 343 345 345 343 338 335 333 332 332 330 330 329 329 328 328 328 327 327 326 326 326 326 328 330 330 329 329 329 328
342 343 345 345 349 350 347 348 348 347 346 342 345 344 345 344 344 345 346 343 339 334 334 334 333 332 330 327 325 324 325 325 326 327 328 329 329 330 330 329 328 327 328
348 347 344 347 345 347 346 346 347 345 345 345 345 344 345 342 343 344 347 348 347 344 335 338 335 332 330 329 328 329 331 334 336 338 339 340 340 339 338 336 333 331 328
352 348 348 347 349 346 348 346 346 346 345 344 346 346 345 342 344 344 346 344 345 347 345 343 346 341 331 330 333 337 339 340 340 340 340 340 341 341 341 342 342 340 335
352 349 352 349 348 347 346 349 345 343 344 342 344 344 345 344 345 345 343 344 342 342 346 345 346 345 340 340 337 340 340 341 341 341 341 341 343 346 346 346 346 345 345
352 349 350 343 345 346 348 350 347 349 349 345 347 346 343 339 342 344 344 344 344 346 345 345 347 345 348 348 345 345 347 345 343 344 346 349 348 347 347 346 349 350 348
352 350 351 347 348 348 352 350 346 345 345 345 348 344 341 342 341 342 345 344 343 345 345 345 344 343 344 348 348 347 348 345 346 345 348 349 350 347 346 351 354 354 353
350 351 351 350 347 349 347 350 351 345 349 346 344 346 346 345 350 340 340 342 339 343 343 343 343 344 344 347 348 349 347 345 349 346 348 349 346 346 347 351 355 357 356
352 352 353 351 350 346 348 345 351 351 343 347 350 344 345 344 346 344 342 339 342 342 341 342 343 344 345 347 348 348 346 351 351 347 346 345 345 345 349 352 357 357 357
350 352 352 352 348 348 344 347 352 347 349 352 350 350 349 347 351 347 345 339 339 341 341 342 344 344 346 349 348 348 351 351 352 350 349 346 343 344 352 355 357 355 354
353 351 353 353 351 348 348 352 352 350 348 348 350 349 349 350 347 350 347 348 342 341 342 344 344 346 347 349 350 351 352 353 352 353 349 349 344 346 353 356 355 352 349
352 354 353 354 352 349 346 352 352 350 353 344 344 346 342 348 352 351 347 350 347 348 347 345 345 345 347 349 352 352 352 353 352 354 353 351 346 347 352 355 354 350 343
347 351 351 351 353 349 351 353 352 349 350 349 345 343 339 341 345 348 352 344 345 350 348 351 345 346 349 350 351 350 350 352 352 349 354 354 348 347 352 354 355 350 342
350 351 350 350 353 354 352 353 352 353 351 349 348 344 342 338 339 345 351 346 348 345 345 349 350 352 352 352 350 346 350 351 350 353 353 350 348 346 348 354 354 353 347
350 346 350 351 352 353 353 351 352 351 352 352 352 349 350 350 349 344 347 353 353 350 345 347 350 354 351 348 345 346 349 350 352 352 352 350 349 346 347 352 355 354 352
351 350 349 351 352 352 353 353 352 351 353 353 349 353 350 352 350 349 344 347 348 351 351 350 349 347 345 343 348 349 349 351 351 351 352 353 350 347 348 349 354 355 353
352 353 352 341 351 353 354 354 351 352 350 352 350 352 347 349 350 353 351 349 353 352 355 352 350 348 353 353 350 346 346 350 351 349 346 346 346 347 347 349 350 356 353
354 354 352 353 353 353 352 355 354 351 353 353 352 351 353 349 349 352 349 348 351 349 350 354 351 349 351 350 347 351 353 353 346 349 346 342 347 346 347 347 348 354 353
355 354 353 353 353 354 354 355 354 353 351 352 355 354 355 353 353 352 352 350 348 350 349 350 350 350 350 350 351 349 351 351 349 348 345 344 349 348 347 345 346 348 355
357 355 354 354 355 356 354 352 354 356 355 354 351 353 354 354 357 353 355 354 352 351 352 354 356 357 357 355 351 354 352 348 344 339 341 344 347 347 346 348 350 348 354
354 357 356 356 355 354 358 357 355 354 353 356 356 354 353 352 355 358 354 351 354 352 351 354 353 355 355 355 353 350 349 349 352 342 348 347 347 349 351 350 351 349 351
354 355 355 355 355 356 355 353 354 353 353 352 353 356 353 354 353 356 354 352 352 353 352 350 348 346 345 343 342 342 343 345 350 346 354 355 346 349 343 347 352 350 350
350 352 352 353 354 355 355 356 355 352 353 353 353 354 357 356 355 355 353 354 357 356 356 356 355 353 351 353 351 348 348 348 349 350 354 355 347 344 341 344 347 346 346
341 344 349 351 352 353 354 354 354 354 355 354 353 353 351 350 352 353 357 359 359 357 354 354 356 359 359 357 353 353 351 352 352 350 350 350 348 347 345 347 347 346 345
335 338 339 343 345 349 352 352 353 354 354 355 356 356 355 354 353 351 349 351 352 352 354 356 356 354 353 356 356 355 354 351 350 351 349 350 348 346 349 345 348 349 346

GFSMA_925_thetae_090.txt.gz
Theta_e
343 346 345 345 344 344 341 340 344 344 344 339 342 343 343 336 334 331 330 331 333 333 332 333 334 335 333 334 332 332 331 331 331 331 333 334 332 331 332 332 334 333 328
346 344 345 344 346 345 339 344 346 344 343 340 343 343 344 343 344 339 338 334 330 331 332 333 331 329 328 327 326 325 325 326 328 328 329 330 330 331 333 332 332 335 333
344 344 346 346 347 347 345 346 347 346 344 343 342 343 344 343 343 342 344 343 337 332 332 332 332 331 329 326 325 326 328 330 332 334 336 337 337 337 336 335 335 332 332
343 343 345 347 347 347 344 344 345 345 345 343 344 343 344 344 344 344 345 346 345 339 337 339 333 331 330 329 331 334 337 338 339 340 340 340 341 341 342 343 343 339 335
347 348 347 345 347 346 346 345 345 346 344 345 345 345 345 343 343 344 344 345 344 346 343 342 345 336 333 334 337 338 339 340 340 341 341 342 343 345 346 346 347 346 344
347 349 346 348 349 346 347 348 345 343 346 343 344 343 343 344 343 344 343 344 342 344 345 345 346 345 342 342 339 342 343 344 344 344 345 348 348 348 347 346 348 350 349
348 350 350 347 347 346 346 348 348 347 346 347 345 346 343 344 344 343 344 344 343 344 345 345 347 343 344 347 347 347 346 346 345 345 347 348 348 347 346 350 354 354 352
348 348 350 344 345 347 350 347 348 344 343 345 347 342 339 340 341 342 343 344 344 344 345 345 345 343 341 346 348 348 348 345 349 347 347 346 346 345 348 350 355 356 355
349 348 349 348 348 348 347 349 349 348 346 346 347 345 343 341 345 341 342 344 344 343 343 343 342 343 343 346 347 349 345 349 351 349 347 345 343 344 350 353 356 356 356
349 350 350 350 346 345 345 344 350 349 345 350 349 348 348 345 344 341 342 342 339 341 343 343 341 343 344 345 346 348 349 351 351 351 348 348 344 346 353 355 356 353 353
349 350 351 351 349 343 347 345 350 349 350 349 349 348 347 346 351 344 342 339 338 340 341 341 341 342 344 345 348 347 351 352 352 352 352 349 348 347 353 355 354 350 348
349 351 351 350 348 347 346 349 350 350 350 347 347 346 349 350 351 348 344 345 340 340 340 341 343 344 345 345 348 350 351 352 352 351 351 353 352 346 352 354 353 348 342
352 351 352 352 350 346 348 351 348 349 349 348 345 344 344 346 347 348 348 346 346 348 346 343 343 346 347 349 350 351 349 350 352 348 350 354 353 348 351 353 354 350 341
350 351 352 354 352 350 347 348 350 350 348 349 347 345 342 342 342 347 350 345 342 344 347 350 348 347 350 352 351 346 346 348 351 352 354 353 350 348 347 352 354 352 348
345 351 350 352 351 352 347 352 352 350 350 350 348 349 347 347 348 348 348 351 349 342 340 348 351 352 350 348 345 345 349 348 350 352 352 353 351 348 346 347 353 354 351
349 350 350 350 349 353 353 351 351 349 349 350 349 350 349 350 349 349 346 346 348 349 343 348 352 349 346 345 346 348 348 346 349 351 351 348 348 350 347 347 348 354 353
350 350 348 350 349 351 353 353 351 350 350 351 350 348 349 351 350 350 350 349 348 350 349 351 351 350 349 350 349 347 348 350 350 349 345 344 344 346 349 347 348 348 354
352 350 349 348 350 351 351 353 352 351 350 349 352 351 348 347 347 347 353 350 349 351 350 351 351 351 348 349 349 349 350 352 349 348 347 346 341 345 346 347 346 347 350
351 350 351 351 345 348 350 353 354 352 351 351 352 350 350 352 351 346 348 350 349 348 349 350 350 349 347 346 349 351 349 348 346 345 341 333 347 347 347 344 345 346 347
354 353 352 352 351 352 351 352 352 353 353 351 351 352 353 353 353 351 352 351 352 351 350 350 351 351 352 353 355 354 351 344 339 336 334 336 337 345 348 350 350 349 350
353 353 354 353 353 354 353 353 353 354 355 354 353 353 353 353 353 353 354 355 354 354 352 351 352 353 351 350 351 352 353 345 340 342 339 339 340 334 336 344 344 349 352
354 354 355 355 354 354 354 354 355 354 353 355 355 354 355 354 352 351 352 355 355 353 352 353 352 351 349 347 344 344 344 345 347 344 345 345 344 341 337 337 336 343 351
352 352 352 353 354 354 355 355 354 353 354 355 353 353 352 353 354 352 352 352 354 354 353 353 354 351 351 352 351 350 350 347 347 349 349 349 348 346 340 343 338 340 347
343 347 350 352 352 353 354 354 354 353 352 352 352 352 353 353 353 354 355 354 355 354 353 354 355 354 354 353 355 356 354 352 351 352 351 352 347 346 341 342 336 345 345
335 338 340 343 348 350 350 351 352 353 353 353 353 354 354 354 353 352 351 353 354 354 353 353 353 353 354 355 357 357 357 352 351 352 350 349 346 347 344 344 344 342 346
328 331 336 339 339 344 349 349 350 352 353 353 353 353 353 354 355 354 353 352 351 350 350 349 349 349 350 351 352 354 354 353 351 350 349 348 347 347 346 346 346 346 345

GFSMA_925_thetae_093.txt.gz
Theta_e
340 343 342 344 343 343 338 343 344 344 341 340 341 342 342 338 334 332 330 332 335 334 334 334 334 335 334 334 334 333 331 330 329 330 332 333 333 334 334 332 332 334 331
344 345 343 344 345 344 341 344 344 345 341 340 342 342 342 341 336 336 335 334 332 331 331 331 331 331 330 329 328 327 327 329 331 333 334 335 336 336 335 336 335 333 334
346 344 345 346 345 345 345 346 346 346 343 342 343 343 342 342 341 340 341 341 337 331 332 331 331 331 329 329 329 331 333 336 338 339 340 341 342 342 343 343 341 338 335
343 343 345 346 346 346 344 345 345 344 344 344 344 342 343 343 343 343 343 344 344 340 337 341 337 331 331 332 334 336 338 339 339 340 342 343 344 345 346 346 346 346 342
344 345 345 344 345 346 345 345 345 345 344 344 344 344 344 344 342 343 343 344 343 345 344 342 344 340 337 337 338 339 341 343 343 344 344 347 348 348 347 346 347 348 349
346 349 346 346 347 345 346 347 344 343 347 346 344 343 343 343 344 343 343 343 343 343 344 345 345 345 344 345 346 346 346 345 345 346 346 347 347 347 346 350 352 352 352
347 347 348 346 346 346 346 347 347 346 346 345 345 344 343 342 343 344 343 343 343 343 344 344 345 344 342 344 346 347 348 348 346 348 347 346 345 344 348 350 354 354 354
348 348 348 345 346 346 347 346 348 344 345 346 346 342 338 339 340 340 343 343 343 343 343 344 344 342 342 343 346 347 347 347 349 350 348 348 344 345 351 353 356 355 356
347 347 348 346 348 347 347 346 347 348 346 348 346 345 340 339 341 340 340 341 343 343 343 342 342 342 343 344 345 346 348 350 350 351 351 349 348 346 353 355 354 352 354
348 348 349 348 347 347 346 345 347 347 348 347 348 347 347 346 343 340 340 341 342 342 341 341 341 342 342 343 344 346 350 351 351 351 351 351 351 346 352 354 351 348 347
349 348 348 348 348 347 343 344 348 348 349 348 346 347 346 346 347 343 341 339 339 338 340 340 341 341 341 342 343 347 351 350 351 352 350 352 353 351 349 354 351 345 338
347 348 350 350 348 348 346 345 348 348 348 346 345 345 346 349 349 347 343 343 343 340 341 340 341 343 345 345 345 348 349 349 351 351 352 354 354 351 346 353 352 348 340
348 348 351 350 349 349 347 350 349 347 348 348 345 343 343 344 345 350 347 343 344 347 347 346 344 344 345 349 350 348 346 348 349 350 352 353 353 350 347 347 353 352 349
347 350 351 350 350 351 347 346 350 348 348 347 346 347 345 345 343 347 350 347 341 342 344 349 351 348 351 347 346 344 349 347 345 350 351 351 351 351 348 346 349 353 351
349 349 350 350 349 348 350 348 348 349 350 349 348 349 350 347 348 349 347 349 348 343 339 347 351 351 346 346 350 349 346 347 347 348 347 344 344 346 349 347 347 349 353
350 349 347 350 350 351 350 347 349 350 350 348 350 350 350 350 350 349 348 346 347 348 343 347 350 348 348 348 348 347 348 349 350 350 345 346 344 343 346 347 347 347 348
350 349 349 349 351 349 351 353 351 350 350 350 350 350 350 348 349 349 350 350 348 350 348 350 350 349 349 347 346 347 348 349 349 348 346 342 338 345 346 346 345 346 347
350 350 350 348 349 349 350 351 352 352 351 349 349 350 350 349 347 348 348 351 348 349 350 348 347 345 345 345 346 349 350 349 347 339 335 333 342 339 345 345 343 343 346
350 352 351 349 348 349 350 350 350 350 351 351 350 350 351 350 351 351 349 348 349 350 349 350 349 348 348 348 350 351 352 350 343 336 337 335 337 339 338 341 348 347 349
350 352 351 350 350 350 345 347 349 351 351 352 352 351 350 350 351 351 353 352 353 353 352 350 350 350 349 348 347 347 342 340 340 340 339 340 343 340 335 334 336 337 342
352 351 351 352 352 352 351 352 352 353 353 352 352 352 352 352 350 349 350 349 352 353 354 353 351 351 351 350 350 348 347 347 348 345 344 347 345 341 335 335 339 337 339
348 350 351 352 352 353 353 353 354 354 354 354 353 353 352 352 353 353 353 352 351 351 353 355 352 351 352 352 351 351 351 349 347 350 349 349 348 343 339 336 342 337 340
342 346 349 350 351 352 352 352 353 354 353 352 352 353 353 352 351 351 351 351 353 352 352 354 353 353 353 353 353 352 352 351 351 354 352 351 351 348 343 339 341 339 339
338 338 342 345 347 349 351 351 352 351 353 352 352 351 351 351 352 352 352 352 351 351 353 353 354 353 353 353 355 354 355 353 353 354 353 351 349 347 345 344 340 343 342
332 332 334 339 340 342 348 349 350 350 351 351 351 352 352 352 353 353 353 353 352 352 351 351 350 350 350 349 349 353 353 352 351 352 351 350 350 348 348 348 345 343 343
328 330 333 342 343 339 336 336 343 345 345 345 345 346 347 349 351 352 351 351 351 352 351 350 350 352 351 350 350 350 350 351 351 350 351 349 349 349 348 350 347 348 348

GFSMA_925_thetae_096.txt.gz
Theta_e
340 341 343 342 343 343 341 343 344 344 339 339 342 344 345 343 335 333 331 332 334 335 335 338 334 333 333 334 334 334 333 333 333 334 335 336 336 336 335 335 334 334 336
344 344 343 344 344 342 342 344 345 344 340 340 341 341 342 342 336 336 336 336 333 332 332 332 331 331 330 329 330 331 334 336 338 339 340 341 342 342 342 342 340 339 339
344 344 344 345 346 346 345 344 345 344 342 342 342 342 342 342 341 341 339 341 340 335 336 335 333 332 331 332 334 336 338 339 340 341 342 344 345 345 345 345 345 345 342
345 343 344 344 345 346 344 345 344 344 343 343 344 343 343 343 343 342 343 343 343 343 341 339 341 339 335 336 337 339 340 342 343 344 345 347 348 347 346 346 346 347 348
343 343 344 344 346 345 345 345 343 344 344 342 342 343 344 344 344 342 343 342 343 343 343 344 344 344 344 344 344 345 346 347 347 346 346 346 346 346 346 348 350 351 350
347 346 346 346 346 345 346 346 345 346 346 346 345 344 344 344 343 344 343 343 343 343 343 344 344 343 342 343 345 346 347 347 347 347 347 347 344 345 350 351 350 352 354
345 346 346 346 345 345 345 345 346 344 343 344 343 343 341 339 338 341 343 343 343 343 343 343 343 342 342 343 344 346 347 347 349 349 349 348 346 348 353 355 353 353 353
348 345 346 345 345 346 346 347 346 345 345 345 344 341 345 340 342 341 340 341 342 343 342 342 342 342 343 343 343 344 346 348 350 350 350 350 349 347 353 353 351 352 348
346 344 347 345 346 346 346 346 347 344 347 347 347 344 345 346 340 339 339 340 341 341 341 341 341 341 341 342 342 345 347 350 351 351 351 351 351 348 353 352 348 347 347
348 347 348 346 347 346 346 345 347 346 347 347 347 346 347 346 348 348 340 339 340 338 339 340 340 340 341 341 343 345 348 349 350 352 351 352 352 352 347 353 349 342 334
346 347 347 348 347 347 343 344 347 347 347 346 345 347 346 347 347 343 347 344 342 337 337 339 340 342 345 345 346 348 348 348 349 350 352 353 353 353 347 351 352 345 336
348 347 348 348 348 347 345 345 348 347 347 345 344 343 344 345 348 348 346 343 344 343 346 342 342 342 344 348 348 344 346 348 346 350 351 352 352 352 349 346 351 351 344
347 347 347 349 348 348 346 345 346 347 347 347 346 344 341 342 345 349 346 343 343 344 347 351 347 343 349 347 346 346 347 346 346 347 347 344 344 348 349 346 347 352 351
348 347 348 350 349 349 348 347 349 349 346 346 347 346 345 344 343 346 348 347 348 342 343 349 350 349 348 346 349 347 345 347 348 349 345 344 344 343 346 348 346 348 350
348 348 348 349 349 349 349 348 345 348 349 348 348 348 349 347 348 348 346 347 347 350 349 346 351 347 347 348 347 347 348 350 350 348 345 346 342 335 344 347 347 347 348
348 348 348 347 350 349 349 350 347 348 350 349 348 349 349 349 349 349 349 346 346 346 350 345 348 349 347 347 346 346 347 348 347 344 342 338 334 341 342 345 346 346 346
349 348 348 348 348 349 350 350 350 350 349 350 349 349 349 349 348 348 349 350 348 349 348 348 348 345 343 342 342 344 347 349 349 345 335 334 333 336 341 342 346 345 345
345 348 348 349 349 349 349 349 350 350 348 349 348 349 348 349 348 347 347 349 350 348 349 348 347 347 345 343 347 348 350 350 345 338 338 337 336 341 341 340 338 344 344
348 347 346 349 348 348 348 349 349 349 349 350 349 349 349 349 350 350 350 350 348 349 349 349 349 349 350 349 348 346 346 346 347 345 339 341 343 344 343 341 338 338 338
348 349 349 350 351 349 348 348 347 348 349 350 350 350 350 350 349 349 349 350 351 351 352 352 351 351 350 350 350 349 350 351 350 349 345 344 343 342 342 340 340 340 338
349 350 351 351 351 350 350 350 350 350 351 351 352 352 352 351 352 351 351 350 351 351 351 351 352 351 351 352 351 351 351 351 349 349 348 349 346 345 340 340 340 343 340
345 346 348 350 350 350 351 352 352 352 353 353 353 353 353 352 352 352 352 352 352 352 352 352 351 352 352 351 351 351 351 350 351 350 352 351 349 348 346 345 340 340 340
340 340 341 342 345 348 349 349 351 352 352 352 352 351 351 351 352 351 351 351 352 352 353 353 352 353 352 353 353 352 352 351 350 351 351 352 351 349 348 347 347 341 343
338 337 336 339 341 343 347 348 348 349 350 350 350 350 350 350 350 350 351 352 352 352 351 351 351 351 351 350 350 350 350 350 350 350 351 351 351 350 349 349 349 342 343
335 336 336 342 337 329 330 339 344 346 346 346 345 345 345 344 340 345 348 350 351 351 352 352 351 351 351 351 350 349 349 349 351 351 351 350 351 350 349 349 350 347 346
331 334 337 330 327 326 324 323 322 325 323 322 326 324 323 322 324 327 331 339 340 343 345 347 348 348 350 351 351 351 351 349 351 351 351 350 351 349 351 350 350 350 351

GFSMA_925_thetae_099.txt.gz
Theta_e
342 344 343 344 344 341 343 344 345 344 339 340 342 344 348 345 343 342 341 333 331 333 333 334 335 333 332 331 331 333 335 337 338 340 341 341 342 342 342 342 342 342 339
344 344 344 346 343 343 344 344 345 344 342 344 342 342 344 346 341 340 342 342 335 333 333 333 333 333 332 333 335 337 339 340 341 342 344 345 346 346 346 345 345 344 343
344 344 345 346 346 345 344 344 344 343 346 345 344 344 345 345 345 343 344 344 344 341 338 340 339 336 335 336 338 340 342 344 345 345 346 346 346 345 345 345 345 345 346
344 344 344 345 345 344 344 346 345 348 347 347 347 347 345 345 345 343 344 343 344 345 345 343 342 342 343 344 345 345 346 346 347 347 347 346 345 345 347 348 349 349 348
342 343 344 345 345 344 346 348 345 345 349 349 347 346 347 347 347 345 344 344 345 345 346 345 343 343 343 343 344 344 346 347 348 348 348 348 345 349 352 351 350 352 350
346 346 345 346 345 349 349 349 347 346 347 346 346 346 346 346 344 347 346 345 345 345 347 343 343 346 342 343 344 345 345 347 348 349 350 349 347 352 354 353 352 353 349
345 345 346 345 345 348 346 345 346 346 349 347 349 346 345 341 343 344 345 346 344 345 343 345 343 345 345 343 344 344 346 348 349 350 350 350 350 351 353 350 350 350 349
347 345 346 345 344 348 346 346 345 349 350 347 349 348 346 344 346 345 343 342 343 342 345 343 341 341 341 342 343 344 347 349 351 352 351 351 351 348 352 348 345 348 347
345 344 346 344 345 345 349 345 347 348 350 350 347 350 349 349 349 345 344 344 340 344 343 341 340 340 341 342 346 347 348 348 349 352 353 353 353 350 350 351 343 337 334
347 344 345 346 346 346 346 345 348 349 352 351 351 350 349 351 352 346 347 345 344 342 340 342 343 344 345 345 347 347 346 347 347 350 351 352 353 352 346 352 349 342 337
346 345 346 348 346 347 344 344 348 346 351 350 349 352 353 352 352 352 349 348 346 345 347 344 343 346 345 348 350 347 346 346 345 349 349 349 350 351 349 348 352 348 343
349 345 347 346 348 347 346 344 348 347 347 347 348 349 348 350 352 352 350 350 351 350 351 352 346 344 353 353 349 346 345 345 346 347 344 344 344 345 349 346 348 351 347
346 347 346 347 348 347 347 345 346 347 348 351 345 349 348 348 350 352 353 350 349 349 351 354 351 351 351 351 351 346 345 346 348 349 344 345 344 338 345 347 347 349 351
350 348 347 347 349 348 347 346 349 352 347 350 347 345 350 350 349 351 351 352 351 350 350 354 354 353 352 351 348 346 350 349 350 346 345 343 339 336 341 347 347 347 348
350 348 347 349 347 348 349 348 348 349 350 350 349 347 351 351 351 352 352 350 351 351 349 350 350 352 352 351 350 348 351 348 346 342 337 336 335 335 337 345 347 346 346
348 348 348 348 349 348 347 347 351 349 349 352 351 352 353 352 351 353 352 352 351 350 350 349 349 352 350 347 346 343 350 348 351 350 341 337 336 337 339 340 346 345 344
348 348 348 347 347 347 349 349 349 351 346 349 348 351 354 351 352 351 351 353 352 352 350 347 351 349 348 351 348 347 349 352 349 347 340 338 337 340 342 341 340 344 347
345 346 347 347 348 348 350 351 352 352 348 348 348 347 348 352 354 352 351 352 352 353 351 352 352 352 353 354 352 353 351 351 352 348 346 341 339 344 344 342 339 339 340
345 348 347 347 347 347 347 348 348 350 348 347 347 348 350 348 348 352 350 348 352 353 354 354 354 354 354 354 353 354 355 354 351 347 345 344 344 342 342 343 342 340 341
345 348 349 349 349 349 349 348 348 350 348 349 347 348 348 349 349 349 351 350 351 349 352 350 352 352 353 354 355 354 353 350 350 349 347 348 350 349 346 345 344 341 343
348 348 349 351 351 351 350 350 350 351 350 353 351 351 352 350 350 350 350 348 350 350 351 350 351 352 352 351 353 353 352 350 350 351 351 350 348 351 351 351 350 345 344
346 346 347 348 349 351 350 350 351 353 354 355 356 352 355 351 352 351 351 351 351 351 354 350 351 353 356 356 353 353 353 352 352 349 353 351 351 352 353 351 349 348 343
340 342 344 345 343 344 346 348 349 350 349 351 353 352 352 352 351 351 353 351 351 351 351 351 354 355 355 355 355 355 354 354 354 352 352 352 352 353 353 352 351 349 343
337 340 344 339 337 338 345 347 347 348 350 349 349 348 348 345 343 344 346 351 353 353 354 354 354 354 355 355 355 355 355 353 353 353 354 355 352 353 353 353 353 350 347
336 341 338 331 328 327 331 338 340 342 339 336 337 336 334 332 331 340 341 337 342 347 347 347 347 347 348 349 349 350 352 353 354 352 353 355 353 353 354 353 353 351 348
335 333 329 325 321 320 322 322 325 327 327 324 324 320 319 318 318 319 320 326 330 331 329 329 331 336 339 344 346 348 350 353 353 353 353 355 353 353 354 351 353 353 354

GFSMA_925_thetae_102.txt.gz
Theta_e
349 348 349 349 349 347 347 348 349 347 346 345 346 346 345 346 342 339 335 330 328 329 329 330 331 332 333 334 336 338 340 341 343 343 345 345 346 345 346 345 344 343 341
350 348 349 348 349 348 348 349 350 346 345 344 345 345 345 345 344 343 341 341 337 335 333 332 333 334 336 337 339 342 344 346 346 346 346 346 345 345 344 345 345 345 344
351 350 349 349 350 351 352 351 348 347 344 344 347 346 345 345 343 345 343 344 345 342 340 340 340 340 343 344 345 345 346 347 348 348 347 348 345 346 348 348 349 348 346
352 350 348 348 350 350 349 347 346 344 346 345 346 346 345 344 345 345 345 346 347 346 346 342 343 343 343 344 344 345 346 348 348 349 349 349 347 352 353 351 350 351 349
350 350 349 351 351 349 349 346 346 346 345 345 344 344 344 345 345 343 346 347 346 347 347 344 342 344 343 344 344 344 345 348 349 350 350 350 348 353 353 352 353 351 349
351 350 350 351 351 349 349 349 352 348 345 345 344 343 343 344 345 345 345 344 345 347 346 349 351 350 346 344 343 344 347 349 351 350 350 351 349 353 350 348 352 349 348
351 351 350 351 351 350 353 352 349 349 345 346 344 343 342 343 343 344 344 344 344 344 346 349 350 350 349 349 347 345 348 349 351 351 352 351 351 350 350 344 347 348 348
350 351 353 351 352 350 354 355 353 347 347 350 345 345 344 342 343 342 343 343 343 345 347 348 349 350 351 351 348 347 347 348 349 351 352 353 352 348 352 346 340 336 335
351 351 352 352 353 350 350 353 352 354 347 351 353 349 346 347 343 341 343 342 344 345 346 346 347 349 351 352 351 348 346 347 347 350 351 351 353 351 348 350 344 338 337
351 350 352 352 354 351 352 352 352 353 354 348 350 352 354 356 348 345 342 343 342 342 345 345 346 348 351 351 352 349 345 345 345 349 347 346 349 351 348 349 349 343 340
351 352 352 354 354 351 352 353 353 352 352 350 349 351 354 353 353 347 346 344 342 344 347 347 347 348 352 353 351 348 344 344 346 347 343 344 344 344 349 347 349 349 346
349 350 350 351 352 353 354 350 351 351 352 353 350 349 349 349 350 349 347 348 347 348 349 352 352 350 352 352 352 346 346 346 348 349 344 344 341 338 343 348 347 349 350
350 350 351 351 351 352 354 351 350 351 352 353 353 350 348 348 350 351 350 349 348 348 350 352 353 353 351 352 351 346 351 347 349 347 343 339 339 338 339 347 347 348 348
350 353 351 352 352 351 353 354 352 349 351 350 352 353 349 349 348 348 350 350 349 348 349 352 352 352 350 351 351 348 348 351 347 343 339 337 338 337 336 344 347 347 347
353 352 353 352 353 352 353 354 351 353 354 353 351 351 350 348 349 349 349 348 349 350 348 351 348 349 349 347 347 348 348 349 346 349 351 341 339 338 339 339 345 346 346
351 354 355 354 352 352 352 353 352 352 354 351 350 352 352 348 350 348 348 347 348 347 349 344 346 349 351 350 347 348 348 347 348 350 345 344 340 338 343 342 340 341 347
349 353 351 355 354 352 353 355 354 353 353 351 352 353 353 355 349 347 346 347 347 347 347 343 344 344 352 353 352 353 348 346 345 347 345 343 341 341 344 343 341 338 338
352 352 352 350 353 352 352 354 353 351 352 351 350 351 352 350 354 352 350 350 348 350 349 348 348 348 349 351 352 355 352 347 348 347 343 344 343 343 343 342 342 342 341
351 352 353 354 351 353 349 352 353 353 352 351 350 351 351 351 352 350 353 351 348 350 351 351 349 347 348 350 350 349 350 350 346 344 344 343 346 346 348 348 348 346 341
350 350 351 353 352 351 352 351 352 353 353 351 352 351 351 351 352 352 351 352 351 351 349 350 349 347 347 348 349 348 346 346 346 346 346 347 347 347 349 351 351 349 342
350 352 352 354 354 352 350 355 355 355 355 353 354 352 352 353 351 350 350 352 352 351 350 349 348 347 347 353 350 348 347 346 347 346 346 349 347 347 348 350 351 349 349
354 354 355 355 354 352 351 350 350 354 355 354 353 354 352 353 354 354 353 352 351 352 353 353 351 349 351 351 349 349 351 351 352 348 352 351 349 349 350 349 351 350 349
351 351 352 352 345 341 346 347 349 352 355 353 354 355 354 349 350 349 350 350 352 353 353 354 354 354 355 354 354 356 354 355 355 354 353 352 351 350 349 350 352 352 350
346 348 345 341 336 337 344 347 348 354 353 350 347 349 348 346 344 344 345 349 352 353 353 354 355 354 354 353 352 352 353 354 355 354 352 352 351 351 350 350 353 354 351
343 345 340 334 328 329 336 342 346 345 344 341 336 334 335 330 325 333 337 339 341 343 342 337 334 335 339 341 342 346 350 352 354 354 353 354 355 355 353 350 351 354 354
340 334 328 322 320 320 322 332 336 338 337 336 333 329 320 318 317 317 328 331 332 330 328 331 335 338 338 340 339 345 351 351 352 354 353 353 353 354 355 353 352 352 353

GFSMA_925_thetae_105.txt.gz
Theta_e
346 348 349 348 346 345 344 346 344 345 345 345 343 344 343 342 340 335 333 326 326 326 328 331 333 335 337 339 342 344 345 346 347 347 347 347 346 346 345 345 345 344 343
349 347 349 345 346 347 346 346 348 343 343 342 344 344 343 342 343 340 340 337 334 333 334 335 337 339 342 345 345 346 346 347 348 349 348 348 347 348 349 348 347 346 346
351 348 346 348 347 347 351 347 345 345 342 342 345 345 343 343 344 345 345 345 341 339 339 341 343 344 344 344 345 345 346 348 349 349 350 349 348 352 353 351 349 350 347
351 349 348 346 346 348 346 344 344 342 343 343 345 345 343 342 345 346 346 347 347 346 342 342 343 343 344 344 344 344 347 349 350 350 350 350 349 352 352 351 353 351 349
352 351 350 348 352 347 345 344 341 345 343 344 344 344 344 343 345 344 347 347 346 347 347 346 349 347 345 344 343 345 349 350 350 350 350 351 348 352 348 349 351 348 349
351 353 349 349 354 349 347 347 349 344 343 344 345 343 344 344 345 345 345 345 346 348 346 351 353 351 348 348 345 347 348 349 351 352 352 351 350 351 347 344 348 348 350
352 353 351 351 351 350 352 351 351 348 343 343 347 342 342 343 345 344 344 344 344 345 346 349 350 351 352 350 348 346 346 348 348 350 351 352 352 348 350 344 339 339 342
353 351 354 352 352 350 353 354 353 350 343 343 346 345 345 343 343 343 343 342 344 344 346 349 349 352 352 351 350 347 345 345 346 349 350 351 352 351 350 348 341 337 339
351 354 353 356 351 352 351 354 350 351 345 344 351 352 349 354 343 342 342 343 343 346 346 346 347 350 352 354 352 350 344 344 345 347 345 345 347 350 348 350 346 341 340
351 352 353 354 354 353 353 352 351 356 350 344 344 347 353 354 358 346 341 343 342 343 345 345 345 349 351 350 352 349 343 345 346 346 344 344 343 344 350 348 349 346 342
351 351 353 354 354 353 352 355 352 354 352 351 347 346 348 348 346 348 352 345 342 343 347 347 346 347 352 353 351 349 346 345 347 349 345 344 341 338 342 348 348 349 347
352 352 352 353 353 353 353 351 354 353 355 355 352 347 346 348 351 350 349 347 347 348 347 350 350 349 350 350 352 348 348 350 346 346 343 339 338 336 336 345 347 348 348
349 352 353 353 352 353 355 352 354 356 352 354 355 353 344 345 346 348 347 350 346 346 348 349 351 350 349 348 351 350 348 350 350 347 344 344 340 337 335 342 346 347 348
350 354 353 352 352 354 353 354 352 349 350 351 353 354 353 346 346 346 347 347 348 349 349 348 347 350 350 349 349 347 347 347 348 344 347 349 346 340 337 338 341 345 346
352 355 352 352 352 352 353 354 352 354 355 354 350 352 351 348 345 346 346 346 347 348 347 354 348 349 350 350 349 350 349 348 343 347 348 344 342 340 338 341 340 340 343
353 354 354 354 354 354 354 354 351 352 353 352 348 349 354 348 350 347 346 345 345 346 348 344 344 345 352 351 348 350 351 349 346 346 346 343 340 339 341 342 342 340 339
352 354 355 354 353 355 355 355 356 353 354 353 352 352 351 352 351 349 349 347 345 345 346 346 346 344 346 351 351 352 350 350 346 346 345 342 342 341 341 342 342 342 341
353 354 355 354 352 354 354 355 356 351 352 352 352 352 352 349 353 353 351 350 347 348 347 350 347 350 346 350 350 352 349 348 347 349 343 343 343 345 346 347 348 347 347
353 353 353 353 354 353 353 354 355 352 352 351 350 351 352 352 352 353 354 352 349 352 351 350 347 346 347 347 350 348 349 350 346 344 344 345 346 346 347 347 350 350 347
352 352 353 353 354 353 354 352 354 354 354 352 352 352 351 352 353 354 353 354 353 352 349 350 349 348 347 352 351 347 346 344 347 347 346 346 347 347 347 347 350 351 349
350 351 351 352 352 352 350 352 353 354 355 353 352 353 351 352 352 351 350 352 355 353 351 351 349 347 348 353 348 348 348 347 349 348 348 348 348 348 347 347 351 351 350
351 351 352 353 353 351 348 349 349 354 354 356 355 352 351 353 354 353 353 350 351 355 355 354 352 350 353 352 352 353 355 353 354 352 355 353 351 348 348 349 351 352 351
352 353 352 353 352 348 347 348 349 349 353 355 355 355 355 350 351 352 352 351 351 351 351 352 355 354 354 355 356 356 354 355 355 355 355 355 354 354 353 350 350 350 352
350 350 349 346 340 335 344 346 346 352 354 354 354 353 351 348 343 342 342 349 350 351 352 353 354 351 348 347 345 347 349 351 353 354 355 354 354 354 355 355 354 352 353
345 343 342 338 332 332 341 344 348 351 349 346 342 340 339 330 322 324 339 341 342 343 337 333 333 335 338 339 339 341 347 349 353 352 353 351 353 354 354 354 353 353 352
340 340 333 328 323 323 332 338 341 345 346 340 332 326 321 319 318 318 332 331 331 328 329 335 340 340 340 342 342 340 347 347 348 348 349 348 348 349 351 352 353 353 353

GFSMA_925_thetae_108.txt.gz
Theta_e
346 349 332 344 349 346 347 347 347 345 345 344 344 342 342 342 334 331 324 324 326 328 332 336 339 341 343 345 345 346 347 347 348 349 349 348 347 349 348 347 345 345 344
349 347 347 348 344 350 345 343 347 346 342 343 344 344 343 343 342 339 334 334 335 336 337 340 343 345 345 345 345 346 347 348 349 349 350 349 349 352 352 350 347 347 346
348 351 348 347 345 338 344 345 345 343 344 344 345 345 343 343 344 344 344 339 338 340 342 344 345 345 345 344 344 346 348 349 349 349 350 350 349 351 350 351 351 350 348
350 348 350 347 344 350 351 345 347 347 344 346 346 345 344 343 346 346 347 348 347 343 346 346 345 346 345 344 345 347 349 350 351 351 350 350 348 351 346 351 349 347 348
352 349 351 345 348 352 347 348 343 344 344 345 344 344 344 344 345 347 348 347 348 349 346 348 349 347 347 346 346 346 347 348 349 351 352 351 349 351 345 346 345 347 348
351 353 352 348 354 352 347 349 343 342 347 345 345 345 345 345 346 346 347 346 344 347 349 351 352 351 348 348 347 345 345 347 347 349 350 351 351 348 349 342 339 340 345
352 354 352 350 339 350 350 352 353 353 345 344 348 343 342 344 346 346 345 346 342 347 348 349 350 351 352 350 348 345 343 344 345 347 347 348 350 350 349 346 339 338 342
352 353 354 353 349 353 351 354 351 354 347 343 346 354 354 347 345 344 344 344 343 344 347 349 349 349 351 352 349 346 342 343 345 346 343 343 346 350 348 349 343 340 341
351 353 354 352 352 352 353 354 353 356 353 344 342 354 358 358 349 342 341 343 340 345 347 345 348 349 351 353 352 345 342 343 345 346 344 343 341 343 349 348 347 343 341
351 351 352 353 353 350 352 354 354 353 356 354 345 345 350 346 344 352 343 343 344 346 344 344 348 350 351 354 351 345 344 348 346 345 346 341 339 338 343 348 349 347 344
352 352 351 351 354 354 352 355 353 352 355 356 356 352 345 351 346 352 346 340 343 344 346 346 345 351 352 352 349 349 346 348 349 347 344 341 339 338 336 345 348 348 347
350 352 352 354 354 353 353 351 354 352 353 353 352 356 352 346 343 344 343 341 345 346 342 346 343 339 344 338 349 348 348 347 348 348 345 345 348 344 338 341 346 348 348
353 352 353 352 353 350 354 351 354 352 352 352 354 353 355 347 340 346 347 342 343 345 342 340 338 332 340 348 347 346 349 348 348 346 344 346 342 342 339 339 340 345 347
349 353 352 353 353 354 354 354 353 349 351 351 353 350 347 348 348 346 347 348 349 350 339 344 343 342 352 351 348 347 350 349 348 345 345 345 340 337 337 340 341 341 342
349 352 353 353 352 353 354 354 352 353 353 351 350 349 348 351 350 352 344 345 349 356 352 348 350 345 348 346 348 348 347 346 347 348 346 345 341 339 335 337 338 341 342
351 349 353 352 353 353 351 352 352 353 351 352 352 352 354 351 350 352 352 350 347 346 355 349 346 347 345 347 350 348 348 348 348 350 345 345 342 341 343 343 343 344 341
353 348 352 355 354 354 354 355 353 350 354 353 352 352 351 349 351 349 348 349 347 348 351 349 346 348 350 346 351 349 349 350 348 348 347 342 342 343 345 346 347 348 347
354 352 353 354 353 354 354 355 354 353 353 351 352 352 352 352 352 353 353 353 351 351 352 350 352 348 345 348 352 349 350 349 348 348 344 345 343 346 346 347 347 349 348
353 353 354 352 353 353 353 355 354 352 353 352 351 351 352 353 352 351 352 353 352 352 352 353 352 349 348 350 350 351 343 349 350 347 349 347 346 347 346 347 347 348 350
351 352 353 352 353 350 353 354 354 354 353 354 352 351 350 351 352 352 353 352 353 351 351 352 352 351 351 354 350 354 353 355 351 352 350 355 350 350 347 346 348 348 350
352 351 352 352 353 353 352 352 353 353 352 352 354 354 352 352 350 350 351 349 350 355 355 354 354 352 354 355 356 356 357 355 354 351 354 353 354 356 355 352 350 351 351
350 350 350 351 351 352 349 347 351 352 352 354 349 350 353 352 354 352 352 350 350 350 352 354 355 355 355 355 354 354 354 356 355 353 354 353 352 352 355 353 351 351 351
348 350 351 353 353 351 348 348 348 349 349 352 354 353 352 352 351 352 351 350 352 353 352 351 352 353 353 352 350 347 347 349 352 352 354 353 352 356 354 355 354 352 352
347 350 348 344 341 338 342 342 343 346 348 350 353 354 351 345 338 340 344 346 346 347 344 340 337 339 339 337 337 340 343 347 351 350 349 352 350 349 346 349 354 353 352
344 345 343 340 335 334 339 343 346 354 350 347 345 341 338 329 321 328 337 336 336 335 330 330 334 339 339 339 338 338 345 347 349 345 346 347 347 349 350 350 351 349 353
342 341 338 336 336 329 334 338 340 346 345 336 325 325 320 319 318 319 322 324 319 316 318 330 332 335 342 340 338 340 344 344 343 342 340 343 348 348 349 349 346 347 350

GFSMA_925_thetae_111.txt.gz
Theta_e
344 339 339 339 338 345 346 346 345 346 344 344 342 340 341 335 331 324 325 327 331 335 337 340 343 344 345 345 345 346 347 348 348 349 349 348 351 351 351 349 347 345 344
347 345 345 344 345 346 346 345 344 345 345 343 344 341 341 338 337 335 336 336 337 339 342 345 345 345 345 344 345 347 347 348 349 349 349 348 350 347 348 351 349 348 345
348 347 347 346 347 349 349 347 348 348 342 341 344 344 342 343 342 340 337 337 339 342 345 346 346 345 344 345 346 348 349 350 351 351 350 350 348 346 346 347 346 348 347
352 347 347 346 350 349 347 347 346 349 344 344 345 343 343 343 345 346 344 342 342 345 346 346 346 345 344 344 346 347 347 347 348 350 351 351 348 349 343 344 343 346 346
352 347 349 351 352 349 344 347 346 345 344 345 346 344 343 343 345 347 347 348 348 345 346 348 349 346 347 346 345 345 345 345 347 348 349 350 350 348 345 339 340 344 347
352 350 353 351 348 350 350 351 348 347 349 346 345 344 344 343 345 347 345 347 346 348 348 349 351 352 349 348 346 344 343 344 345 346 344 347 350 348 348 341 339 342 345
351 352 352 338 347 349 353 352 350 352 350 343 347 349 346 345 345 345 345 345 343 346 348 349 350 350 351 349 346 343 344 343 345 344 343 343 345 349 348 346 341 341 343
349 352 353 350 349 351 352 352 352 355 353 345 347 354 343 343 344 346 346 346 345 344 348 347 349 349 351 351 349 343 343 343 344 346 345 341 340 343 347 348 344 342 342
347 351 353 350 351 350 352 354 354 354 355 354 348 353 350 353 347 344 344 343 343 345 345 345 347 351 352 351 348 347 347 348 347 344 343 340 338 337 343 347 347 342 341
350 349 352 353 352 350 351 353 353 351 353 354 353 351 346 343 338 346 344 341 341 342 345 344 338 338 345 337 348 347 348 348 347 347 344 345 344 339 338 344 347 346 343
350 349 350 350 352 352 350 353 354 350 352 353 355 352 346 344 343 337 340 336 335 341 341 338 334 337 334 341 346 347 349 348 347 346 343 346 346 343 339 341 346 347 347
351 350 350 351 350 351 352 349 353 350 350 350 351 353 350 344 343 339 338 337 337 341 334 334 335 337 334 340 345 346 349 348 346 346 343 346 342 342 339 338 342 345 347
350 351 351 352 353 350 351 352 352 348 350 350 352 350 346 344 340 337 331 337 341 343 339 338 338 336 337 343 348 347 350 349 348 347 345 346 342 338 336 339 340 339 342
349 350 351 352 350 353 351 354 350 352 350 350 350 348 351 352 351 350 348 343 336 342 345 344 340 343 347 347 349 351 351 348 346 347 348 345 342 339 335 337 338 341 341
345 350 351 351 352 352 353 353 352 350 351 351 347 352 350 353 350 349 351 351 350 344 343 344 348 348 348 348 349 350 346 348 349 348 345 344 342 341 342 343 342 345 344
338 346 350 353 352 351 349 352 352 351 353 352 352 351 352 349 348 349 348 353 351 349 346 351 349 350 350 350 349 349 349 348 349 349 347 345 342 343 344 344 345 348 347
347 347 347 353 353 353 352 353 352 349 352 350 351 348 350 351 351 352 352 352 351 353 351 349 349 348 348 348 351 351 351 350 350 349 347 348 345 344 346 345 345 346 348
351 346 346 351 352 352 354 352 352 353 352 351 351 351 351 349 352 350 351 351 350 352 350 350 350 350 351 350 347 349 354 353 351 350 352 353 349 349 349 354 352 347 347
352 351 352 351 352 353 353 352 354 351 351 353 351 351 351 351 352 350 349 352 350 351 349 352 353 351 351 351 350 350 349 350 348 346 347 352 352 352 353 352 350 350 346
351 350 353 353 350 351 352 354 353 353 351 352 353 353 351 350 350 351 350 352 350 350 353 351 351 352 352 354 352 352 351 350 350 347 349 351 350 353 354 351 349 349 350
351 350 352 352 350 351 351 352 353 353 353 350 349 350 352 352 351 350 350 349 348 348 348 349 351 352 353 352 353 352 349 348 344 351 351 352 352 355 354 355 353 351 351
350 349 350 351 350 350 349 347 348 353 352 351 351 351 350 351 350 352 351 351 350 352 352 350 351 352 352 352 348 339 340 345 349 350 350 350 349 349 345 352 353 352 351
346 346 349 349 350 349 348 348 347 348 350 351 351 351 351 350 349 348 346 348 347 347 347 348 346 339 337 335 336 338 344 348 349 347 347 348 346 347 345 352 350 351 351
346 347 346 346 344 343 341 342 342 344 348 349 348 350 348 344 340 341 343 344 340 339 331 330 332 334 337 338 337 336 342 343 343 344 337 344 347 343 344 349 343 347 349
345 346 344 339 335 337 338 341 346 350 348 346 343 341 337 328 325 336 336 334 334 325 322 329 331 334 337 340 340 341 339 340 339 341 330 337 341 336 342 347 335 340 338
343 341 338 336 335 330 333 336 342 347 338 333 328 322 320 319 318 318 319 316 315 319 326 328 335 330 329 329 329 334 328 327 324 330 329 336 336 337 335 338 333 330 322

GFSMA_925_thetae_117.txt.gz
Theta_e
340 337 340 336 338 341 344 346 346 345 345 345 343 343 344 343 332 324 326 330 333 338 339 341 342 343 343 344 345 346 348 349 350 350 349 347 348 343 343 345 346 345 344
336 339 341 341 343 344 346 345 347 346 346 345 341 341 340 337 328 328 331 334 337 339 342 343 344 343 343 343 345 346 347 347 348 350 350 349 347 343 343 342 344 346 343
344 344 345 345 344 345 345 346 346 347 344 342 341 341 341 338 338 336 335 338 341 343 344 344 343 343 343 344 344 345 345 346 346 348 349 349 347 345 341 342 343 345 343
347 345 343 342 343 347 346 349 348 345 342 341 343 343 340 341 342 344 344 342 341 342 343 343 344 344 345 345 345 344 344 345 345 346 347 348 348 346 341 340 342 344 341
347 345 346 345 345 348 351 350 352 345 343 343 344 344 342 342 342 342 344 345 343 344 346 346 346 347 348 347 346 343 345 344 345 342 343 346 348 347 343 341 343 344 343
348 350 347 345 345 350 349 352 351 349 346 345 345 345 344 343 342 344 346 346 347 347 346 347 347 348 349 350 347 345 346 346 344 343 341 341 344 347 345 342 343 342 343
349 349 340 344 348 349 349 352 352 352 349 344 346 345 344 343 343 344 345 345 346 345 344 345 346 348 350 350 348 345 347 347 345 341 339 339 339 346 346 343 343 343 340
348 348 349 347 347 348 350 350 351 350 350 347 350 345 338 341 344 344 344 344 344 344 345 345 348 348 347 347 345 345 346 347 347 342 342 345 342 341 346 345 343 344 343
348 348 348 347 348 348 350 350 351 350 350 347 347 348 345 343 340 340 340 339 342 342 343 341 342 340 338 336 336 343 345 346 348 345 344 345 344 341 343 346 344 343 343
347 349 348 346 348 349 350 351 350 350 350 348 344 343 343 341 337 341 341 337 338 338 338 339 340 336 335 334 339 344 345 347 347 347 346 345 346 342 339 345 346 344 343
350 350 351 350 349 349 348 351 350 349 350 346 345 343 340 337 337 335 335 334 334 336 340 340 338 338 340 336 342 345 344 348 348 348 348 347 346 344 338 341 346 346 344
350 352 349 350 350 348 350 348 349 349 348 350 346 344 344 342 340 336 333 333 335 339 340 342 342 343 338 336 341 346 348 348 349 348 348 348 348 347 337 338 340 344 346
347 348 350 349 350 350 349 350 351 348 349 349 348 345 343 345 343 337 334 338 341 341 343 343 344 344 345 346 347 348 348 348 350 351 349 347 344 343 341 337 339 340 341
347 347 348 350 347 351 349 349 349 350 349 349 348 349 346 345 347 348 345 342 340 338 341 344 345 345 347 347 348 349 349 349 351 349 347 346 344 343 342 341 341 343 345
347 348 348 349 348 351 351 351 352 350 349 350 350 349 349 348 347 348 347 346 345 341 338 346 346 348 349 349 351 351 351 350 349 352 347 346 345 344 344 344 343 342 344
346 346 348 349 347 350 351 352 352 351 350 350 351 350 350 347 349 349 347 348 349 347 340 346 349 350 349 347 350 351 350 350 348 348 349 350 350 350 350 352 352 350 343
345 343 347 349 347 349 351 351 351 351 349 350 351 350 349 350 350 351 351 350 351 349 344 347 348 349 349 349 348 347 345 345 344 345 345 345 349 350 350 348 348 348 348
344 338 338 345 350 350 351 351 351 350 351 348 349 349 349 350 350 350 349 350 349 349 348 347 348 349 348 349 348 347 345 343 346 349 351 351 350 352 351 346 348 349 345
343 342 347 345 349 350 351 352 349 349 348 348 349 348 349 350 350 350 349 349 348 348 350 349 347 348 349 348 348 345 342 349 347 349 350 345 349 350 350 348 345 345 346
347 344 348 347 347 348 349 350 350 349 348 349 348 349 350 351 350 349 349 349 349 348 347 346 345 348 349 350 342 340 344 348 346 346 345 344 345 348 348 348 347 348 349
349 347 347 349 349 350 349 348 347 346 338 349 349 349 347 349 349 348 349 349 348 346 346 347 348 349 349 340 338 343 346 347 346 337 344 345 342 337 340 340 334 337 342
347 348 348 350 350 348 348 347 346 346 348 348 349 348 348 346 347 347 349 349 347 348 349 349 349 346 339 335 337 338 342 344 340 332 343 335 339 333 320 323 329 334 339
345 347 346 347 347 348 348 347 347 346 346 346 347 347 347 346 346 347 347 347 346 347 345 344 340 335 334 337 337 337 341 342 329 329 333 336 333 332 318 321 328 331 325
345 346 346 345 344 343 344 341 341 344 343 346 348 347 345 345 344 344 344 341 339 334 332 330 329 330 332 334 337 339 340 338 343 329 330 335 322 334 321 316 322 327 322
346 346 345 344 343 343 340 337 341 343 343 344 342 340 337 337 339 339 339 337 328 330 333 334 335 337 337 337 336 333 328 327 329 320 326 322 316 319 324 313 313 313 311
344 344 343 342 342 337 336 336 340 343 342 341 340 336 326 326 330 325 326 322 329 326 328 330 329 328 325 324 324 325 323 323 324 316 316 316 314 314 319 315 313 308 308

GFSMA_925_thetae_123.txt.gz
Theta_e
338 337 337 341 343 345 344 345 345 347 345 347 344 346 345 337 335 336 336 332 336 338 339 341 342 343 343 343 344 344 345 345 345 346 346 346 347 345 341 343 342 344 343
336 341 343 343 343 344 344 345 345 345 345 345 342 339 342 338 331 331 336 336 338 339 341 342 343 343 343 344 345 344 345 345 344 343 343 345 347 345 340 343 342 343 341
343 344 343 344 345 345 346 346 345 344 344 343 341 340 341 339 337 335 336 338 339 342 344 344 345 346 346 345 346 345 345 344 343 341 340 342 346 345 342 343 342 341 339
344 343 342 344 347 349 350 350 346 347 345 346 347 345 340 340 341 342 343 344 344 344 345 346 346 346 346 347 346 346 346 345 343 340 340 341 344 345 343 343 342 339 337
344 344 344 346 347 350 351 353 348 346 346 346 346 346 342 345 345 345 344 345 345 346 348 348 346 347 349 348 345 346 346 346 343 342 343 342 343 345 343 344 341 341 338
347 346 344 345 348 352 355 353 348 345 349 349 346 347 347 345 344 346 344 345 345 346 345 344 347 351 350 349 346 346 345 345 345 343 344 342 341 344 343 344 342 340 340
349 346 344 346 346 349 350 350 352 351 350 348 349 348 347 346 347 344 344 346 346 345 344 345 348 347 346 341 337 340 343 346 347 345 344 344 341 343 344 344 344 342 340
348 348 345 347 346 352 349 349 348 353 351 350 354 348 350 348 347 347 348 348 347 346 346 344 343 341 339 337 335 341 343 345 347 347 347 346 344 342 343 343 344 344 342
347 348 347 346 346 348 353 349 352 352 351 348 347 355 352 349 349 347 347 346 344 345 344 343 343 342 337 337 337 342 342 347 347 346 347 347 346 340 339 343 344 343 344
349 349 348 347 348 348 350 350 352 351 350 351 349 346 344 349 350 350 348 346 345 344 343 343 344 345 339 338 340 346 347 346 348 349 349 347 346 342 336 338 342 344 343
348 348 348 348 348 348 349 349 349 349 351 352 350 348 346 344 344 345 345 341 344 342 342 346 347 346 346 346 347 348 348 349 349 347 344 342 342 340 337 337 338 340 343
350 348 348 349 347 349 348 350 349 348 349 351 350 348 349 347 348 344 344 347 347 347 347 347 347 348 349 349 347 348 347 348 347 345 346 343 343 343 342 342 343 343 341
350 350 348 349 347 348 348 348 348 348 349 351 350 350 348 348 346 344 345 348 349 348 349 349 350 351 350 354 354 351 350 350 348 346 345 345 342 342 342 342 341 341 344
350 347 348 347 346 346 349 349 352 352 350 351 353 353 351 348 347 348 349 349 348 349 348 352 350 351 353 354 350 351 352 348 348 348 347 346 344 343 344 346 346 344 341
347 347 346 347 348 350 348 349 352 350 351 352 352 351 351 351 347 349 350 350 350 349 346 349 350 352 351 353 349 354 351 347 347 346 345 345 347 349 348 348 349 349 347
345 344 346 346 349 352 353 350 351 353 352 353 351 353 351 353 352 350 350 351 350 350 351 348 351 352 352 352 348 349 347 350 347 347 346 346 347 347 347 347 346 347 350
346 341 344 347 347 351 352 349 348 350 353 352 353 352 354 352 351 352 353 351 352 352 351 350 350 352 349 351 352 349 351 352 344 347 347 348 350 349 346 347 347 346 348
345 346 345 344 344 348 351 349 350 351 352 352 353 353 353 351 352 350 351 350 352 352 351 352 350 350 347 348 349 351 350 350 338 342 346 347 347 346 344 344 343 343 344
346 346 343 342 343 344 346 350 350 349 350 351 352 353 350 353 352 351 350 352 350 353 352 352 351 351 351 352 348 349 347 347 345 337 340 338 340 343 345 346 347 347 347
347 347 344 341 340 345 348 349 350 348 348 350 347 346 348 348 347 347 349 348 348 348 351 351 350 349 351 353 346 349 347 344 346 336 331 333 334 334 338 339 342 344 346
348 348 347 345 343 349 349 348 348 348 347 351 352 349 351 347 346 347 348 348 347 348 347 350 349 350 351 347 346 347 350 342 341 344 331 329 324 321 321 326 331 336 340
349 349 348 347 347 348 348 347 347 347 349 350 348 348 348 347 347 347 346 347 348 348 350 351 352 352 351 344 343 344 348 347 341 339 331 326 320 317 316 315 321 323 327
348 348 349 350 347 346 347 347 346 345 346 348 350 346 347 346 347 345 346 346 346 346 345 349 351 351 345 342 342 343 346 343 336 333 338 327 322 315 312 309 312 318 322
347 348 349 345 343 345 344 344 344 341 342 345 344 347 347 344 343 344 341 339 338 337 338 336 339 339 338 338 340 343 346 336 333 326 336 333 324 319 312 306 303 306 309
346 345 344 344 345 344 343 343 340 340 340 340 342 343 342 341 341 342 340 335 332 333 335 334 332 332 334 334 334 340 340 342 340 327 324 326 326 318 315 312 307 301 300
345 344 343 343 343 343 341 340 339 339 338 338 338 336 336 335 334 336 338 336 330 329 326 329 326 326 328 329 332 332 331 332 332 325 318 323 322 327 323 313 310 308 306

GFSMA_925_thetae_126.txt.gz
Theta_e
344 344 347 347 349 349 349 350 350 349 349 344 343 343 341 341 341 340 342 339 341 342 342 343 343 343 344 344 345 345 346 345 344 343 343 346 347 344 342 343 343 343 341
345 348 349 348 350 350 350 350 351 348 345 341 342 343 342 342 342 342 342 344 343 344 345 345 345 345 345 346 346 345 346 344 342 340 340 344 346 343 344 343 342 341 340
351 352 349 350 351 353 355 352 350 349 344 341 344 345 344 343 343 344 344 345 345 345 345 345 345 345 346 346 346 346 346 345 342 342 341 342 345 343 344 342 340 339 338
352 352 349 351 354 355 354 351 347 345 345 342 345 344 344 345 347 347 348 349 348 347 348 349 346 346 347 348 347 346 347 346 343 343 342 342 344 343 344 340 339 337 337
351 351 350 351 356 355 354 349 348 345 346 344 342 344 346 346 347 346 349 350 351 351 351 352 350 350 349 349 347 346 345 346 345 343 343 341 343 344 344 341 339 338 337
353 353 349 353 355 353 352 353 352 351 349 347 343 344 346 346 347 347 347 347 350 352 351 353 353 353 349 348 346 344 345 345 347 345 344 343 341 344 344 343 340 339 337
353 353 350 351 354 352 358 356 354 354 351 353 349 348 348 348 347 347 348 348 350 350 350 351 351 350 347 344 342 341 340 346 347 347 346 345 340 341 343 344 343 340 339
353 354 352 353 354 353 356 359 358 351 352 354 353 348 349 347 345 347 349 350 351 350 349 348 349 350 349 345 342 344 344 346 347 347 348 346 342 338 344 343 344 343 341
352 355 354 354 354 354 352 356 357 357 350 353 356 355 351 350 348 350 350 349 350 348 348 347 346 347 348 347 344 347 346 345 345 349 349 348 343 336 341 344 343 344 344
353 354 353 355 355 353 355 354 355 357 357 351 351 351 353 353 350 348 348 346 347 346 345 346 346 346 347 347 348 347 345 348 349 349 346 345 343 336 337 340 343 343 343
353 354 354 354 355 352 356 355 354 357 355 354 351 351 352 348 348 347 346 345 347 345 348 348 349 350 352 352 351 352 348 349 347 346 344 343 343 340 339 339 341 343 343
349 352 353 354 355 353 354 354 355 355 354 355 353 352 349 348 347 346 346 346 346 348 349 350 351 349 350 352 352 350 349 349 347 346 346 344 343 342 340 340 342 343 342
349 350 352 352 351 350 351 353 355 354 355 354 356 352 350 351 349 348 347 345 346 345 347 348 348 350 352 351 353 352 350 350 348 347 346 345 343 343 343 342 341 342 344
350 351 353 353 352 352 353 353 352 352 352 352 355 355 351 349 349 349 348 347 344 345 345 348 348 349 349 352 352 352 354 347 347 346 345 345 347 348 346 345 345 345 342
352 354 354 354 353 353 354 353 353 353 353 353 351 353 352 348 349 347 348 347 346 345 345 351 345 352 350 352 349 354 354 347 345 345 344 344 346 346 346 347 348 348 346
354 352 353 353 353 353 354 354 352 353 354 352 350 350 353 348 350 349 349 348 348 346 346 345 345 350 353 351 351 352 352 350 346 347 347 348 349 346 346 346 347 346 347
354 354 353 352 354 354 354 355 354 352 353 354 353 352 353 353 350 348 348 348 347 348 346 343 348 352 352 353 351 352 353 348 343 346 346 347 347 344 344 344 346 346 343
354 354 353 353 353 353 354 355 354 351 352 352 352 352 353 351 353 353 349 348 349 350 349 350 350 349 351 352 353 353 351 345 336 339 342 343 345 345 346 347 346 347 347
353 353 353 352 351 350 351 353 354 352 352 352 352 353 353 353 353 350 351 351 350 351 353 352 350 351 350 350 352 352 351 348 338 334 335 336 338 341 342 344 345 346 347
353 353 353 352 350 349 349 350 352 353 353 352 352 352 352 352 353 353 351 352 351 353 351 352 352 348 348 352 350 351 350 347 339 335 333 330 329 330 333 338 340 342 344
351 352 354 353 351 351 351 352 352 353 353 352 352 352 350 352 351 350 350 351 350 350 349 350 347 347 349 350 348 349 349 347 349 343 337 331 329 325 322 324 327 334 337
352 353 353 353 352 350 349 349 348 352 352 353 353 352 352 350 346 347 347 347 347 350 352 350 347 348 351 351 347 346 350 347 344 344 336 328 325 319 316 317 322 325 327
351 351 352 352 351 351 350 348 347 347 350 351 352 352 352 350 348 352 349 345 346 346 346 350 351 350 351 349 346 347 349 350 348 343 339 333 325 319 314 311 320 321 323
346 348 350 350 350 352 348 345 345 345 345 348 351 351 352 352 350 350 348 347 345 342 343 343 344 348 347 346 346 347 349 346 338 336 339 339 330 320 312 305 302 306 310
345 344 345 344 348 348 344 344 344 343 342 344 343 343 347 349 346 342 346 345 343 334 337 337 334 332 333 330 337 342 345 343 344 337 332 333 330 324 321 316 309 305 301
347 345 343 344 345 344 343 343 343 341 339 337 335 335 337 336 334 337 344 342 340 338 328 330 330 328 329 331 335 336 339 337 336 335 326 328 327 326 325 321 317 312 310

GFSMA_925_thetae_129.txt.gz
Theta_e
345 345 348 348 346 346 344 346 348 348 346 344 344 342 341 341 340 341 342 343 343 343 344 345 345 345 345 346 346 345 345 345 341 341 341 343 345 343 344 341 342 342 341
347 347 348 346 346 347 346 347 350 348 343 341 343 342 342 342 343 343 343 344 345 345 345 345 345 345 345 346 346 345 346 345 342 342 342 343 344 343 342 340 339 340 343
351 350 346 348 347 348 351 349 350 347 342 341 344 345 343 342 344 346 345 345 346 346 346 348 348 346 347 348 347 346 346 346 343 343 342 343 344 344 341 340 338 338 340
353 352 349 348 347 351 349 348 348 346 342 342 344 344 343 344 347 349 348 349 348 348 349 351 350 348 348 349 348 346 346 346 345 343 343 342 342 344 342 340 339 337 342
351 354 349 350 356 354 348 345 345 345 344 343 343 344 345 345 346 345 346 348 349 351 351 352 352 353 348 348 347 345 345 344 347 345 345 341 341 343 344 340 339 339 339
351 353 348 353 355 355 349 353 351 348 348 344 344 342 344 344 344 344 345 345 347 351 350 352 353 356 349 345 343 341 339 344 346 347 346 344 341 343 344 342 340 338 341
351 353 351 351 353 354 356 355 354 353 350 350 347 344 345 344 344 344 345 345 347 349 350 351 352 351 350 348 346 342 343 344 347 347 348 346 341 341 343 344 341 339 339
352 353 353 352 353 354 356 357 358 357 350 351 354 348 348 348 344 344 345 346 349 350 349 349 349 349 350 349 346 346 345 346 346 347 349 347 343 340 343 344 343 341 340
352 354 353 355 354 352 355 355 357 355 355 350 350 353 358 344 333 349 351 349 350 348 347 347 347 348 348 349 348 347 344 346 348 349 348 347 344 338 341 343 344 344 342
352 352 353 354 355 356 351 353 354 355 351 355 350 349 353 353 351 349 347 347 347 345 347 348 348 351 353 350 350 351 347 348 348 346 344 344 343 339 339 342 343 343 344
353 352 353 354 355 352 355 356 354 356 356 352 353 350 353 348 348 347 346 345 349 346 346 348 348 348 353 352 351 351 347 348 346 346 345 343 343 341 340 341 342 343 343
351 352 354 353 354 355 355 354 356 354 355 357 354 352 347 347 347 346 347 346 343 348 343 349 345 344 344 353 352 348 348 349 348 347 345 345 343 343 341 341 342 343 343
347 353 354 355 353 355 353 354 356 356 355 352 358 351 347 345 346 345 344 344 343 342 345 345 344 345 346 352 353 350 350 347 347 346 346 346 346 346 344 343 342 342 345
349 353 354 353 354 354 353 354 352 353 352 354 355 354 352 348 345 345 344 344 344 342 346 349 345 344 345 349 352 344 352 346 346 345 345 346 346 346 347 348 345 344 342
351 353 354 353 354 353 353 352 352 352 352 354 352 352 352 347 344 346 345 345 345 346 348 350 345 352 349 348 349 353 350 348 345 346 347 348 348 346 345 346 346 348 344
354 355 354 354 354 354 354 355 352 352 353 351 350 350 351 347 347 347 346 345 347 345 346 341 343 351 351 354 351 353 354 348 345 346 346 347 345 344 345 346 345 345 345
355 355 355 356 354 354 356 356 354 355 354 355 353 352 352 352 350 346 352 346 345 345 349 343 350 356 355 353 354 354 352 345 344 344 343 345 346 346 346 344 344 344 341
355 355 355 355 355 355 354 355 356 355 353 353 352 352 353 351 353 354 351 348 345 350 349 353 350 350 353 353 353 355 350 342 338 338 340 340 342 344 345 346 347 347 347
354 353 354 355 356 353 353 354 355 355 354 353 351 351 352 353 353 352 353 353 352 351 353 351 350 351 350 350 354 353 353 347 335 333 333 335 335 338 341 342 343 345 346
354 354 353 354 354 354 352 352 352 353 354 354 353 353 354 354 353 353 353 351 351 351 354 350 349 351 351 348 350 350 352 351 341 336 334 331 329 328 331 334 336 339 342
353 354 353 353 354 354 351 351 353 353 355 354 353 353 354 353 352 352 352 352 352 352 351 350 351 348 348 350 350 350 350 351 348 347 340 333 331 326 322 323 327 331 334
355 355 354 354 354 352 348 348 350 350 352 354 354 355 354 353 350 348 346 347 347 345 349 351 348 351 349 354 349 349 350 350 350 348 342 333 328 321 320 318 321 323 324
354 354 354 355 354 353 351 350 350 349 350 351 351 352 354 352 351 352 349 347 346 346 346 350 352 351 354 355 352 350 349 352 351 345 340 336 329 321 316 314 318 319 320
354 353 355 351 349 350 351 350 348 347 350 350 351 352 352 353 353 352 352 352 351 346 345 345 348 350 348 348 349 348 349 352 347 344 343 341 332 322 313 307 303 302 303
353 353 352 351 347 346 348 350 344 345 347 347 347 348 345 350 350 347 345 350 348 342 333 337 337 337 335 333 339 341 345 346 345 341 337 339 335 328 320 313 314 311 307
348 349 350 349 347 345 345 345 343 342 343 343 338 337 340 340 338 339 345 348 347 344 337 336 333 331 330 330 333 336 333 337 340 338 333 333 332 329 326 325 316 315 312